<?xml version="1.0" encoding="UTF-8" standalone="no" ?>
<gpx xmlns="http://www.topografix.com/GPX/1/1" xmlns:xsi="http://www.w3.org/2001/XMLSchema-instance" xsi:schemaLocation="http://www.topografix.com/GPX/1/1 http://www.topografix.com/GPX/1/1/gpx.xsd" version="1.1" creator="VisuGPX - https://www.visugpx.com">
  <metadata>
    <name>Fiz - Tour des 8 refuges - des chalets de Sales</name>
  </metadata>
  <trk>
    <name><![CDATA[Fiz - Tour des 8 refuges - des chalets de Sales_1]]></name>
    <extensions>
      <line xmlns="http://www.topografix.com/GPX/gpx_style/0/2">
        <color>0000FF</color>
        <width>4</width>
      </line>
    </extensions>
    <trkseg>
      <trkpt lat="45.98866" lon="6.75258">
        <ele>1874.6</ele>
        <time>2000-01-01T04:44:57.000Z</time>
      </trkpt>
      <trkpt lat="45.98882" lon="6.7526">
        <ele>1870</ele>
        <time>2000-01-01T04:45:07.000Z</time>
      </trkpt>
      <trkpt lat="45.98903" lon="6.75256">
        <ele>1870</ele>
        <time>2000-01-01T04:45:17.000Z</time>
      </trkpt>
      <trkpt lat="45.98918" lon="6.75255">
        <ele>1872.5</ele>
        <time>2000-01-01T04:45:27.000Z</time>
      </trkpt>
      <trkpt lat="45.98936" lon="6.75256">
        <ele>1870</ele>
        <time>2000-01-01T04:45:37.000Z</time>
      </trkpt>
      <trkpt lat="45.98954" lon="6.75259">
        <ele>1873.5</ele>
        <time>2000-01-01T04:45:47.000Z</time>
      </trkpt>
      <trkpt lat="45.98977" lon="6.75252">
        <ele>1869</ele>
        <time>2000-01-01T04:45:57.000Z</time>
      </trkpt>
      <trkpt lat="45.98998" lon="6.75223">
        <ele>1869</ele>
        <time>2000-01-01T04:46:07.000Z</time>
      </trkpt>
      <trkpt lat="45.99017" lon="6.75193">
        <ele>1869</ele>
        <time>2000-01-01T04:46:17.000Z</time>
      </trkpt>
      <trkpt lat="45.9903" lon="6.7518">
        <ele>1873.9</ele>
        <time>2000-01-01T04:46:27.000Z</time>
      </trkpt>
      <trkpt lat="45.99042" lon="6.75186">
        <ele>1868</ele>
        <time>2000-01-01T04:46:37.000Z</time>
      </trkpt>
      <trkpt lat="45.99067" lon="6.75196">
        <ele>1868</ele>
        <time>2000-01-01T04:46:47.000Z</time>
      </trkpt>
      <trkpt lat="45.99097" lon="6.75209">
        <ele>1868</ele>
        <time>2000-01-01T04:46:57.000Z</time>
      </trkpt>
      <trkpt lat="45.99125" lon="6.75216">
        <ele>1868</ele>
        <time>2000-01-01T04:47:07.000Z</time>
      </trkpt>
      <trkpt lat="45.99139" lon="6.75199">
        <ele>1874.9</ele>
        <time>2000-01-01T04:47:17.000Z</time>
      </trkpt>
      <trkpt lat="45.99154" lon="6.75194">
        <ele>1867</ele>
        <time>2000-01-01T04:47:27.000Z</time>
      </trkpt>
      <trkpt lat="45.99196" lon="6.75183">
        <ele>1861</ele>
        <time>2000-01-01T04:47:37.000Z</time>
      </trkpt>
      <trkpt lat="45.99216" lon="6.75172">
        <ele>1856</ele>
        <time>2000-01-01T04:47:47.000Z</time>
      </trkpt>
      <trkpt lat="45.9925" lon="6.7515">
        <ele>1856</ele>
        <time>2000-01-01T04:47:57.000Z</time>
      </trkpt>
      <trkpt lat="45.99281" lon="6.75144">
        <ele>1843</ele>
        <time>2000-01-01T04:48:07.000Z</time>
      </trkpt>
      <trkpt lat="45.99305" lon="6.75149">
        <ele>1840</ele>
        <time>2000-01-01T04:48:17.000Z</time>
      </trkpt>
      <trkpt lat="45.99329" lon="6.7515">
        <ele>1838</ele>
        <time>2000-01-01T04:48:27.000Z</time>
      </trkpt>
      <trkpt lat="45.99349" lon="6.75157">
        <ele>1833</ele>
        <time>2000-01-01T04:48:37.000Z</time>
      </trkpt>
      <trkpt lat="45.99368" lon="6.75172">
        <ele>1823</ele>
        <time>2000-01-01T04:48:47.000Z</time>
      </trkpt>
      <trkpt lat="45.99383" lon="6.75182">
        <ele>1836.4</ele>
        <time>2000-01-01T04:48:57.000Z</time>
      </trkpt>
      <trkpt lat="45.99409" lon="6.75184">
        <ele>1821</ele>
        <time>2000-01-01T04:49:07.000Z</time>
      </trkpt>
      <trkpt lat="45.99433" lon="6.75189">
        <ele>1820</ele>
        <time>2000-01-01T04:49:17.000Z</time>
      </trkpt>
      <trkpt lat="45.99449" lon="6.75185">
        <ele>1825.2</ele>
        <time>2000-01-01T04:49:27.000Z</time>
      </trkpt>
      <trkpt lat="45.99469" lon="6.75171">
        <ele>1813</ele>
        <time>2000-01-01T04:49:37.000Z</time>
      </trkpt>
      <trkpt lat="45.9949" lon="6.75167">
        <ele>1811</ele>
        <time>2000-01-01T04:49:47.000Z</time>
      </trkpt>
      <trkpt lat="45.99515" lon="6.75167">
        <ele>1805</ele>
        <time>2000-01-01T04:49:57.000Z</time>
      </trkpt>
      <trkpt lat="45.99535" lon="6.75159">
        <ele>1802</ele>
        <time>2000-01-01T04:50:07.000Z</time>
      </trkpt>
      <trkpt lat="45.99547" lon="6.75142">
        <ele>1817.2</ele>
        <time>2000-01-01T04:50:17.000Z</time>
      </trkpt>
      <trkpt lat="45.99564" lon="6.75139">
        <ele>1801</ele>
        <time>2000-01-01T04:50:27.000Z</time>
      </trkpt>
      <trkpt lat="45.9959" lon="6.75145">
        <ele>1792</ele>
        <time>2000-01-01T04:50:37.000Z</time>
      </trkpt>
      <trkpt lat="45.99602" lon="6.7515">
        <ele>1793.9</ele>
        <time>2000-01-01T04:50:47.000Z</time>
      </trkpt>
      <trkpt lat="45.9961" lon="6.75146">
        <ele>1790</ele>
        <time>2000-01-01T04:50:57.000Z</time>
      </trkpt>
      <trkpt lat="45.99627" lon="6.75154">
        <ele>1792.3</ele>
        <time>2000-01-01T04:51:07.000Z</time>
      </trkpt>
      <trkpt lat="45.99646" lon="6.7516">
        <ele>1783</ele>
        <time>2000-01-01T04:51:17.000Z</time>
      </trkpt>
      <trkpt lat="45.99664" lon="6.75172">
        <ele>1775</ele>
        <time>2000-01-01T04:51:27.000Z</time>
      </trkpt>
      <trkpt lat="45.99677" lon="6.75163">
        <ele>1779.5</ele>
        <time>2000-01-01T04:51:37.000Z</time>
      </trkpt>
      <trkpt lat="45.99688" lon="6.75176">
        <ele>1772</ele>
        <time>2000-01-01T04:51:47.000Z</time>
      </trkpt>
      <trkpt lat="45.99706" lon="6.75179">
        <ele>1771.2</ele>
        <time>2000-01-01T04:51:57.000Z</time>
      </trkpt>
      <trkpt lat="45.99719" lon="6.75177">
        <ele>1770</ele>
        <time>2000-01-01T04:52:07.000Z</time>
      </trkpt>
      <trkpt lat="45.99733" lon="6.75169">
        <ele>1769.1</ele>
        <time>2000-01-01T04:52:17.000Z</time>
      </trkpt>
      <trkpt lat="45.99749" lon="6.75172">
        <ele>1762</ele>
        <time>2000-01-01T04:52:27.000Z</time>
      </trkpt>
      <trkpt lat="45.99764" lon="6.75186">
        <ele>1763.3</ele>
        <time>2000-01-01T04:52:37.000Z</time>
      </trkpt>
      <trkpt lat="45.99777" lon="6.75191">
        <ele>1757</ele>
        <time>2000-01-01T04:52:47.000Z</time>
      </trkpt>
      <trkpt lat="45.9979" lon="6.75202">
        <ele>1760.5</ele>
        <time>2000-01-01T04:52:57.000Z</time>
      </trkpt>
      <trkpt lat="45.99791" lon="6.75211">
        <ele>1749</ele>
        <time>2000-01-01T04:53:07.000Z</time>
      </trkpt>
      <trkpt lat="45.99781" lon="6.7521">
        <ele>1759.3</ele>
        <time>2000-01-01T04:53:17.000Z</time>
      </trkpt>
      <trkpt lat="45.99771" lon="6.75212">
        <ele>1748</ele>
        <time>2000-01-01T04:53:27.000Z</time>
      </trkpt>
      <trkpt lat="45.9978" lon="6.75233">
        <ele>1756.3</ele>
        <time>2000-01-01T04:53:37.000Z</time>
      </trkpt>
      <trkpt lat="45.99785" lon="6.75273">
        <ele>1739</ele>
        <time>2000-01-01T04:53:47.000Z</time>
      </trkpt>
      <trkpt lat="45.99794" lon="6.75289">
        <ele>1743.4</ele>
        <time>2000-01-01T04:53:57.000Z</time>
      </trkpt>
      <trkpt lat="45.99795" lon="6.75272">
        <ele>1736</ele>
        <time>2000-01-01T04:54:07.000Z</time>
      </trkpt>
      <trkpt lat="45.99801" lon="6.75254">
        <ele>1741.4</ele>
        <time>2000-01-01T04:54:17.000Z</time>
      </trkpt>
      <trkpt lat="45.99812" lon="6.75235">
        <ele>1735</ele>
        <time>2000-01-01T04:54:27.000Z</time>
      </trkpt>
      <trkpt lat="45.99825" lon="6.75227">
        <ele>1750.2</ele>
        <time>2000-01-01T04:54:37.000Z</time>
      </trkpt>
      <trkpt lat="45.99839" lon="6.75223">
        <ele>1731</ele>
        <time>2000-01-01T04:54:47.000Z</time>
      </trkpt>
      <trkpt lat="45.99871" lon="6.75228">
        <ele>1730</ele>
        <time>2000-01-01T04:54:57.000Z</time>
      </trkpt>
      <trkpt lat="45.99858" lon="6.7524">
        <ele>1742.6</ele>
        <time>2000-01-01T04:55:07.000Z</time>
      </trkpt>
      <trkpt lat="45.99852" lon="6.7525">
        <ele>1717</ele>
        <time>2000-01-01T04:55:17.000Z</time>
      </trkpt>
      <trkpt lat="45.99844" lon="6.75261">
        <ele>1720.4</ele>
        <time>2000-01-01T04:55:27.000Z</time>
      </trkpt>
      <trkpt lat="45.99834" lon="6.75268">
        <ele>1713</ele>
        <time>2000-01-01T04:55:37.000Z</time>
      </trkpt>
      <trkpt lat="45.99845" lon="6.75279">
        <ele>1714.4</ele>
        <time>2000-01-01T04:55:47.000Z</time>
      </trkpt>
      <trkpt lat="45.99872" lon="6.75289">
        <ele>1696</ele>
        <time>2000-01-01T04:55:57.000Z</time>
      </trkpt>
      <trkpt lat="45.99889" lon="6.75297">
        <ele>1703.9</ele>
        <time>2000-01-01T04:56:07.000Z</time>
      </trkpt>
      <trkpt lat="45.99912" lon="6.75312">
        <ele>1677</ele>
        <time>2000-01-01T04:56:17.000Z</time>
      </trkpt>
      <trkpt lat="45.99937" lon="6.75311">
        <ele>1677</ele>
        <time>2000-01-01T04:56:27.000Z</time>
      </trkpt>
      <trkpt lat="45.99962" lon="6.75336">
        <ele>1666</ele>
        <time>2000-01-01T04:56:37.000Z</time>
      </trkpt>
      <trkpt lat="45.99991" lon="6.75336">
        <ele>1664</ele>
        <time>2000-01-01T04:56:47.000Z</time>
      </trkpt>
      <trkpt lat="46.00015" lon="6.7533">
        <ele>1662</ele>
        <time>2000-01-01T04:56:57.000Z</time>
      </trkpt>
      <trkpt lat="46.00034" lon="6.75348">
        <ele>1659</ele>
        <time>2000-01-01T04:57:07.000Z</time>
      </trkpt>
      <trkpt lat="46.00068" lon="6.75339">
        <ele>1657</ele>
        <time>2000-01-01T04:57:17.000Z</time>
      </trkpt>
      <trkpt lat="46.00085" lon="6.75347">
        <ele>1684.1</ele>
        <time>2000-01-01T04:57:27.000Z</time>
      </trkpt>
      <trkpt lat="46.00103" lon="6.75341">
        <ele>1650</ele>
        <time>2000-01-01T04:57:37.000Z</time>
      </trkpt>
      <trkpt lat="46.00138" lon="6.75357">
        <ele>1652</ele>
        <time>2000-01-01T04:57:47.000Z</time>
      </trkpt>
      <trkpt lat="46.0016" lon="6.7533">
        <ele>1649</ele>
        <time>2000-01-01T04:57:57.000Z</time>
      </trkpt>
      <trkpt lat="46.00182" lon="6.75317">
        <ele>1647</ele>
        <time>2000-01-01T04:58:07.000Z</time>
      </trkpt>
      <trkpt lat="46.00205" lon="6.7532">
        <ele>1648</ele>
        <time>2000-01-01T04:58:17.000Z</time>
      </trkpt>
      <trkpt lat="46.00218" lon="6.75314">
        <ele>1625.7</ele>
        <time>2000-01-01T04:58:27.000Z</time>
      </trkpt>
      <trkpt lat="46.00231" lon="6.753">
        <ele>1644</ele>
        <time>2000-01-01T04:58:37.000Z</time>
      </trkpt>
      <trkpt lat="46.00244" lon="6.75293">
        <ele>1612.1</ele>
        <time>2000-01-01T04:58:47.000Z</time>
      </trkpt>
      <trkpt lat="46.00267" lon="6.75285">
        <ele>1640</ele>
        <time>2000-01-01T04:58:57.000Z</time>
      </trkpt>
      <trkpt lat="46.00282" lon="6.75272">
        <ele>1564.5</ele>
        <time>2000-01-01T04:59:07.000Z</time>
      </trkpt>
      <trkpt lat="46.00308" lon="6.75272">
        <ele>1644</ele>
        <time>2000-01-01T04:59:17.000Z</time>
      </trkpt>
      <trkpt lat="46.00319" lon="6.75271">
        <ele>1564.9</ele>
        <time>2000-01-01T04:59:27.000Z</time>
      </trkpt>
      <trkpt lat="46.00322" lon="6.75258">
        <ele>1624</ele>
        <time>2000-01-01T04:59:37.000Z</time>
      </trkpt>
      <trkpt lat="46.00339" lon="6.75263">
        <ele>1566.7</ele>
        <time>2000-01-01T04:59:47.000Z</time>
      </trkpt>
      <trkpt lat="46.00373" lon="6.75271">
        <ele>1604</ele>
        <time>2000-01-01T04:59:57.000Z</time>
      </trkpt>
      <trkpt lat="46.00396" lon="6.75271">
        <ele>1599</ele>
        <time>2000-01-01T05:00:07.000Z</time>
      </trkpt>
      <trkpt lat="46.00412" lon="6.75275">
        <ele>1570.1</ele>
        <time>2000-01-01T05:00:17.000Z</time>
      </trkpt>
      <trkpt lat="46.0045" lon="6.75308">
        <ele>1583</ele>
        <time>2000-01-01T05:00:27.000Z</time>
      </trkpt>
      <trkpt lat="46.0047" lon="6.75315">
        <ele>1579</ele>
        <time>2000-01-01T05:00:37.000Z</time>
      </trkpt>
      <trkpt lat="46.00487" lon="6.75313">
        <ele>1573.7</ele>
        <time>2000-01-01T05:00:47.000Z</time>
      </trkpt>
      <trkpt lat="46.00509" lon="6.75328">
        <ele>1570</ele>
        <time>2000-01-01T05:00:57.000Z</time>
      </trkpt>
      <trkpt lat="46.00546" lon="6.75362">
        <ele>1554</ele>
        <time>2000-01-01T05:01:07.000Z</time>
      </trkpt>
      <trkpt lat="46.00567" lon="6.75379">
        <ele>1553</ele>
        <time>2000-01-01T05:01:17.000Z</time>
      </trkpt>
      <trkpt lat="46.00575" lon="6.75395">
        <ele>1560.8</ele>
        <time>2000-01-01T05:01:27.000Z</time>
      </trkpt>
      <trkpt lat="46.00587" lon="6.754">
        <ele>1550</ele>
        <time>2000-01-01T05:01:37.000Z</time>
      </trkpt>
      <trkpt lat="46.00588" lon="6.75416">
        <ele>1555.7</ele>
        <time>2000-01-01T05:01:47.000Z</time>
      </trkpt>
      <trkpt lat="46.00606" lon="6.75434">
        <ele>1548</ele>
        <time>2000-01-01T05:01:57.000Z</time>
      </trkpt>
      <trkpt lat="46.0063" lon="6.75454">
        <ele>1546</ele>
        <time>2000-01-01T05:02:07.000Z</time>
      </trkpt>
      <trkpt lat="46.0065" lon="6.75463">
        <ele>1546</ele>
        <time>2000-01-01T05:02:17.000Z</time>
      </trkpt>
      <trkpt lat="46.00661" lon="6.7548">
        <ele>1551.7</ele>
        <time>2000-01-01T05:02:27.000Z</time>
      </trkpt>
      <trkpt lat="46.00686" lon="6.75492">
        <ele>1545</ele>
        <time>2000-01-01T05:02:37.000Z</time>
      </trkpt>
      <trkpt lat="46.00695" lon="6.7551">
        <ele>1551.3</ele>
        <time>2000-01-01T05:02:47.000Z</time>
      </trkpt>
      <trkpt lat="46.00706" lon="6.75527">
        <ele>1545</ele>
        <time>2000-01-01T05:02:57.000Z</time>
      </trkpt>
      <trkpt lat="46.00704" lon="6.75552">
        <ele>1551.2</ele>
        <time>2000-01-01T05:03:07.000Z</time>
      </trkpt>
      <trkpt lat="46.00699" lon="6.75578">
        <ele>1543</ele>
        <time>2000-01-01T05:03:17.000Z</time>
      </trkpt>
      <trkpt lat="46.00699" lon="6.75595">
        <ele>1549.3</ele>
        <time>2000-01-01T05:03:27.000Z</time>
      </trkpt>
      <trkpt lat="46.00718" lon="6.75596">
        <ele>1542</ele>
        <time>2000-01-01T05:03:37.000Z</time>
      </trkpt>
      <trkpt lat="46.00728" lon="6.75605">
        <ele>1548.8</ele>
        <time>2000-01-01T05:03:47.000Z</time>
      </trkpt>
      <trkpt lat="46.00733" lon="6.75618">
        <ele>1541</ele>
        <time>2000-01-01T05:03:57.000Z</time>
      </trkpt>
      <trkpt lat="46.00742" lon="6.75633">
        <ele>1547.8</ele>
        <time>2000-01-01T05:04:07.000Z</time>
      </trkpt>
      <trkpt lat="46.00752" lon="6.75642">
        <ele>1541</ele>
        <time>2000-01-01T05:04:17.000Z</time>
      </trkpt>
      <trkpt lat="46.00758" lon="6.75669">
        <ele>1541</ele>
        <time>2000-01-01T05:04:27.000Z</time>
      </trkpt>
      <trkpt lat="46.00767" lon="6.7569">
        <ele>1547.1</ele>
        <time>2000-01-01T05:04:37.000Z</time>
      </trkpt>
      <trkpt lat="46.0078" lon="6.75709">
        <ele>1540</ele>
        <time>2000-01-01T05:04:47.000Z</time>
      </trkpt>
      <trkpt lat="46.00789" lon="6.75724">
        <ele>1547.7</ele>
        <time>2000-01-01T05:04:57.000Z</time>
      </trkpt>
      <trkpt lat="46.008" lon="6.75729">
        <ele>1539</ele>
        <time>2000-01-01T05:05:07.000Z</time>
      </trkpt>
      <trkpt lat="46.0081" lon="6.75743">
        <ele>1545</ele>
        <time>2000-01-01T05:05:17.000Z</time>
      </trkpt>
      <trkpt lat="46.00824" lon="6.75761">
        <ele>1538</ele>
        <time>2000-01-01T05:05:27.000Z</time>
      </trkpt>
      <trkpt lat="46.00837" lon="6.75769">
        <ele>1541.8</ele>
        <time>2000-01-01T05:05:37.000Z</time>
      </trkpt>
      <trkpt lat="46.00867" lon="6.7579">
        <ele>1536</ele>
        <time>2000-01-01T05:05:47.000Z</time>
      </trkpt>
      <trkpt lat="46.00869" lon="6.75806">
        <ele>1543.3</ele>
        <time>2000-01-01T05:05:57.000Z</time>
      </trkpt>
      <trkpt lat="46.00891" lon="6.7581">
        <ele>1533</ele>
        <time>2000-01-01T05:06:07.000Z</time>
      </trkpt>
      <trkpt lat="46.00893" lon="6.75819">
        <ele>1540.8</ele>
        <time>2000-01-01T05:06:17.000Z</time>
      </trkpt>
      <trkpt lat="46.00903" lon="6.7582">
        <ele>1539.4</ele>
        <time>2000-01-01T05:06:27.000Z</time>
      </trkpt>
      <trkpt lat="46.00914" lon="6.75829">
        <ele>1532</ele>
        <time>2000-01-01T05:06:37.000Z</time>
      </trkpt>
      <trkpt lat="46.0093" lon="6.75845">
        <ele>1532</ele>
        <time>2000-01-01T05:06:47.000Z</time>
      </trkpt>
      <trkpt lat="46.00951" lon="6.75853">
        <ele>1532</ele>
        <time>2000-01-01T05:06:57.000Z</time>
      </trkpt>
      <trkpt lat="46.00974" lon="6.75856">
        <ele>1532</ele>
        <time>2000-01-01T05:07:07.000Z</time>
      </trkpt>
      <trkpt lat="46.00979" lon="6.7589">
        <ele>1532</ele>
        <time>2000-01-01T05:07:17.000Z</time>
      </trkpt>
      <trkpt lat="46.00987" lon="6.75898">
        <ele>1534.8</ele>
        <time>2000-01-01T05:07:27.000Z</time>
      </trkpt>
      <trkpt lat="46.00998" lon="6.75888">
        <ele>1528</ele>
        <time>2000-01-01T05:07:37.000Z</time>
      </trkpt>
      <trkpt lat="46.01006" lon="6.75866">
        <ele>1524.7</ele>
        <time>2000-01-01T05:07:47.000Z</time>
      </trkpt>
      <trkpt lat="46.01024" lon="6.75856">
        <ele>1521</ele>
        <time>2000-01-01T05:07:57.000Z</time>
      </trkpt>
      <trkpt lat="46.01045" lon="6.75852">
        <ele>1513</ele>
        <time>2000-01-01T05:08:07.000Z</time>
      </trkpt>
      <trkpt lat="46.01071" lon="6.75851">
        <ele>1511</ele>
        <time>2000-01-01T05:08:17.000Z</time>
      </trkpt>
      <trkpt lat="46.01053" lon="6.75877">
        <ele>1509</ele>
        <time>2000-01-01T05:08:27.000Z</time>
      </trkpt>
      <trkpt lat="46.01057" lon="6.75885">
        <ele>1518</ele>
        <time>2000-01-01T05:08:37.000Z</time>
      </trkpt>
      <trkpt lat="46.01065" lon="6.75884">
        <ele>1516.9</ele>
        <time>2000-01-01T05:08:47.000Z</time>
      </trkpt>
      <trkpt lat="46.0109" lon="6.75894">
        <ele>1497</ele>
        <time>2000-01-01T05:08:57.000Z</time>
      </trkpt>
      <trkpt lat="46.0112" lon="6.75917">
        <ele>1484</ele>
        <time>2000-01-01T05:09:07.000Z</time>
      </trkpt>
      <trkpt lat="46.01155" lon="6.75952">
        <ele>1469</ele>
        <time>2000-01-01T05:09:17.000Z</time>
      </trkpt>
      <trkpt lat="46.01166" lon="6.75959">
        <ele>1486.7</ele>
        <time>2000-01-01T05:09:27.000Z</time>
      </trkpt>
      <trkpt lat="46.01179" lon="6.75978">
        <ele>1462</ele>
        <time>2000-01-01T05:09:37.000Z</time>
      </trkpt>
      <trkpt lat="46.01202" lon="6.75987">
        <ele>1446</ele>
        <time>2000-01-01T05:09:47.000Z</time>
      </trkpt>
      <trkpt lat="46.01226" lon="6.75997">
        <ele>1440</ele>
        <time>2000-01-01T05:09:57.000Z</time>
      </trkpt>
      <trkpt lat="46.01228" lon="6.76005">
        <ele>1456.6</ele>
        <time>2000-01-01T05:10:07.000Z</time>
      </trkpt>
      <trkpt lat="46.01231" lon="6.76027">
        <ele>1439</ele>
        <time>2000-01-01T05:10:17.000Z</time>
      </trkpt>
      <trkpt lat="46.01249" lon="6.76024">
        <ele>1455.6</ele>
        <time>2000-01-01T05:10:27.000Z</time>
      </trkpt>
      <trkpt lat="46.01265" lon="6.76038">
        <ele>1424</ele>
        <time>2000-01-01T05:10:37.000Z</time>
      </trkpt>
      <trkpt lat="46.01278" lon="6.76038">
        <ele>1425.8</ele>
        <time>2000-01-01T05:10:47.000Z</time>
      </trkpt>
      <trkpt lat="46.01296" lon="6.76049">
        <ele>1411</ele>
        <time>2000-01-01T05:10:57.000Z</time>
      </trkpt>
      <trkpt lat="46.01288" lon="6.76003">
        <ele>1408</ele>
        <time>2000-01-01T05:11:07.000Z</time>
      </trkpt>
      <trkpt lat="46.01295" lon="6.75997">
        <ele>1409.1</ele>
        <time>2000-01-01T05:11:17.000Z</time>
      </trkpt>
      <trkpt lat="46.01307" lon="6.76012">
        <ele>1400</ele>
        <time>2000-01-01T05:11:27.000Z</time>
      </trkpt>
      <trkpt lat="46.01319" lon="6.76023">
        <ele>1411.2</ele>
        <time>2000-01-01T05:11:37.000Z</time>
      </trkpt>
      <trkpt lat="46.01336" lon="6.76042">
        <ele>1391</ele>
        <time>2000-01-01T05:11:47.000Z</time>
      </trkpt>
      <trkpt lat="46.01353" lon="6.76071">
        <ele>1393</ele>
        <time>2000-01-01T05:11:57.000Z</time>
      </trkpt>
      <trkpt lat="46.01372" lon="6.76112">
        <ele>1384</ele>
        <time>2000-01-01T05:12:07.000Z</time>
      </trkpt>
      <trkpt lat="46.01401" lon="6.76117">
        <ele>1380</ele>
        <time>2000-01-01T05:12:17.000Z</time>
      </trkpt>
      <trkpt lat="46.01423" lon="6.76148">
        <ele>1377</ele>
        <time>2000-01-01T05:12:27.000Z</time>
      </trkpt>
      <trkpt lat="46.01452" lon="6.76173">
        <ele>1357</ele>
        <time>2000-01-01T05:12:37.000Z</time>
      </trkpt>
      <trkpt lat="46.01457" lon="6.7619">
        <ele>1358.6</ele>
        <time>2000-01-01T05:12:47.000Z</time>
      </trkpt>
      <trkpt lat="46.01473" lon="6.76203">
        <ele>1350</ele>
        <time>2000-01-01T05:12:57.000Z</time>
      </trkpt>
      <trkpt lat="46.01487" lon="6.76221">
        <ele>1344</ele>
        <time>2000-01-01T05:13:07.000Z</time>
      </trkpt>
      <trkpt lat="46.01487" lon="6.76207">
        <ele>1351.4</ele>
        <time>2000-01-01T05:13:17.000Z</time>
      </trkpt>
      <trkpt lat="46.01491" lon="6.76198">
        <ele>1349.6</ele>
        <time>2000-01-01T05:13:27.000Z</time>
      </trkpt>
      <trkpt lat="46.01491" lon="6.7618">
        <ele>1337</ele>
        <time>2000-01-01T05:13:37.000Z</time>
      </trkpt>
      <trkpt lat="46.01492" lon="6.7617">
        <ele>1339.9</ele>
        <time>2000-01-01T05:13:47.000Z</time>
      </trkpt>
      <trkpt lat="46.01499" lon="6.76166">
        <ele>1332.9</ele>
        <time>2000-01-01T05:13:57.000Z</time>
      </trkpt>
      <trkpt lat="46.01521" lon="6.76174">
        <ele>1327</ele>
        <time>2000-01-01T05:14:07.000Z</time>
      </trkpt>
      <trkpt lat="46.01531" lon="6.76186">
        <ele>1322.4</ele>
        <time>2000-01-01T05:14:17.000Z</time>
      </trkpt>
      <trkpt lat="46.01544" lon="6.76205">
        <ele>1317</ele>
        <time>2000-01-01T05:14:27.000Z</time>
      </trkpt>
      <trkpt lat="46.01553" lon="6.76225">
        <ele>1317.9</ele>
        <time>2000-01-01T05:14:37.000Z</time>
      </trkpt>
      <trkpt lat="46.01565" lon="6.76243">
        <ele>1309</ele>
        <time>2000-01-01T05:14:47.000Z</time>
      </trkpt>
      <trkpt lat="46.01574" lon="6.76261">
        <ele>1314.1</ele>
        <time>2000-01-01T05:14:57.000Z</time>
      </trkpt>
      <trkpt lat="46.01581" lon="6.76288">
        <ele>1305</ele>
        <time>2000-01-01T05:15:07.000Z</time>
      </trkpt>
      <trkpt lat="46.01591" lon="6.763">
        <ele>1304.8</ele>
        <time>2000-01-01T05:15:17.000Z</time>
      </trkpt>
      <trkpt lat="46.01603" lon="6.76303">
        <ele>1301</ele>
        <time>2000-01-01T05:15:27.000Z</time>
      </trkpt>
      <trkpt lat="46.01611" lon="6.76314">
        <ele>1303.9</ele>
        <time>2000-01-01T05:15:37.000Z</time>
      </trkpt>
      <trkpt lat="46.01647" lon="6.76334">
        <ele>1298</ele>
        <time>2000-01-01T05:15:47.000Z</time>
      </trkpt>
      <trkpt lat="46.01664" lon="6.76353">
        <ele>1293</ele>
        <time>2000-01-01T05:15:57.000Z</time>
      </trkpt>
      <trkpt lat="46.01686" lon="6.76373">
        <ele>1287</ele>
        <time>2000-01-01T05:16:07.000Z</time>
      </trkpt>
      <trkpt lat="46.01717" lon="6.76396">
        <ele>1279</ele>
        <time>2000-01-01T05:16:17.000Z</time>
      </trkpt>
      <trkpt lat="46.01744" lon="6.76425">
        <ele>1270</ele>
        <time>2000-01-01T05:16:27.000Z</time>
      </trkpt>
      <trkpt lat="46.01758" lon="6.7643">
        <ele>1276.6</ele>
        <time>2000-01-01T05:16:37.000Z</time>
      </trkpt>
      <trkpt lat="46.01769" lon="6.76438">
        <ele>1265</ele>
        <time>2000-01-01T05:16:47.000Z</time>
      </trkpt>
      <trkpt lat="46.01788" lon="6.76485">
        <ele>1257</ele>
        <time>2000-01-01T05:16:57.000Z</time>
      </trkpt>
      <trkpt lat="46.0181" lon="6.76516">
        <ele>1250</ele>
        <time>2000-01-01T05:17:07.000Z</time>
      </trkpt>
      <trkpt lat="46.01834" lon="6.76535">
        <ele>1240</ele>
        <time>2000-01-01T05:17:17.000Z</time>
      </trkpt>
      <trkpt lat="46.01858" lon="6.76529">
        <ele>1235</ele>
        <time>2000-01-01T05:17:27.000Z</time>
      </trkpt>
      <trkpt lat="46.01876" lon="6.7655">
        <ele>1231</ele>
        <time>2000-01-01T05:17:37.000Z</time>
      </trkpt>
      <trkpt lat="46.01916" lon="6.76567">
        <ele>1222</ele>
        <time>2000-01-01T05:17:47.000Z</time>
      </trkpt>
      <trkpt lat="46.01928" lon="6.7659">
        <ele>1219</ele>
        <time>2000-01-01T05:17:57.000Z</time>
      </trkpt>
      <trkpt lat="46.01947" lon="6.76614">
        <ele>1214</ele>
        <time>2000-01-01T05:18:07.000Z</time>
      </trkpt>
      <trkpt lat="46.01968" lon="6.76639">
        <ele>1210</ele>
        <time>2000-01-01T05:18:17.000Z</time>
      </trkpt>
      <trkpt lat="46.01984" lon="6.76635">
        <ele>1218.8</ele>
        <time>2000-01-01T05:18:27.000Z</time>
      </trkpt>
      <trkpt lat="46.02005" lon="6.76637">
        <ele>1204</ele>
        <time>2000-01-01T05:18:37.000Z</time>
      </trkpt>
      <trkpt lat="46.02021" lon="6.76652">
        <ele>1198</ele>
        <time>2000-01-01T05:18:47.000Z</time>
      </trkpt>
      <trkpt lat="46.02025" lon="6.76662">
        <ele>1203.4</ele>
        <time>2000-01-01T05:18:57.000Z</time>
      </trkpt>
      <trkpt lat="46.02025" lon="6.76688">
        <ele>1197</ele>
        <time>2000-01-01T05:19:07.000Z</time>
      </trkpt>
      <trkpt lat="46.02034" lon="6.76705">
        <ele>1200.6</ele>
        <time>2000-01-01T05:19:17.000Z</time>
      </trkpt>
      <trkpt lat="46.02059" lon="6.7674">
        <ele>1189</ele>
        <time>2000-01-01T05:19:27.000Z</time>
      </trkpt>
      <trkpt lat="46.02069" lon="6.76776">
        <ele>1188</ele>
        <time>2000-01-01T05:19:37.000Z</time>
      </trkpt>
      <trkpt lat="46.02084" lon="6.76806">
        <ele>1182</ele>
        <time>2000-01-01T05:19:47.000Z</time>
      </trkpt>
      <trkpt lat="46.02094" lon="6.76809">
        <ele>1186</ele>
        <time>2000-01-01T05:19:57.000Z</time>
      </trkpt>
      <trkpt lat="46.02101" lon="6.76822">
        <ele>1176</ele>
        <time>2000-01-01T05:20:07.000Z</time>
      </trkpt>
      <trkpt lat="46.02114" lon="6.76803">
        <ele>1182.8</ele>
        <time>2000-01-01T05:20:17.000Z</time>
      </trkpt>
      <trkpt lat="46.02123" lon="6.76797">
        <ele>1171</ele>
        <time>2000-01-01T05:20:27.000Z</time>
      </trkpt>
      <trkpt lat="46.02126" lon="6.76771">
        <ele>1181.3</ele>
        <time>2000-01-01T05:20:37.000Z</time>
      </trkpt>
      <trkpt lat="46.02137" lon="6.76772">
        <ele>1166</ele>
        <time>2000-01-01T05:20:47.000Z</time>
      </trkpt>
      <trkpt lat="46.02153" lon="6.76788">
        <ele>1163</ele>
        <time>2000-01-01T05:20:57.000Z</time>
      </trkpt>
      <trkpt lat="46.02187" lon="6.76831">
        <ele>1157</ele>
        <time>2000-01-01T05:21:07.000Z</time>
      </trkpt>
      <trkpt lat="46.02212" lon="6.76853">
        <ele>1148</ele>
        <time>2000-01-01T05:21:17.000Z</time>
      </trkpt>
      <trkpt lat="46.02222" lon="6.7685">
        <ele>1152.8</ele>
        <time>2000-01-01T05:21:27.000Z</time>
      </trkpt>
      <trkpt lat="46.02235" lon="6.76863">
        <ele>1141</ele>
        <time>2000-01-01T05:21:37.000Z</time>
      </trkpt>
      <trkpt lat="46.02263" lon="6.76882">
        <ele>1134</ele>
        <time>2000-01-01T05:21:47.000Z</time>
      </trkpt>
      <trkpt lat="46.02269" lon="6.76889">
        <ele>1140.8</ele>
        <time>2000-01-01T05:21:57.000Z</time>
      </trkpt>
      <trkpt lat="46.0227" lon="6.76913">
        <ele>1134</ele>
        <time>2000-01-01T05:22:07.000Z</time>
      </trkpt>
      <trkpt lat="46.02273" lon="6.76927">
        <ele>1136.3</ele>
        <time>2000-01-01T05:22:17.000Z</time>
      </trkpt>
      <trkpt lat="46.02272" lon="6.76944">
        <ele>1132</ele>
        <time>2000-01-01T05:22:27.000Z</time>
      </trkpt>
      <trkpt lat="46.02275" lon="6.76971">
        <ele>1131</ele>
        <time>2000-01-01T05:22:37.000Z</time>
      </trkpt>
      <trkpt lat="46.02287" lon="6.77006">
        <ele>1128</ele>
        <time>2000-01-01T05:22:47.000Z</time>
      </trkpt>
      <trkpt lat="46.0231" lon="6.77015">
        <ele>1127</ele>
        <time>2000-01-01T05:22:57.000Z</time>
      </trkpt>
      <trkpt lat="46.02329" lon="6.77013">
        <ele>1126</ele>
        <time>2000-01-01T05:23:07.000Z</time>
      </trkpt>
      <trkpt lat="46.02351" lon="6.77006">
        <ele>1123</ele>
        <time>2000-01-01T05:23:17.000Z</time>
      </trkpt>
      <trkpt lat="46.02363" lon="6.77016">
        <ele>1124.9</ele>
        <time>2000-01-01T05:23:27.000Z</time>
      </trkpt>
      <trkpt lat="46.02376" lon="6.77056">
        <ele>1118</ele>
        <time>2000-01-01T05:23:37.000Z</time>
      </trkpt>
      <trkpt lat="46.02384" lon="6.77083">
        <ele>1116</ele>
        <time>2000-01-01T05:23:47.000Z</time>
      </trkpt>
      <trkpt lat="46.0238" lon="6.77101">
        <ele>1125.7</ele>
        <time>2000-01-01T05:23:57.000Z</time>
      </trkpt>
      <trkpt lat="46.0237" lon="6.77117">
        <ele>1115</ele>
        <time>2000-01-01T05:24:07.000Z</time>
      </trkpt>
      <trkpt lat="46.02349" lon="6.77137">
        <ele>1114</ele>
        <time>2000-01-01T05:24:17.000Z</time>
      </trkpt>
      <trkpt lat="46.0233" lon="6.77157">
        <ele>1112</ele>
        <time>2000-01-01T05:24:27.000Z</time>
      </trkpt>
      <trkpt lat="46.02316" lon="6.77173">
        <ele>1123.3</ele>
        <time>2000-01-01T05:24:37.000Z</time>
      </trkpt>
      <trkpt lat="46.0232" lon="6.77189">
        <ele>1109</ele>
        <time>2000-01-01T05:24:47.000Z</time>
      </trkpt>
      <trkpt lat="46.02308" lon="6.77209">
        <ele>1122.6</ele>
        <time>2000-01-01T05:24:57.000Z</time>
      </trkpt>
      <trkpt lat="46.023" lon="6.77232">
        <ele>1104</ele>
        <time>2000-01-01T05:25:07.000Z</time>
      </trkpt>
      <trkpt lat="46.02295" lon="6.77264">
        <ele>1102</ele>
        <time>2000-01-01T05:25:17.000Z</time>
      </trkpt>
      <trkpt lat="46.02289" lon="6.77308">
        <ele>1102</ele>
        <time>2000-01-01T05:25:27.000Z</time>
      </trkpt>
      <trkpt lat="46.02289" lon="6.77337">
        <ele>1098</ele>
        <time>2000-01-01T05:25:37.000Z</time>
      </trkpt>
      <trkpt lat="46.02286" lon="6.77359">
        <ele>1103.5</ele>
        <time>2000-01-01T05:25:47.000Z</time>
      </trkpt>
      <trkpt lat="46.02285" lon="6.77382">
        <ele>1090</ele>
        <time>2000-01-01T05:25:57.000Z</time>
      </trkpt>
      <trkpt lat="46.02277" lon="6.77414">
        <ele>1087</ele>
        <time>2000-01-01T05:26:07.000Z</time>
      </trkpt>
      <trkpt lat="46.0228" lon="6.77418">
        <ele>1090.6</ele>
        <time>2000-01-01T05:26:17.000Z</time>
      </trkpt>
      <trkpt lat="46.02297" lon="6.77387">
        <ele>1086</ele>
        <time>2000-01-01T05:26:27.000Z</time>
      </trkpt>
      <trkpt lat="46.02311" lon="6.77369">
        <ele>1085</ele>
        <time>2000-01-01T05:26:37.000Z</time>
      </trkpt>
      <trkpt lat="46.02323" lon="6.77411">
        <ele>1073</ele>
        <time>2000-01-01T05:26:47.000Z</time>
      </trkpt>
      <trkpt lat="46.02332" lon="6.77434">
        <ele>1082.7</ele>
        <time>2000-01-01T05:26:57.000Z</time>
      </trkpt>
      <trkpt lat="46.0236" lon="6.7745">
        <ele>1061</ele>
        <time>2000-01-01T05:27:07.000Z</time>
      </trkpt>
      <trkpt lat="46.02367" lon="6.77433">
        <ele>1069</ele>
        <time>2000-01-01T05:27:17.000Z</time>
      </trkpt>
      <trkpt lat="46.02377" lon="6.77423">
        <ele>1061</ele>
        <time>2000-01-01T05:27:27.000Z</time>
      </trkpt>
      <trkpt lat="46.02393" lon="6.77421">
        <ele>1067.3</ele>
        <time>2000-01-01T05:27:37.000Z</time>
      </trkpt>
      <trkpt lat="46.02429" lon="6.77426">
        <ele>1055</ele>
        <time>2000-01-01T05:27:47.000Z</time>
      </trkpt>
      <trkpt lat="46.02453" lon="6.77428">
        <ele>1050</ele>
        <time>2000-01-01T05:27:57.000Z</time>
      </trkpt>
      <trkpt lat="46.0247" lon="6.77431">
        <ele>1051.5</ele>
        <time>2000-01-01T05:28:07.000Z</time>
      </trkpt>
      <trkpt lat="46.02486" lon="6.77423">
        <ele>1044</ele>
        <time>2000-01-01T05:28:17.000Z</time>
      </trkpt>
      <trkpt lat="46.02495" lon="6.77425">
        <ele>1049.1</ele>
        <time>2000-01-01T05:28:27.000Z</time>
      </trkpt>
      <trkpt lat="46.02501" lon="6.77435">
        <ele>1044.1</ele>
        <time>2000-01-01T05:28:37.000Z</time>
      </trkpt>
      <trkpt lat="46.02523" lon="6.77438">
        <ele>1035</ele>
        <time>2000-01-01T05:28:47.000Z</time>
      </trkpt>
      <trkpt lat="46.02553" lon="6.77437">
        <ele>1030</ele>
        <time>2000-01-01T05:28:57.000Z</time>
      </trkpt>
      <trkpt lat="46.02559" lon="6.77433">
        <ele>1040.1</ele>
        <time>2000-01-01T05:29:07.000Z</time>
      </trkpt>
      <trkpt lat="46.02563" lon="6.77424">
        <ele>1040</ele>
        <time>2000-01-01T05:29:17.000Z</time>
      </trkpt>
      <trkpt lat="46.02576" lon="6.77409">
        <ele>1029</ele>
        <time>2000-01-01T05:29:27.000Z</time>
      </trkpt>
      <trkpt lat="46.02584" lon="6.77409">
        <ele>1038.3</ele>
        <time>2000-01-01T05:29:37.000Z</time>
      </trkpt>
      <trkpt lat="46.02587" lon="6.7742">
        <ele>1036.5</ele>
        <time>2000-01-01T05:29:47.000Z</time>
      </trkpt>
      <trkpt lat="46.02589" lon="6.7743">
        <ele>1025</ele>
        <time>2000-01-01T05:29:57.000Z</time>
      </trkpt>
      <trkpt lat="46.02584" lon="6.77447">
        <ele>1030.4</ele>
        <time>2000-01-01T05:30:07.000Z</time>
      </trkpt>
      <trkpt lat="46.02584" lon="6.77461">
        <ele>1022</ele>
        <time>2000-01-01T05:30:17.000Z</time>
      </trkpt>
      <trkpt lat="46.02588" lon="6.77467">
        <ele>1029.1</ele>
        <time>2000-01-01T05:30:27.000Z</time>
      </trkpt>
      <trkpt lat="46.02599" lon="6.77458">
        <ele>1028.5</ele>
        <time>2000-01-01T05:30:37.000Z</time>
      </trkpt>
      <trkpt lat="46.02613" lon="6.77449">
        <ele>1016</ele>
        <time>2000-01-01T05:30:47.000Z</time>
      </trkpt>
      <trkpt lat="46.02626" lon="6.77439">
        <ele>1025.7</ele>
        <time>2000-01-01T05:30:57.000Z</time>
      </trkpt>
      <trkpt lat="46.02641" lon="6.77425">
        <ele>1007</ele>
        <time>2000-01-01T05:31:07.000Z</time>
      </trkpt>
      <trkpt lat="46.02655" lon="6.77413">
        <ele>1023</ele>
        <time>2000-01-01T05:31:17.000Z</time>
      </trkpt>
      <trkpt lat="46.02673" lon="6.77401">
        <ele>998</ele>
        <time>2000-01-01T05:31:27.000Z</time>
      </trkpt>
      <trkpt lat="46.02691" lon="6.7739">
        <ele>993</ele>
        <time>2000-01-01T05:31:37.000Z</time>
      </trkpt>
      <trkpt lat="46.02704" lon="6.77386">
        <ele>1007.7</ele>
        <time>2000-01-01T05:31:47.000Z</time>
      </trkpt>
      <trkpt lat="46.02715" lon="6.77386">
        <ele>987</ele>
        <time>2000-01-01T05:31:57.000Z</time>
      </trkpt>
      <trkpt lat="46.02729" lon="6.77371">
        <ele>1004</ele>
        <time>2000-01-01T05:32:07.000Z</time>
      </trkpt>
      <trkpt lat="46.02746" lon="6.7735">
        <ele>979</ele>
        <time>2000-01-01T05:32:17.000Z</time>
      </trkpt>
      <trkpt lat="46.0276" lon="6.77339">
        <ele>988.8</ele>
        <time>2000-01-01T05:32:27.000Z</time>
      </trkpt>
      <trkpt lat="46.0277" lon="6.77335">
        <ele>974</ele>
        <time>2000-01-01T05:32:37.000Z</time>
      </trkpt>
      <trkpt lat="46.02782" lon="6.77348">
        <ele>983.8</ele>
        <time>2000-01-01T05:32:47.000Z</time>
      </trkpt>
      <trkpt lat="46.02781" lon="6.77365">
        <ele>973</ele>
        <time>2000-01-01T05:32:57.000Z</time>
      </trkpt>
      <trkpt lat="46.02771" lon="6.77398">
        <ele>973</ele>
        <time>2000-01-01T05:33:07.000Z</time>
      </trkpt>
      <trkpt lat="46.02775" lon="6.77415">
        <ele>984</ele>
        <time>2000-01-01T05:33:17.000Z</time>
      </trkpt>
      <trkpt lat="46.02785" lon="6.77417">
        <ele>971</ele>
        <time>2000-01-01T05:33:27.000Z</time>
      </trkpt>
      <trkpt lat="46.02816" lon="6.77367">
        <ele>964</ele>
        <time>2000-01-01T05:33:37.000Z</time>
      </trkpt>
      <trkpt lat="46.02827" lon="6.77337">
        <ele>963</ele>
        <time>2000-01-01T05:33:47.000Z</time>
      </trkpt>
      <trkpt lat="46.02821" lon="6.77326">
        <ele>979.5</ele>
        <time>2000-01-01T05:33:57.000Z</time>
      </trkpt>
      <trkpt lat="46.02802" lon="6.77311">
        <ele>963</ele>
        <time>2000-01-01T05:34:07.000Z</time>
      </trkpt>
      <trkpt lat="46.02791" lon="6.77282">
        <ele>961</ele>
        <time>2000-01-01T05:34:17.000Z</time>
      </trkpt>
      <trkpt lat="46.02803" lon="6.77243">
        <ele>955</ele>
        <time>2000-01-01T05:34:27.000Z</time>
      </trkpt>
      <trkpt lat="46.02828" lon="6.77219">
        <ele>955</ele>
        <time>2000-01-01T05:34:37.000Z</time>
      </trkpt>
      <trkpt lat="46.02854" lon="6.77188">
        <ele>951</ele>
        <time>2000-01-01T05:34:47.000Z</time>
      </trkpt>
      <trkpt lat="46.02866" lon="6.7716">
        <ele>948</ele>
        <time>2000-01-01T05:34:57.000Z</time>
      </trkpt>
      <trkpt lat="46.02865" lon="6.77116">
        <ele>946</ele>
        <time>2000-01-01T05:35:07.000Z</time>
      </trkpt>
      <trkpt lat="46.02868" lon="6.77104">
        <ele>965.8</ele>
        <time>2000-01-01T05:35:17.000Z</time>
      </trkpt>
      <trkpt lat="46.02903" lon="6.77095">
        <ele>941</ele>
        <time>2000-01-01T05:35:27.000Z</time>
      </trkpt>
      <trkpt lat="46.02929" lon="6.77083">
        <ele>939</ele>
        <time>2000-01-01T05:35:37.000Z</time>
      </trkpt>
      <trkpt lat="46.02942" lon="6.77081">
        <ele>955.6</ele>
        <time>2000-01-01T05:35:47.000Z</time>
      </trkpt>
      <trkpt lat="46.02973" lon="6.77063">
        <ele>931</ele>
        <time>2000-01-01T05:35:57.000Z</time>
      </trkpt>
      <trkpt lat="46.03005" lon="6.77049">
        <ele>931</ele>
        <time>2000-01-01T05:36:07.000Z</time>
      </trkpt>
      <trkpt lat="46.03011" lon="6.77071">
        <ele>939.3</ele>
        <time>2000-01-01T05:36:17.000Z</time>
      </trkpt>
      <trkpt lat="46.0303" lon="6.77079">
        <ele>919</ele>
        <time>2000-01-01T05:36:27.000Z</time>
      </trkpt>
      <trkpt lat="46.03056" lon="6.77069">
        <ele>915</ele>
        <time>2000-01-01T05:36:37.000Z</time>
      </trkpt>
      <trkpt lat="46.03077" lon="6.77066">
        <ele>910</ele>
        <time>2000-01-01T05:36:47.000Z</time>
      </trkpt>
      <trkpt lat="46.03103" lon="6.77066">
        <ele>902</ele>
        <time>2000-01-01T05:36:57.000Z</time>
      </trkpt>
      <trkpt lat="46.03135" lon="6.77074">
        <ele>896</ele>
        <time>2000-01-01T05:37:07.000Z</time>
      </trkpt>
      <trkpt lat="46.03161" lon="6.77078">
        <ele>894</ele>
        <time>2000-01-01T05:37:17.000Z</time>
      </trkpt>
      <trkpt lat="46.03183" lon="6.7709">
        <ele>890</ele>
        <time>2000-01-01T05:37:27.000Z</time>
      </trkpt>
      <trkpt lat="46.03197" lon="6.77108">
        <ele>884</ele>
        <time>2000-01-01T05:37:37.000Z</time>
      </trkpt>
      <trkpt lat="46.03215" lon="6.77124">
        <ele>876</ele>
        <time>2000-01-01T05:37:47.000Z</time>
      </trkpt>
      <trkpt lat="46.03233" lon="6.77136">
        <ele>870</ele>
        <time>2000-01-01T05:37:57.000Z</time>
      </trkpt>
      <trkpt lat="46.03248" lon="6.77138">
        <ele>885</ele>
        <time>2000-01-01T05:38:07.000Z</time>
      </trkpt>
      <trkpt lat="46.0326" lon="6.77136">
        <ele>866</ele>
        <time>2000-01-01T05:38:17.000Z</time>
      </trkpt>
      <trkpt lat="46.03276" lon="6.77124">
        <ele>874.7</ele>
        <time>2000-01-01T05:38:27.000Z</time>
      </trkpt>
      <trkpt lat="46.03326" lon="6.77066">
        <ele>855</ele>
        <time>2000-01-01T05:38:37.000Z</time>
      </trkpt>
      <trkpt lat="46.0332" lon="6.77104">
        <ele>855</ele>
        <time>2000-01-01T05:38:47.000Z</time>
      </trkpt>
      <trkpt lat="46.03308" lon="6.77139">
        <ele>852</ele>
        <time>2000-01-01T05:38:57.000Z</time>
      </trkpt>
      <trkpt lat="46.03288" lon="6.77165">
        <ele>850</ele>
        <time>2000-01-01T05:39:07.000Z</time>
      </trkpt>
      <trkpt lat="46.0328" lon="6.77193">
        <ele>845</ele>
        <time>2000-01-01T05:39:17.000Z</time>
      </trkpt>
      <trkpt lat="46.03298" lon="6.7723">
        <ele>844</ele>
        <time>2000-01-01T05:39:27.000Z</time>
      </trkpt>
      <trkpt lat="46.03316" lon="6.77229">
        <ele>869</ele>
        <time>2000-01-01T05:39:37.000Z</time>
      </trkpt>
      <trkpt lat="46.03336" lon="6.77216">
        <ele>842</ele>
        <time>2000-01-01T05:39:47.000Z</time>
      </trkpt>
      <trkpt lat="46.03366" lon="6.77198">
        <ele>841</ele>
        <time>2000-01-01T05:39:57.000Z</time>
      </trkpt>
      <trkpt lat="46.03399" lon="6.7719">
        <ele>841</ele>
        <time>2000-01-01T05:40:07.000Z</time>
      </trkpt>
      <trkpt lat="46.03429" lon="6.77185">
        <ele>839</ele>
        <time>2000-01-01T05:40:17.000Z</time>
      </trkpt>
      <trkpt lat="46.03459" lon="6.77181">
        <ele>838</ele>
        <time>2000-01-01T05:40:27.000Z</time>
      </trkpt>
      <trkpt lat="46.03478" lon="6.77182">
        <ele>838</ele>
        <time>2000-01-01T05:40:37.000Z</time>
      </trkpt>
      <trkpt lat="46.03502" lon="6.77176">
        <ele>837</ele>
        <time>2000-01-01T05:40:47.000Z</time>
      </trkpt>
      <trkpt lat="46.03527" lon="6.77173">
        <ele>837</ele>
        <time>2000-01-01T05:40:57.000Z</time>
      </trkpt>
      <trkpt lat="46.03567" lon="6.77165">
        <ele>837</ele>
        <time>2000-01-01T05:41:07.000Z</time>
      </trkpt>
      <trkpt lat="46.03591" lon="6.7717">
        <ele>833</ele>
        <time>2000-01-01T05:41:17.000Z</time>
      </trkpt>
      <trkpt lat="46.03612" lon="6.77167">
        <ele>832</ele>
        <time>2000-01-01T05:41:27.000Z</time>
      </trkpt>
      <trkpt lat="46.03624" lon="6.77155">
        <ele>841.9</ele>
        <time>2000-01-01T05:41:37.000Z</time>
      </trkpt>
      <trkpt lat="46.03644" lon="6.77119">
        <ele>829</ele>
        <time>2000-01-01T05:41:47.000Z</time>
      </trkpt>
      <trkpt lat="46.03654" lon="6.77096">
        <ele>825</ele>
        <time>2000-01-01T05:41:57.000Z</time>
      </trkpt>
      <trkpt lat="46.03661" lon="6.77085">
        <ele>840.3</ele>
        <time>2000-01-01T05:42:07.000Z</time>
      </trkpt>
      <trkpt lat="46.03679" lon="6.77081">
        <ele>824</ele>
        <time>2000-01-01T05:42:17.000Z</time>
      </trkpt>
      <trkpt lat="46.03694" lon="6.77091">
        <ele>836.1</ele>
        <time>2000-01-01T05:42:27.000Z</time>
      </trkpt>
      <trkpt lat="46.03722" lon="6.7709">
        <ele>823</ele>
        <time>2000-01-01T05:42:37.000Z</time>
      </trkpt>
      <trkpt lat="46.03727" lon="6.77094">
        <ele>833.7</ele>
        <time>2000-01-01T05:42:47.000Z</time>
      </trkpt>
      <trkpt lat="46.03748" lon="6.77096">
        <ele>823</ele>
        <time>2000-01-01T05:42:57.000Z</time>
      </trkpt>
      <trkpt lat="46.03759" lon="6.77127">
        <ele>825</ele>
        <time>2000-01-01T05:43:07.000Z</time>
      </trkpt>
      <trkpt lat="46.03772" lon="6.77161">
        <ele>829</ele>
        <time>2000-01-01T05:43:17.000Z</time>
      </trkpt>
      <trkpt lat="46.03787" lon="6.77188">
        <ele>831</ele>
        <time>2000-01-01T05:43:27.000Z</time>
      </trkpt>
      <trkpt lat="46.03802" lon="6.77217">
        <ele>835</ele>
        <time>2000-01-01T05:43:37.000Z</time>
      </trkpt>
      <trkpt lat="46.03821" lon="6.77241">
        <ele>838</ele>
        <time>2000-01-01T05:43:47.000Z</time>
      </trkpt>
      <trkpt lat="46.03834" lon="6.77247">
        <ele>847.9</ele>
        <time>2000-01-01T05:43:57.000Z</time>
      </trkpt>
      <trkpt lat="46.03858" lon="6.77237">
        <ele>842</ele>
        <time>2000-01-01T05:44:07.000Z</time>
      </trkpt>
      <trkpt lat="46.0387" lon="6.77236">
        <ele>847.7</ele>
        <time>2000-01-01T05:44:17.000Z</time>
      </trkpt>
      <trkpt lat="46.03882" lon="6.77249">
        <ele>845</ele>
        <time>2000-01-01T05:44:27.000Z</time>
      </trkpt>
      <trkpt lat="46.03881" lon="6.77287">
        <ele>847</ele>
        <time>2000-01-01T05:44:37.000Z</time>
      </trkpt>
      <trkpt lat="46.03884" lon="6.77313">
        <ele>858.7</ele>
        <time>2000-01-01T05:44:47.000Z</time>
      </trkpt>
      <trkpt lat="46.03926" lon="6.77292">
        <ele>855</ele>
        <time>2000-01-01T05:44:57.000Z</time>
      </trkpt>
      <trkpt lat="46.03948" lon="6.77278">
        <ele>856</ele>
        <time>2000-01-01T05:45:07.000Z</time>
      </trkpt>
      <trkpt lat="46.03973" lon="6.77263">
        <ele>855</ele>
        <time>2000-01-01T05:45:17.000Z</time>
      </trkpt>
      <trkpt lat="46.04008" lon="6.77237">
        <ele>855</ele>
        <time>2000-01-01T05:45:27.000Z</time>
      </trkpt>
      <trkpt lat="46.04036" lon="6.77194">
        <ele>856</ele>
        <time>2000-01-01T05:45:37.000Z</time>
      </trkpt>
      <trkpt lat="46.04055" lon="6.77171">
        <ele>856</ele>
        <time>2000-01-01T05:45:47.000Z</time>
      </trkpt>
      <trkpt lat="46.04076" lon="6.77144">
        <ele>856</ele>
        <time>2000-01-01T05:45:57.000Z</time>
      </trkpt>
      <trkpt lat="46.04103" lon="6.77123">
        <ele>855</ele>
        <time>2000-01-01T05:46:07.000Z</time>
      </trkpt>
      <trkpt lat="46.04138" lon="6.77098">
        <ele>855</ele>
        <time>2000-01-01T05:46:17.000Z</time>
      </trkpt>
      <trkpt lat="46.0416" lon="6.7708">
        <ele>856</ele>
        <time>2000-01-01T05:46:27.000Z</time>
      </trkpt>
      <trkpt lat="46.04162" lon="6.77109">
        <ele>857</ele>
        <time>2000-01-01T05:46:37.000Z</time>
      </trkpt>
      <trkpt lat="46.04165" lon="6.77131">
        <ele>861.9</ele>
        <time>2000-01-01T05:46:47.000Z</time>
      </trkpt>
      <trkpt lat="46.04176" lon="6.77155">
        <ele>863</ele>
        <time>2000-01-01T05:46:57.000Z</time>
      </trkpt>
      <trkpt lat="46.04185" lon="6.77183">
        <ele>867</ele>
        <time>2000-01-01T05:47:07.000Z</time>
      </trkpt>
      <trkpt lat="46.04188" lon="6.77212">
        <ele>872</ele>
        <time>2000-01-01T05:47:17.000Z</time>
      </trkpt>
      <trkpt lat="46.04184" lon="6.77246">
        <ele>876</ele>
        <time>2000-01-01T05:47:27.000Z</time>
      </trkpt>
      <trkpt lat="46.0418" lon="6.77274">
        <ele>880</ele>
        <time>2000-01-01T05:47:37.000Z</time>
      </trkpt>
      <trkpt lat="46.04167" lon="6.77292">
        <ele>888.5</ele>
        <time>2000-01-01T05:47:47.000Z</time>
      </trkpt>
      <trkpt lat="46.04151" lon="6.77301">
        <ele>883</ele>
        <time>2000-01-01T05:47:57.000Z</time>
      </trkpt>
      <trkpt lat="46.04145" lon="6.77326">
        <ele>891.4</ele>
        <time>2000-01-01T05:48:07.000Z</time>
      </trkpt>
      <trkpt lat="46.04127" lon="6.77394">
        <ele>887</ele>
        <time>2000-01-01T05:48:17.000Z</time>
      </trkpt>
      <trkpt lat="46.0412" lon="6.77426">
        <ele>891</ele>
        <time>2000-01-01T05:48:27.000Z</time>
      </trkpt>
      <trkpt lat="46.0413" lon="6.77433">
        <ele>902.7</ele>
        <time>2000-01-01T05:48:37.000Z</time>
      </trkpt>
      <trkpt lat="46.04136" lon="6.77431">
        <ele>903.4</ele>
        <time>2000-01-01T05:48:47.000Z</time>
      </trkpt>
      <trkpt lat="46.04151" lon="6.77423">
        <ele>894</ele>
        <time>2000-01-01T05:48:57.000Z</time>
      </trkpt>
      <trkpt lat="46.04167" lon="6.7742">
        <ele>908.6</ele>
        <time>2000-01-01T05:49:07.000Z</time>
      </trkpt>
      <trkpt lat="46.0419" lon="6.77413">
        <ele>897</ele>
        <time>2000-01-01T05:49:17.000Z</time>
      </trkpt>
      <trkpt lat="46.04197" lon="6.77427">
        <ele>911.1</ele>
        <time>2000-01-01T05:49:27.000Z</time>
      </trkpt>
      <trkpt lat="46.0422" lon="6.775">
        <ele>911</ele>
        <time>2000-01-01T05:49:37.000Z</time>
      </trkpt>
      <trkpt lat="46.04232" lon="6.77529">
        <ele>916</ele>
        <time>2000-01-01T05:49:47.000Z</time>
      </trkpt>
      <trkpt lat="46.04243" lon="6.77564">
        <ele>922</ele>
        <time>2000-01-01T05:49:57.000Z</time>
      </trkpt>
      <trkpt lat="46.04258" lon="6.7761">
        <ele>929</ele>
        <time>2000-01-01T05:50:07.000Z</time>
      </trkpt>
      <trkpt lat="46.04274" lon="6.77647">
        <ele>937</ele>
        <time>2000-01-01T05:50:17.000Z</time>
      </trkpt>
      <trkpt lat="46.04283" lon="6.77673">
        <ele>943</ele>
        <time>2000-01-01T05:50:27.000Z</time>
      </trkpt>
      <trkpt lat="46.04296" lon="6.77696">
        <ele>948</ele>
        <time>2000-01-01T05:50:37.000Z</time>
      </trkpt>
      <trkpt lat="46.04315" lon="6.77734">
        <ele>954</ele>
        <time>2000-01-01T05:50:47.000Z</time>
      </trkpt>
      <trkpt lat="46.04324" lon="6.77765">
        <ele>959</ele>
        <time>2000-01-01T05:50:57.000Z</time>
      </trkpt>
      <trkpt lat="46.04324" lon="6.77793">
        <ele>964</ele>
        <time>2000-01-01T05:51:07.000Z</time>
      </trkpt>
      <trkpt lat="46.04322" lon="6.77821">
        <ele>969</ele>
        <time>2000-01-01T05:51:17.000Z</time>
      </trkpt>
      <trkpt lat="46.04318" lon="6.77836">
        <ele>991.9</ele>
        <time>2000-01-01T05:51:27.000Z</time>
      </trkpt>
      <trkpt lat="46.04318" lon="6.7785">
        <ele>971</ele>
        <time>2000-01-01T05:51:37.000Z</time>
      </trkpt>
      <trkpt lat="46.04324" lon="6.77882">
        <ele>978</ele>
        <time>2000-01-01T05:51:47.000Z</time>
      </trkpt>
      <trkpt lat="46.04323" lon="6.77894">
        <ele>997.6</ele>
        <time>2000-01-01T05:51:57.000Z</time>
      </trkpt>
      <trkpt lat="46.04316" lon="6.77911">
        <ele>979</ele>
        <time>2000-01-01T05:52:07.000Z</time>
      </trkpt>
      <trkpt lat="46.04318" lon="6.77937">
        <ele>1009.2</ele>
        <time>2000-01-01T05:52:17.000Z</time>
      </trkpt>
      <trkpt lat="46.04327" lon="6.77986">
        <ele>988</ele>
        <time>2000-01-01T05:52:27.000Z</time>
      </trkpt>
      <trkpt lat="46.04333" lon="6.78032">
        <ele>999</ele>
        <time>2000-01-01T05:52:37.000Z</time>
      </trkpt>
      <trkpt lat="46.04325" lon="6.78062">
        <ele>1006</ele>
        <time>2000-01-01T05:52:47.000Z</time>
      </trkpt>
      <trkpt lat="46.04323" lon="6.78102">
        <ele>1014</ele>
        <time>2000-01-01T05:52:57.000Z</time>
      </trkpt>
      <trkpt lat="46.04324" lon="6.78127">
        <ele>1047</ele>
        <time>2000-01-01T05:53:07.000Z</time>
      </trkpt>
      <trkpt lat="46.04323" lon="6.78153">
        <ele>1025</ele>
        <time>2000-01-01T05:53:17.000Z</time>
      </trkpt>
      <trkpt lat="46.04317" lon="6.78187">
        <ele>1030</ele>
        <time>2000-01-01T05:53:27.000Z</time>
      </trkpt>
      <trkpt lat="46.04314" lon="6.78211">
        <ele>1063.7</ele>
        <time>2000-01-01T05:53:37.000Z</time>
      </trkpt>
      <trkpt lat="46.04314" lon="6.78225">
        <ele>1038</ele>
        <time>2000-01-01T05:53:47.000Z</time>
      </trkpt>
      <trkpt lat="46.04311" lon="6.78258">
        <ele>1046</ele>
        <time>2000-01-01T05:53:57.000Z</time>
      </trkpt>
      <trkpt lat="46.04297" lon="6.78307">
        <ele>1058</ele>
        <time>2000-01-01T05:54:07.000Z</time>
      </trkpt>
      <trkpt lat="46.04292" lon="6.78331">
        <ele>1087.2</ele>
        <time>2000-01-01T05:54:17.000Z</time>
      </trkpt>
      <trkpt lat="46.04303" lon="6.78339">
        <ele>1072</ele>
        <time>2000-01-01T05:54:27.000Z</time>
      </trkpt>
      <trkpt lat="46.04284" lon="6.78375">
        <ele>1079</ele>
        <time>2000-01-01T05:54:37.000Z</time>
      </trkpt>
      <trkpt lat="46.0429" lon="6.78375">
        <ele>1108.9</ele>
        <time>2000-01-01T05:54:47.000Z</time>
      </trkpt>
      <trkpt lat="46.0429" lon="6.78383">
        <ele>1110.3</ele>
        <time>2000-01-01T05:54:57.000Z</time>
      </trkpt>
      <trkpt lat="46.04311" lon="6.7837">
        <ele>1089</ele>
        <time>2000-01-01T05:55:07.000Z</time>
      </trkpt>
      <trkpt lat="46.04306" lon="6.78383">
        <ele>1111.5</ele>
        <time>2000-01-01T05:55:17.000Z</time>
      </trkpt>
      <trkpt lat="46.04298" lon="6.78398">
        <ele>1096</ele>
        <time>2000-01-01T05:55:27.000Z</time>
      </trkpt>
      <trkpt lat="46.04287" lon="6.78454">
        <ele>1109</ele>
        <time>2000-01-01T05:55:37.000Z</time>
      </trkpt>
      <trkpt lat="46.04277" lon="6.78469">
        <ele>1137.1</ele>
        <time>2000-01-01T05:55:47.000Z</time>
      </trkpt>
      <trkpt lat="46.04256" lon="6.78507">
        <ele>1114</ele>
        <time>2000-01-01T05:55:57.000Z</time>
      </trkpt>
      <trkpt lat="46.04292" lon="6.78474">
        <ele>1120</ele>
        <time>2000-01-01T05:56:07.000Z</time>
      </trkpt>
      <trkpt lat="46.04298" lon="6.78461">
        <ele>1138.8</ele>
        <time>2000-01-01T05:56:17.000Z</time>
      </trkpt>
      <trkpt lat="46.04302" lon="6.78441">
        <ele>1126</ele>
        <time>2000-01-01T05:56:27.000Z</time>
      </trkpt>
      <trkpt lat="46.04318" lon="6.78429">
        <ele>1135.1</ele>
        <time>2000-01-01T05:56:37.000Z</time>
      </trkpt>
      <trkpt lat="46.04309" lon="6.78465">
        <ele>1133</ele>
        <time>2000-01-01T05:56:47.000Z</time>
      </trkpt>
      <trkpt lat="46.04293" lon="6.78507">
        <ele>1139</ele>
        <time>2000-01-01T05:56:57.000Z</time>
      </trkpt>
      <trkpt lat="46.0428" lon="6.78525">
        <ele>1160</ele>
        <time>2000-01-01T05:57:07.000Z</time>
      </trkpt>
      <trkpt lat="46.04264" lon="6.78567">
        <ele>1145</ele>
        <time>2000-01-01T05:57:17.000Z</time>
      </trkpt>
      <trkpt lat="46.04289" lon="6.78551">
        <ele>1161</ele>
        <time>2000-01-01T05:57:27.000Z</time>
      </trkpt>
      <trkpt lat="46.04287" lon="6.7856">
        <ele>1167.5</ele>
        <time>2000-01-01T05:57:37.000Z</time>
      </trkpt>
      <trkpt lat="46.04275" lon="6.7859">
        <ele>1164</ele>
        <time>2000-01-01T05:57:47.000Z</time>
      </trkpt>
      <trkpt lat="46.04263" lon="6.78631">
        <ele>1181</ele>
        <time>2000-01-01T05:57:57.000Z</time>
      </trkpt>
      <trkpt lat="46.04283" lon="6.78604">
        <ele>1181</ele>
        <time>2000-01-01T05:58:07.000Z</time>
      </trkpt>
      <trkpt lat="46.04269" lon="6.78643">
        <ele>1184</ele>
        <time>2000-01-01T05:58:17.000Z</time>
      </trkpt>
      <trkpt lat="46.04296" lon="6.78615">
        <ele>1186</ele>
        <time>2000-01-01T05:58:27.000Z</time>
      </trkpt>
      <trkpt lat="46.04278" lon="6.7865">
        <ele>1189</ele>
        <time>2000-01-01T05:58:37.000Z</time>
      </trkpt>
      <trkpt lat="46.0429" lon="6.78644">
        <ele>1199.9</ele>
        <time>2000-01-01T05:58:47.000Z</time>
      </trkpt>
      <trkpt lat="46.04307" lon="6.78622">
        <ele>1200</ele>
        <time>2000-01-01T05:58:57.000Z</time>
      </trkpt>
      <trkpt lat="46.04298" lon="6.78675">
        <ele>1213</ele>
        <time>2000-01-01T05:59:07.000Z</time>
      </trkpt>
      <trkpt lat="46.04316" lon="6.78663">
        <ele>1220</ele>
        <time>2000-01-01T05:59:17.000Z</time>
      </trkpt>
      <trkpt lat="46.04309" lon="6.78699">
        <ele>1226</ele>
        <time>2000-01-01T05:59:27.000Z</time>
      </trkpt>
      <trkpt lat="46.04299" lon="6.78719">
        <ele>1233.9</ele>
        <time>2000-01-01T05:59:37.000Z</time>
      </trkpt>
      <trkpt lat="46.04313" lon="6.78707">
        <ele>1229</ele>
        <time>2000-01-01T05:59:47.000Z</time>
      </trkpt>
      <trkpt lat="46.04326" lon="6.78687">
        <ele>1233</ele>
        <time>2000-01-01T05:59:57.000Z</time>
      </trkpt>
      <trkpt lat="46.04324" lon="6.78712">
        <ele>1236.8</ele>
        <time>2000-01-01T06:00:07.000Z</time>
      </trkpt>
      <trkpt lat="46.04309" lon="6.78739">
        <ele>1242</ele>
        <time>2000-01-01T06:00:17.000Z</time>
      </trkpt>
      <trkpt lat="46.04306" lon="6.78758">
        <ele>1264.1</ele>
        <time>2000-01-01T06:00:27.000Z</time>
      </trkpt>
      <trkpt lat="46.04291" lon="6.78774">
        <ele>1258</ele>
        <time>2000-01-01T06:00:37.000Z</time>
      </trkpt>
      <trkpt lat="46.04275" lon="6.78788">
        <ele>1260</ele>
        <time>2000-01-01T06:00:47.000Z</time>
      </trkpt>
      <trkpt lat="46.04264" lon="6.7879">
        <ele>1264.4</ele>
        <time>2000-01-01T06:00:57.000Z</time>
      </trkpt>
      <trkpt lat="46.04258" lon="6.78805">
        <ele>1266</ele>
        <time>2000-01-01T06:01:07.000Z</time>
      </trkpt>
      <trkpt lat="46.04253" lon="6.78825">
        <ele>1275.7</ele>
        <time>2000-01-01T06:01:17.000Z</time>
      </trkpt>
      <trkpt lat="46.04263" lon="6.78831">
        <ele>1285</ele>
        <time>2000-01-01T06:01:27.000Z</time>
      </trkpt>
      <trkpt lat="46.04272" lon="6.78834">
        <ele>1296.3</ele>
        <time>2000-01-01T06:01:37.000Z</time>
      </trkpt>
      <trkpt lat="46.0428" lon="6.78835">
        <ele>1299.7</ele>
        <time>2000-01-01T06:01:47.000Z</time>
      </trkpt>
      <trkpt lat="46.04274" lon="6.78849">
        <ele>1292</ele>
        <time>2000-01-01T06:01:57.000Z</time>
      </trkpt>
      <trkpt lat="46.04271" lon="6.7887">
        <ele>1306</ele>
        <time>2000-01-01T06:02:07.000Z</time>
      </trkpt>
      <trkpt lat="46.04265" lon="6.78887">
        <ele>1302</ele>
        <time>2000-01-01T06:02:17.000Z</time>
      </trkpt>
      <trkpt lat="46.0425" lon="6.78921">
        <ele>1305</ele>
        <time>2000-01-01T06:02:27.000Z</time>
      </trkpt>
      <trkpt lat="46.04235" lon="6.78947">
        <ele>1309</ele>
        <time>2000-01-01T06:02:37.000Z</time>
      </trkpt>
      <trkpt lat="46.0422" lon="6.78974">
        <ele>1314</ele>
        <time>2000-01-01T06:02:47.000Z</time>
      </trkpt>
      <trkpt lat="46.04204" lon="6.78985">
        <ele>1325.4</ele>
        <time>2000-01-01T06:02:57.000Z</time>
      </trkpt>
      <trkpt lat="46.04187" lon="6.78993">
        <ele>1314</ele>
        <time>2000-01-01T06:03:07.000Z</time>
      </trkpt>
      <trkpt lat="46.0417" lon="6.78993">
        <ele>1324.6</ele>
        <time>2000-01-01T06:03:17.000Z</time>
      </trkpt>
      <trkpt lat="46.0416" lon="6.79015">
        <ele>1316</ele>
        <time>2000-01-01T06:03:27.000Z</time>
      </trkpt>
      <trkpt lat="46.04178" lon="6.79012">
        <ele>1339</ele>
        <time>2000-01-01T06:03:37.000Z</time>
      </trkpt>
      <trkpt lat="46.04167" lon="6.79035">
        <ele>1313</ele>
        <time>2000-01-01T06:03:47.000Z</time>
      </trkpt>
      <trkpt lat="46.0415" lon="6.79061">
        <ele>1317</ele>
        <time>2000-01-01T06:03:57.000Z</time>
      </trkpt>
      <trkpt lat="46.04143" lon="6.79069">
        <ele>1344.7</ele>
        <time>2000-01-01T06:04:07.000Z</time>
      </trkpt>
      <trkpt lat="46.04141" lon="6.79102">
        <ele>1321</ele>
        <time>2000-01-01T06:04:17.000Z</time>
      </trkpt>
      <trkpt lat="46.04134" lon="6.79117">
        <ele>1366.5</ele>
        <time>2000-01-01T06:04:27.000Z</time>
      </trkpt>
      <trkpt lat="46.04137" lon="6.79133">
        <ele>1329</ele>
        <time>2000-01-01T06:04:37.000Z</time>
      </trkpt>
      <trkpt lat="46.04131" lon="6.79139">
        <ele>1370.8</ele>
        <time>2000-01-01T06:04:47.000Z</time>
      </trkpt>
      <trkpt lat="46.04123" lon="6.79134">
        <ele>1369.5</ele>
        <time>2000-01-01T06:04:57.000Z</time>
      </trkpt>
      <trkpt lat="46.04113" lon="6.79121">
        <ele>1342</ele>
        <time>2000-01-01T06:05:07.000Z</time>
      </trkpt>
      <trkpt lat="46.04102" lon="6.79119">
        <ele>1365.2</ele>
        <time>2000-01-01T06:05:17.000Z</time>
      </trkpt>
      <trkpt lat="46.04088" lon="6.79127">
        <ele>1346</ele>
        <time>2000-01-01T06:05:27.000Z</time>
      </trkpt>
      <trkpt lat="46.04108" lon="6.79141">
        <ele>1356</ele>
        <time>2000-01-01T06:05:37.000Z</time>
      </trkpt>
      <trkpt lat="46.04098" lon="6.79143">
        <ele>1371.6</ele>
        <time>2000-01-01T06:05:47.000Z</time>
      </trkpt>
      <trkpt lat="46.04088" lon="6.79148">
        <ele>1358</ele>
        <time>2000-01-01T06:05:57.000Z</time>
      </trkpt>
      <trkpt lat="46.04102" lon="6.79169">
        <ele>1363</ele>
        <time>2000-01-01T06:06:07.000Z</time>
      </trkpt>
      <trkpt lat="46.04084" lon="6.79177">
        <ele>1374</ele>
        <time>2000-01-01T06:06:17.000Z</time>
      </trkpt>
      <trkpt lat="46.04111" lon="6.79209">
        <ele>1376</ele>
        <time>2000-01-01T06:06:27.000Z</time>
      </trkpt>
      <trkpt lat="46.04088" lon="6.79197">
        <ele>1378</ele>
        <time>2000-01-01T06:06:37.000Z</time>
      </trkpt>
      <trkpt lat="46.04073" lon="6.79195">
        <ele>1400.9</ele>
        <time>2000-01-01T06:06:47.000Z</time>
      </trkpt>
      <trkpt lat="46.04057" lon="6.79198">
        <ele>1380</ele>
        <time>2000-01-01T06:06:57.000Z</time>
      </trkpt>
      <trkpt lat="46.04078" lon="6.79215">
        <ele>1395</ele>
        <time>2000-01-01T06:07:07.000Z</time>
      </trkpt>
      <trkpt lat="46.041" lon="6.79234">
        <ele>1403</ele>
        <time>2000-01-01T06:07:17.000Z</time>
      </trkpt>
      <trkpt lat="46.04087" lon="6.79239">
        <ele>1412.8</ele>
        <time>2000-01-01T06:07:27.000Z</time>
      </trkpt>
      <trkpt lat="46.04072" lon="6.79238">
        <ele>1401</ele>
        <time>2000-01-01T06:07:37.000Z</time>
      </trkpt>
      <trkpt lat="46.04049" lon="6.7924">
        <ele>1405</ele>
        <time>2000-01-01T06:07:47.000Z</time>
      </trkpt>
      <trkpt lat="46.0404" lon="6.79247">
        <ele>1412.6</ele>
        <time>2000-01-01T06:07:57.000Z</time>
      </trkpt>
      <trkpt lat="46.04044" lon="6.79259">
        <ele>1409</ele>
        <time>2000-01-01T06:08:07.000Z</time>
      </trkpt>
      <trkpt lat="46.04056" lon="6.79267">
        <ele>1433.6</ele>
        <time>2000-01-01T06:08:17.000Z</time>
      </trkpt>
      <trkpt lat="46.04072" lon="6.7928">
        <ele>1427</ele>
        <time>2000-01-01T06:08:27.000Z</time>
      </trkpt>
      <trkpt lat="46.04087" lon="6.79295">
        <ele>1436.5</ele>
        <time>2000-01-01T06:08:37.000Z</time>
      </trkpt>
      <trkpt lat="46.0406" lon="6.79287">
        <ele>1425</ele>
        <time>2000-01-01T06:08:47.000Z</time>
      </trkpt>
      <trkpt lat="46.04043" lon="6.79291">
        <ele>1438.9</ele>
        <time>2000-01-01T06:08:57.000Z</time>
      </trkpt>
      <trkpt lat="46.04021" lon="6.79295">
        <ele>1426</ele>
        <time>2000-01-01T06:09:07.000Z</time>
      </trkpt>
      <trkpt lat="46.04003" lon="6.793">
        <ele>1441.3</ele>
        <time>2000-01-01T06:09:17.000Z</time>
      </trkpt>
      <trkpt lat="46.03979" lon="6.79312">
        <ele>1428</ele>
        <time>2000-01-01T06:09:27.000Z</time>
      </trkpt>
      <trkpt lat="46.03975" lon="6.79287">
        <ele>1454.5</ele>
        <time>2000-01-01T06:09:37.000Z</time>
      </trkpt>
      <trkpt lat="46.0396" lon="6.79241">
        <ele>1431</ele>
        <time>2000-01-01T06:09:47.000Z</time>
      </trkpt>
      <trkpt lat="46.0396" lon="6.79278">
        <ele>1438</ele>
        <time>2000-01-01T06:09:57.000Z</time>
      </trkpt>
      <trkpt lat="46.03957" lon="6.79282">
        <ele>1458.7</ele>
        <time>2000-01-01T06:10:07.000Z</time>
      </trkpt>
      <trkpt lat="46.03951" lon="6.79263">
        <ele>1459.3</ele>
        <time>2000-01-01T06:10:17.000Z</time>
      </trkpt>
      <trkpt lat="46.03946" lon="6.79264">
        <ele>1448</ele>
        <time>2000-01-01T06:10:27.000Z</time>
      </trkpt>
      <trkpt lat="46.03947" lon="6.79283">
        <ele>1461.5</ele>
        <time>2000-01-01T06:10:37.000Z</time>
      </trkpt>
      <trkpt lat="46.0394" lon="6.79276">
        <ele>1457</ele>
        <time>2000-01-01T06:10:47.000Z</time>
      </trkpt>
      <trkpt lat="46.03935" lon="6.79265">
        <ele>1465</ele>
        <time>2000-01-01T06:10:57.000Z</time>
      </trkpt>
      <trkpt lat="46.03926" lon="6.79261">
        <ele>1468.4</ele>
        <time>2000-01-01T06:11:07.000Z</time>
      </trkpt>
      <trkpt lat="46.03916" lon="6.79266">
        <ele>1471</ele>
        <time>2000-01-01T06:11:17.000Z</time>
      </trkpt>
      <trkpt lat="46.03907" lon="6.79261">
        <ele>1490.2</ele>
        <time>2000-01-01T06:11:27.000Z</time>
      </trkpt>
      <trkpt lat="46.039" lon="6.79252">
        <ele>1481</ele>
        <time>2000-01-01T06:11:37.000Z</time>
      </trkpt>
      <trkpt lat="46.03898" lon="6.79237">
        <ele>1486.4</ele>
        <time>2000-01-01T06:11:47.000Z</time>
      </trkpt>
      <trkpt lat="46.03893" lon="6.79244">
        <ele>1487.9</ele>
        <time>2000-01-01T06:11:57.000Z</time>
      </trkpt>
      <trkpt lat="46.03889" lon="6.79252">
        <ele>1484</ele>
        <time>2000-01-01T06:12:07.000Z</time>
      </trkpt>
      <trkpt lat="46.03886" lon="6.79266">
        <ele>1501.9</ele>
        <time>2000-01-01T06:12:17.000Z</time>
      </trkpt>
      <trkpt lat="46.03892" lon="6.79289">
        <ele>1488</ele>
        <time>2000-01-01T06:12:27.000Z</time>
      </trkpt>
      <trkpt lat="46.03891" lon="6.79311">
        <ele>1503.6</ele>
        <time>2000-01-01T06:12:37.000Z</time>
      </trkpt>
      <trkpt lat="46.03887" lon="6.79341">
        <ele>1505</ele>
        <time>2000-01-01T06:12:47.000Z</time>
      </trkpt>
      <trkpt lat="46.03884" lon="6.79374">
        <ele>1506</ele>
        <time>2000-01-01T06:12:57.000Z</time>
      </trkpt>
      <trkpt lat="46.03876" lon="6.79409">
        <ele>1509</ele>
        <time>2000-01-01T06:13:07.000Z</time>
      </trkpt>
      <trkpt lat="46.03872" lon="6.79397">
        <ele>1524.7</ele>
        <time>2000-01-01T06:13:17.000Z</time>
      </trkpt>
      <trkpt lat="46.03872" lon="6.7938">
        <ele>1513</ele>
        <time>2000-01-01T06:13:27.000Z</time>
      </trkpt>
      <trkpt lat="46.03869" lon="6.79366">
        <ele>1523.2</ele>
        <time>2000-01-01T06:13:37.000Z</time>
      </trkpt>
      <trkpt lat="46.0387" lon="6.79352">
        <ele>1513</ele>
        <time>2000-01-01T06:13:47.000Z</time>
      </trkpt>
      <trkpt lat="46.03869" lon="6.79331">
        <ele>1514.2</ele>
        <time>2000-01-01T06:13:57.000Z</time>
      </trkpt>
      <trkpt lat="46.03862" lon="6.79318">
        <ele>1514</ele>
        <time>2000-01-01T06:14:07.000Z</time>
      </trkpt>
      <trkpt lat="46.03847" lon="6.79301">
        <ele>1519</ele>
        <time>2000-01-01T06:14:17.000Z</time>
      </trkpt>
      <trkpt lat="46.03841" lon="6.79287">
        <ele>1517.6</ele>
        <time>2000-01-01T06:14:27.000Z</time>
      </trkpt>
      <trkpt lat="46.03831" lon="6.79273">
        <ele>1524</ele>
        <time>2000-01-01T06:14:37.000Z</time>
      </trkpt>
      <trkpt lat="46.03824" lon="6.79262">
        <ele>1545.9</ele>
        <time>2000-01-01T06:14:47.000Z</time>
      </trkpt>
      <trkpt lat="46.03818" lon="6.7925">
        <ele>1529</ele>
        <time>2000-01-01T06:14:57.000Z</time>
      </trkpt>
      <trkpt lat="46.03815" lon="6.79258">
        <ele>1550.3</ele>
        <time>2000-01-01T06:15:07.000Z</time>
      </trkpt>
      <trkpt lat="46.03821" lon="6.79286">
        <ele>1534</ele>
        <time>2000-01-01T06:15:17.000Z</time>
      </trkpt>
      <trkpt lat="46.03827" lon="6.79311">
        <ele>1556.8</ele>
        <time>2000-01-01T06:15:27.000Z</time>
      </trkpt>
      <trkpt lat="46.03828" lon="6.79328">
        <ele>1545</ele>
        <time>2000-01-01T06:15:37.000Z</time>
      </trkpt>
      <trkpt lat="46.03833" lon="6.79375">
        <ele>1545</ele>
        <time>2000-01-01T06:15:47.000Z</time>
      </trkpt>
      <trkpt lat="46.03831" lon="6.79393">
        <ele>1571.2</ele>
        <time>2000-01-01T06:15:57.000Z</time>
      </trkpt>
      <trkpt lat="46.03823" lon="6.79403">
        <ele>1559</ele>
        <time>2000-01-01T06:16:07.000Z</time>
      </trkpt>
      <trkpt lat="46.03826" lon="6.79416">
        <ele>1564.3</ele>
        <time>2000-01-01T06:16:17.000Z</time>
      </trkpt>
      <trkpt lat="46.03823" lon="6.7943">
        <ele>1562</ele>
        <time>2000-01-01T06:16:27.000Z</time>
      </trkpt>
      <trkpt lat="46.03821" lon="6.79454">
        <ele>1586.6</ele>
        <time>2000-01-01T06:16:37.000Z</time>
      </trkpt>
      <trkpt lat="46.03816" lon="6.79473">
        <ele>1575</ele>
        <time>2000-01-01T06:16:47.000Z</time>
      </trkpt>
      <trkpt lat="46.0381" lon="6.79485">
        <ele>1589.8</ele>
        <time>2000-01-01T06:16:57.000Z</time>
      </trkpt>
      <trkpt lat="46.0381" lon="6.79502">
        <ele>1578</ele>
        <time>2000-01-01T06:17:07.000Z</time>
      </trkpt>
      <trkpt lat="46.03806" lon="6.79496">
        <ele>1591.3</ele>
        <time>2000-01-01T06:17:17.000Z</time>
      </trkpt>
      <trkpt lat="46.03808" lon="6.79459">
        <ele>1581</ele>
        <time>2000-01-01T06:17:27.000Z</time>
      </trkpt>
      <trkpt lat="46.03804" lon="6.79444">
        <ele>1591.4</ele>
        <time>2000-01-01T06:17:37.000Z</time>
      </trkpt>
      <trkpt lat="46.03801" lon="6.79435">
        <ele>1591.5</ele>
        <time>2000-01-01T06:17:47.000Z</time>
      </trkpt>
      <trkpt lat="46.03793" lon="6.79426">
        <ele>1588</ele>
        <time>2000-01-01T06:17:57.000Z</time>
      </trkpt>
      <trkpt lat="46.03787" lon="6.79401">
        <ele>1589.2</ele>
        <time>2000-01-01T06:18:07.000Z</time>
      </trkpt>
      <trkpt lat="46.0377" lon="6.79371">
        <ele>1600</ele>
        <time>2000-01-01T06:18:17.000Z</time>
      </trkpt>
      <trkpt lat="46.03759" lon="6.79358">
        <ele>1595.4</ele>
        <time>2000-01-01T06:18:27.000Z</time>
      </trkpt>
      <trkpt lat="46.03744" lon="6.7932">
        <ele>1600</ele>
        <time>2000-01-01T06:18:37.000Z</time>
      </trkpt>
      <trkpt lat="46.03744" lon="6.79349">
        <ele>1606</ele>
        <time>2000-01-01T06:18:47.000Z</time>
      </trkpt>
      <trkpt lat="46.03753" lon="6.79383">
        <ele>1611</ele>
        <time>2000-01-01T06:18:57.000Z</time>
      </trkpt>
      <trkpt lat="46.03761" lon="6.79403">
        <ele>1605.6</ele>
        <time>2000-01-01T06:19:07.000Z</time>
      </trkpt>
      <trkpt lat="46.03762" lon="6.79422">
        <ele>1614</ele>
        <time>2000-01-01T06:19:17.000Z</time>
      </trkpt>
      <trkpt lat="46.03765" lon="6.79448">
        <ele>1608.2</ele>
        <time>2000-01-01T06:19:27.000Z</time>
      </trkpt>
      <trkpt lat="46.03764" lon="6.79462">
        <ele>1622</ele>
        <time>2000-01-01T06:19:37.000Z</time>
      </trkpt>
      <trkpt lat="46.03764" lon="6.79473">
        <ele>1612.1</ele>
        <time>2000-01-01T06:19:47.000Z</time>
      </trkpt>
      <trkpt lat="46.0377" lon="6.79501">
        <ele>1626</ele>
        <time>2000-01-01T06:19:57.000Z</time>
      </trkpt>
      <trkpt lat="46.03762" lon="6.79492">
        <ele>1622</ele>
        <time>2000-01-01T06:20:07.000Z</time>
      </trkpt>
      <trkpt lat="46.03756" lon="6.79473">
        <ele>1631</ele>
        <time>2000-01-01T06:20:17.000Z</time>
      </trkpt>
      <trkpt lat="46.03754" lon="6.79456">
        <ele>1611</ele>
        <time>2000-01-01T06:20:27.000Z</time>
      </trkpt>
      <trkpt lat="46.03746" lon="6.79441">
        <ele>1634</ele>
        <time>2000-01-01T06:20:37.000Z</time>
      </trkpt>
      <trkpt lat="46.03743" lon="6.79422">
        <ele>1638.6</ele>
        <time>2000-01-01T06:20:47.000Z</time>
      </trkpt>
      <trkpt lat="46.03734" lon="6.79401">
        <ele>1634</ele>
        <time>2000-01-01T06:20:57.000Z</time>
      </trkpt>
      <trkpt lat="46.03727" lon="6.79382">
        <ele>1643.1</ele>
        <time>2000-01-01T06:21:07.000Z</time>
      </trkpt>
      <trkpt lat="46.0372" lon="6.79376">
        <ele>1639</ele>
        <time>2000-01-01T06:21:17.000Z</time>
      </trkpt>
      <trkpt lat="46.03722" lon="6.79386">
        <ele>1645</ele>
        <time>2000-01-01T06:21:27.000Z</time>
      </trkpt>
      <trkpt lat="46.03716" lon="6.79382">
        <ele>1646.9</ele>
        <time>2000-01-01T06:21:37.000Z</time>
      </trkpt>
      <trkpt lat="46.03717" lon="6.79405">
        <ele>1649</ele>
        <time>2000-01-01T06:21:47.000Z</time>
      </trkpt>
      <trkpt lat="46.03704" lon="6.7939">
        <ele>1652.4</ele>
        <time>2000-01-01T06:21:57.000Z</time>
      </trkpt>
      <trkpt lat="46.0371" lon="6.79416">
        <ele>1664</ele>
        <time>2000-01-01T06:22:07.000Z</time>
      </trkpt>
      <trkpt lat="46.03697" lon="6.79401">
        <ele>1657.3</ele>
        <time>2000-01-01T06:22:17.000Z</time>
      </trkpt>
      <trkpt lat="46.03702" lon="6.79433">
        <ele>1669</ele>
        <time>2000-01-01T06:22:27.000Z</time>
      </trkpt>
      <trkpt lat="46.03708" lon="6.79441">
        <ele>1664.6</ele>
        <time>2000-01-01T06:22:37.000Z</time>
      </trkpt>
      <trkpt lat="46.03704" lon="6.79456">
        <ele>1673</ele>
        <time>2000-01-01T06:22:47.000Z</time>
      </trkpt>
      <trkpt lat="46.03708" lon="6.79482">
        <ele>1668.3</ele>
        <time>2000-01-01T06:22:57.000Z</time>
      </trkpt>
      <trkpt lat="46.03707" lon="6.79502">
        <ele>1678</ele>
        <time>2000-01-01T06:23:07.000Z</time>
      </trkpt>
      <trkpt lat="46.03703" lon="6.79484">
        <ele>1671</ele>
        <time>2000-01-01T06:23:17.000Z</time>
      </trkpt>
      <trkpt lat="46.03696" lon="6.79474">
        <ele>1683</ele>
        <time>2000-01-01T06:23:27.000Z</time>
      </trkpt>
      <trkpt lat="46.03698" lon="6.7946">
        <ele>1670.1</ele>
        <time>2000-01-01T06:23:37.000Z</time>
      </trkpt>
      <trkpt lat="46.03688" lon="6.79453">
        <ele>1685</ele>
        <time>2000-01-01T06:23:47.000Z</time>
      </trkpt>
      <trkpt lat="46.03682" lon="6.79442">
        <ele>1674.5</ele>
        <time>2000-01-01T06:23:57.000Z</time>
      </trkpt>
      <trkpt lat="46.03671" lon="6.79433">
        <ele>1686</ele>
        <time>2000-01-01T06:24:07.000Z</time>
      </trkpt>
      <trkpt lat="46.03663" lon="6.79422">
        <ele>1697</ele>
        <time>2000-01-01T06:24:17.000Z</time>
      </trkpt>
      <trkpt lat="46.03661" lon="6.7941">
        <ele>1688</ele>
        <time>2000-01-01T06:24:27.000Z</time>
      </trkpt>
      <trkpt lat="46.03654" lon="6.79419">
        <ele>1703.2</ele>
        <time>2000-01-01T06:24:37.000Z</time>
      </trkpt>
      <trkpt lat="46.03657" lon="6.79447">
        <ele>1701</ele>
        <time>2000-01-01T06:24:47.000Z</time>
      </trkpt>
      <trkpt lat="46.03668" lon="6.79464">
        <ele>1679.2</ele>
        <time>2000-01-01T06:24:57.000Z</time>
      </trkpt>
      <trkpt lat="46.03667" lon="6.79492">
        <ele>1705</ele>
        <time>2000-01-01T06:25:07.000Z</time>
      </trkpt>
      <trkpt lat="46.03669" lon="6.79516">
        <ele>1695.5</ele>
        <time>2000-01-01T06:25:17.000Z</time>
      </trkpt>
      <trkpt lat="46.03659" lon="6.79493">
        <ele>1711</ele>
        <time>2000-01-01T06:25:27.000Z</time>
      </trkpt>
      <trkpt lat="46.03649" lon="6.79473">
        <ele>1718.7</ele>
        <time>2000-01-01T06:25:37.000Z</time>
      </trkpt>
      <trkpt lat="46.03641" lon="6.79464">
        <ele>1712</ele>
        <time>2000-01-01T06:25:47.000Z</time>
      </trkpt>
      <trkpt lat="46.03634" lon="6.79454">
        <ele>1721.1</ele>
        <time>2000-01-01T06:25:57.000Z</time>
      </trkpt>
      <trkpt lat="46.03633" lon="6.79435">
        <ele>1719</ele>
        <time>2000-01-01T06:26:07.000Z</time>
      </trkpt>
      <trkpt lat="46.03625" lon="6.79419">
        <ele>1720.2</ele>
        <time>2000-01-01T06:26:17.000Z</time>
      </trkpt>
      <trkpt lat="46.03616" lon="6.79408">
        <ele>1722</ele>
        <time>2000-01-01T06:26:27.000Z</time>
      </trkpt>
      <trkpt lat="46.0361" lon="6.79394">
        <ele>1709.4</ele>
        <time>2000-01-01T06:26:37.000Z</time>
      </trkpt>
      <trkpt lat="46.03604" lon="6.79387">
        <ele>1726</ele>
        <time>2000-01-01T06:26:47.000Z</time>
      </trkpt>
      <trkpt lat="46.03605" lon="6.79399">
        <ele>1712.7</ele>
        <time>2000-01-01T06:26:57.000Z</time>
      </trkpt>
      <trkpt lat="46.03594" lon="6.79391">
        <ele>1733</ele>
        <time>2000-01-01T06:27:07.000Z</time>
      </trkpt>
      <trkpt lat="46.03599" lon="6.79407">
        <ele>1718.3</ele>
        <time>2000-01-01T06:27:17.000Z</time>
      </trkpt>
      <trkpt lat="46.03601" lon="6.79421">
        <ele>1736</ele>
        <time>2000-01-01T06:27:27.000Z</time>
      </trkpt>
      <trkpt lat="46.03576" lon="6.79401">
        <ele>1741</ele>
        <time>2000-01-01T06:27:37.000Z</time>
      </trkpt>
      <trkpt lat="46.03559" lon="6.794">
        <ele>1737.5</ele>
        <time>2000-01-01T06:27:47.000Z</time>
      </trkpt>
      <trkpt lat="46.03568" lon="6.7941">
        <ele>1742</ele>
        <time>2000-01-01T06:27:57.000Z</time>
      </trkpt>
      <trkpt lat="46.03575" lon="6.79426">
        <ele>1748.6</ele>
        <time>2000-01-01T06:28:07.000Z</time>
      </trkpt>
      <trkpt lat="46.03583" lon="6.79438">
        <ele>1747</ele>
        <time>2000-01-01T06:28:17.000Z</time>
      </trkpt>
      <trkpt lat="46.03585" lon="6.79449">
        <ele>1732.7</ele>
        <time>2000-01-01T06:28:27.000Z</time>
      </trkpt>
      <trkpt lat="46.03573" lon="6.79442">
        <ele>1755</ele>
        <time>2000-01-01T06:28:37.000Z</time>
      </trkpt>
      <trkpt lat="46.03581" lon="6.79459">
        <ele>1761.1</ele>
        <time>2000-01-01T06:28:47.000Z</time>
      </trkpt>
      <trkpt lat="46.03588" lon="6.79479">
        <ele>1761</ele>
        <time>2000-01-01T06:28:57.000Z</time>
      </trkpt>
      <trkpt lat="46.03575" lon="6.79463">
        <ele>1762.5</ele>
        <time>2000-01-01T06:29:07.000Z</time>
      </trkpt>
      <trkpt lat="46.03556" lon="6.79448">
        <ele>1762</ele>
        <time>2000-01-01T06:29:17.000Z</time>
      </trkpt>
      <trkpt lat="46.03533" lon="6.79451">
        <ele>1765</ele>
        <time>2000-01-01T06:29:27.000Z</time>
      </trkpt>
      <trkpt lat="46.03546" lon="6.79469">
        <ele>1767.7</ele>
        <time>2000-01-01T06:29:37.000Z</time>
      </trkpt>
      <trkpt lat="46.03562" lon="6.79477">
        <ele>1769</ele>
        <time>2000-01-01T06:29:47.000Z</time>
      </trkpt>
      <trkpt lat="46.0357" lon="6.79492">
        <ele>1766.2</ele>
        <time>2000-01-01T06:29:57.000Z</time>
      </trkpt>
      <trkpt lat="46.03559" lon="6.79488">
        <ele>1778</ele>
        <time>2000-01-01T06:30:07.000Z</time>
      </trkpt>
      <trkpt lat="46.03565" lon="6.79499">
        <ele>1767.1</ele>
        <time>2000-01-01T06:30:17.000Z</time>
      </trkpt>
      <trkpt lat="46.03548" lon="6.79493">
        <ele>1784</ele>
        <time>2000-01-01T06:30:27.000Z</time>
      </trkpt>
      <trkpt lat="46.03535" lon="6.79487">
        <ele>1773.2</ele>
        <time>2000-01-01T06:30:37.000Z</time>
      </trkpt>
      <trkpt lat="46.03522" lon="6.79489">
        <ele>1785</ele>
        <time>2000-01-01T06:30:47.000Z</time>
      </trkpt>
      <trkpt lat="46.03531" lon="6.79502">
        <ele>1792.5</ele>
        <time>2000-01-01T06:30:57.000Z</time>
      </trkpt>
      <trkpt lat="46.03541" lon="6.79507">
        <ele>1787</ele>
        <time>2000-01-01T06:31:07.000Z</time>
      </trkpt>
      <trkpt lat="46.03557" lon="6.7953">
        <ele>1793</ele>
        <time>2000-01-01T06:31:17.000Z</time>
      </trkpt>
      <trkpt lat="46.03537" lon="6.79534">
        <ele>1801</ele>
        <time>2000-01-01T06:31:27.000Z</time>
      </trkpt>
      <trkpt lat="46.03511" lon="6.79518">
        <ele>1802</ele>
        <time>2000-01-01T06:31:37.000Z</time>
      </trkpt>
      <trkpt lat="46.03473" lon="6.79491">
        <ele>1807</ele>
        <time>2000-01-01T06:31:47.000Z</time>
      </trkpt>
      <trkpt lat="46.03482" lon="6.79511">
        <ele>1809.2</ele>
        <time>2000-01-01T06:31:57.000Z</time>
      </trkpt>
      <trkpt lat="46.03491" lon="6.79534">
        <ele>1815</ele>
        <time>2000-01-01T06:32:07.000Z</time>
      </trkpt>
      <trkpt lat="46.03505" lon="6.79546">
        <ele>1802.1</ele>
        <time>2000-01-01T06:32:17.000Z</time>
      </trkpt>
      <trkpt lat="46.0351" lon="6.79561">
        <ele>1821</ele>
        <time>2000-01-01T06:32:27.000Z</time>
      </trkpt>
      <trkpt lat="46.03514" lon="6.79583">
        <ele>1813.2</ele>
        <time>2000-01-01T06:32:37.000Z</time>
      </trkpt>
      <trkpt lat="46.03525" lon="6.79596">
        <ele>1821</ele>
        <time>2000-01-01T06:32:47.000Z</time>
      </trkpt>
      <trkpt lat="46.0353" lon="6.79613">
        <ele>1822.5</ele>
        <time>2000-01-01T06:32:57.000Z</time>
      </trkpt>
      <trkpt lat="46.03518" lon="6.79612">
        <ele>1830</ele>
        <time>2000-01-01T06:33:07.000Z</time>
      </trkpt>
      <trkpt lat="46.03506" lon="6.79609">
        <ele>1825.8</ele>
        <time>2000-01-01T06:33:17.000Z</time>
      </trkpt>
      <trkpt lat="46.03522" lon="6.7963">
        <ele>1831</ele>
        <time>2000-01-01T06:33:27.000Z</time>
      </trkpt>
      <trkpt lat="46.03509" lon="6.79624">
        <ele>1828.1</ele>
        <time>2000-01-01T06:33:37.000Z</time>
      </trkpt>
      <trkpt lat="46.03498" lon="6.79624">
        <ele>1843</ele>
        <time>2000-01-01T06:33:47.000Z</time>
      </trkpt>
      <trkpt lat="46.03467" lon="6.79597">
        <ele>1845</ele>
        <time>2000-01-01T06:33:57.000Z</time>
      </trkpt>
      <trkpt lat="46.03445" lon="6.79582">
        <ele>1847</ele>
        <time>2000-01-01T06:34:07.000Z</time>
      </trkpt>
      <trkpt lat="46.03452" lon="6.79596">
        <ele>1847.4</ele>
        <time>2000-01-01T06:34:17.000Z</time>
      </trkpt>
      <trkpt lat="46.03446" lon="6.79609">
        <ele>1855</ele>
        <time>2000-01-01T06:34:27.000Z</time>
      </trkpt>
      <trkpt lat="46.03458" lon="6.79626">
        <ele>1851.7</ele>
        <time>2000-01-01T06:34:37.000Z</time>
      </trkpt>
      <trkpt lat="46.03476" lon="6.79644">
        <ele>1858</ele>
        <time>2000-01-01T06:34:47.000Z</time>
      </trkpt>
      <trkpt lat="46.03484" lon="6.79657">
        <ele>1854.2</ele>
        <time>2000-01-01T06:34:57.000Z</time>
      </trkpt>
      <trkpt lat="46.03487" lon="6.79672">
        <ele>1869</ele>
        <time>2000-01-01T06:35:07.000Z</time>
      </trkpt>
      <trkpt lat="46.03495" lon="6.79677">
        <ele>1865.3</ele>
        <time>2000-01-01T06:35:17.000Z</time>
      </trkpt>
      <trkpt lat="46.03509" lon="6.79712">
        <ele>1873</ele>
        <time>2000-01-01T06:35:27.000Z</time>
      </trkpt>
      <trkpt lat="46.0351" lon="6.79723">
        <ele>1859.1</ele>
        <time>2000-01-01T06:35:37.000Z</time>
      </trkpt>
      <trkpt lat="46.03515" lon="6.79736">
        <ele>1862.9</ele>
        <time>2000-01-01T06:35:47.000Z</time>
      </trkpt>
      <trkpt lat="46.03502" lon="6.79728">
        <ele>1879</ele>
        <time>2000-01-01T06:35:57.000Z</time>
      </trkpt>
      <trkpt lat="46.03496" lon="6.79719">
        <ele>1879.4</ele>
        <time>2000-01-01T06:36:07.000Z</time>
      </trkpt>
      <trkpt lat="46.03487" lon="6.79721">
        <ele>1880.3</ele>
        <time>2000-01-01T06:36:17.000Z</time>
      </trkpt>
      <trkpt lat="46.0348" lon="6.79705">
        <ele>1883</ele>
        <time>2000-01-01T06:36:27.000Z</time>
      </trkpt>
      <trkpt lat="46.03469" lon="6.79695">
        <ele>1877.5</ele>
        <time>2000-01-01T06:36:37.000Z</time>
      </trkpt>
      <trkpt lat="46.03462" lon="6.79706">
        <ele>1887</ele>
        <time>2000-01-01T06:36:47.000Z</time>
      </trkpt>
      <trkpt lat="46.03465" lon="6.79719">
        <ele>1882.3</ele>
        <time>2000-01-01T06:36:57.000Z</time>
      </trkpt>
      <trkpt lat="46.03469" lon="6.79731">
        <ele>1889</ele>
        <time>2000-01-01T06:37:07.000Z</time>
      </trkpt>
      <trkpt lat="46.03486" lon="6.79736">
        <ele>1882.2</ele>
        <time>2000-01-01T06:37:17.000Z</time>
      </trkpt>
      <trkpt lat="46.03498" lon="6.79747">
        <ele>1890</ele>
        <time>2000-01-01T06:37:27.000Z</time>
      </trkpt>
      <trkpt lat="46.03491" lon="6.79751">
        <ele>1891.1</ele>
        <time>2000-01-01T06:37:37.000Z</time>
      </trkpt>
      <trkpt lat="46.03488" lon="6.79773">
        <ele>1898</ele>
        <time>2000-01-01T06:37:47.000Z</time>
      </trkpt>
      <trkpt lat="46.03451" lon="6.7978">
        <ele>1900</ele>
        <time>2000-01-01T06:37:57.000Z</time>
      </trkpt>
      <trkpt lat="46.03435" lon="6.79779">
        <ele>1911.7</ele>
        <time>2000-01-01T06:38:07.000Z</time>
      </trkpt>
      <trkpt lat="46.03405" lon="6.79765">
        <ele>1915</ele>
        <time>2000-01-01T06:38:17.000Z</time>
      </trkpt>
      <trkpt lat="46.03391" lon="6.79755">
        <ele>1927</ele>
        <time>2000-01-01T06:38:27.000Z</time>
      </trkpt>
      <trkpt lat="46.03377" lon="6.7976">
        <ele>1917</ele>
        <time>2000-01-01T06:38:37.000Z</time>
      </trkpt>
      <trkpt lat="46.03369" lon="6.79767">
        <ele>1934.3</ele>
        <time>2000-01-01T06:38:47.000Z</time>
      </trkpt>
      <trkpt lat="46.03354" lon="6.79759">
        <ele>1920</ele>
        <time>2000-01-01T06:38:57.000Z</time>
      </trkpt>
      <trkpt lat="46.03341" lon="6.79753">
        <ele>1933</ele>
        <time>2000-01-01T06:39:07.000Z</time>
      </trkpt>
      <trkpt lat="46.03358" lon="6.79774">
        <ele>1926</ele>
        <time>2000-01-01T06:39:17.000Z</time>
      </trkpt>
      <trkpt lat="46.03314" lon="6.79764">
        <ele>1936</ele>
        <time>2000-01-01T06:39:27.000Z</time>
      </trkpt>
      <trkpt lat="46.03307" lon="6.79756">
        <ele>1944</ele>
        <time>2000-01-01T06:39:37.000Z</time>
      </trkpt>
      <trkpt lat="46.03285" lon="6.79761">
        <ele>1938</ele>
        <time>2000-01-01T06:39:47.000Z</time>
      </trkpt>
      <trkpt lat="46.03262" lon="6.79739">
        <ele>1941</ele>
        <time>2000-01-01T06:39:57.000Z</time>
      </trkpt>
      <trkpt lat="46.03247" lon="6.79729">
        <ele>1930.6</ele>
        <time>2000-01-01T06:40:07.000Z</time>
      </trkpt>
      <trkpt lat="46.03235" lon="6.79729">
        <ele>1946</ele>
        <time>2000-01-01T06:40:17.000Z</time>
      </trkpt>
      <trkpt lat="46.0322" lon="6.79727">
        <ele>1926</ele>
        <time>2000-01-01T06:40:27.000Z</time>
      </trkpt>
      <trkpt lat="46.03213" lon="6.79739">
        <ele>1946</ele>
        <time>2000-01-01T06:40:37.000Z</time>
      </trkpt>
      <trkpt lat="46.0322" lon="6.79759">
        <ele>1939.6</ele>
        <time>2000-01-01T06:40:47.000Z</time>
      </trkpt>
      <trkpt lat="46.03227" lon="6.79797">
        <ele>1945</ele>
        <time>2000-01-01T06:40:57.000Z</time>
      </trkpt>
      <trkpt lat="46.03222" lon="6.79802">
        <ele>1942.7</ele>
        <time>2000-01-01T06:41:07.000Z</time>
      </trkpt>
      <trkpt lat="46.03223" lon="6.79817">
        <ele>1944.7</ele>
        <time>2000-01-01T06:41:17.000Z</time>
      </trkpt>
      <trkpt lat="46.03217" lon="6.79816">
        <ele>1944</ele>
        <time>2000-01-01T06:41:27.000Z</time>
      </trkpt>
      <trkpt lat="46.03209" lon="6.79801">
        <ele>1940.5</ele>
        <time>2000-01-01T06:41:37.000Z</time>
      </trkpt>
      <trkpt lat="46.03201" lon="6.79808">
        <ele>1941</ele>
        <time>2000-01-01T06:41:47.000Z</time>
      </trkpt>
      <trkpt lat="46.032" lon="6.79823">
        <ele>1939.7</ele>
        <time>2000-01-01T06:41:57.000Z</time>
      </trkpt>
      <trkpt lat="46.03186" lon="6.79792">
        <ele>1932</ele>
        <time>2000-01-01T06:42:07.000Z</time>
      </trkpt>
      <trkpt lat="46.03175" lon="6.79789">
        <ele>1935.6</ele>
        <time>2000-01-01T06:42:17.000Z</time>
      </trkpt>
      <trkpt lat="46.0315" lon="6.79765">
        <ele>1920</ele>
        <time>2000-01-01T06:42:27.000Z</time>
      </trkpt>
      <trkpt lat="46.03146" lon="6.79748">
        <ele>1911.1</ele>
        <time>2000-01-01T06:42:37.000Z</time>
      </trkpt>
      <trkpt lat="46.03134" lon="6.79737">
        <ele>1915</ele>
        <time>2000-01-01T06:42:47.000Z</time>
      </trkpt>
      <trkpt lat="46.03128" lon="6.79722">
        <ele>1902.8</ele>
        <time>2000-01-01T06:42:57.000Z</time>
      </trkpt>
      <trkpt lat="46.03124" lon="6.7971">
        <ele>1908</ele>
        <time>2000-01-01T06:43:07.000Z</time>
      </trkpt>
      <trkpt lat="46.03116" lon="6.79715">
        <ele>1900.1</ele>
        <time>2000-01-01T06:43:17.000Z</time>
      </trkpt>
      <trkpt lat="46.03119" lon="6.79758">
        <ele>1904</ele>
        <time>2000-01-01T06:43:27.000Z</time>
      </trkpt>
      <trkpt lat="46.03126" lon="6.79787">
        <ele>1902</ele>
        <time>2000-01-01T06:43:37.000Z</time>
      </trkpt>
      <trkpt lat="46.03133" lon="6.79827">
        <ele>1901</ele>
        <time>2000-01-01T06:43:47.000Z</time>
      </trkpt>
      <trkpt lat="46.0313" lon="6.79841">
        <ele>1914.8</ele>
        <time>2000-01-01T06:43:57.000Z</time>
      </trkpt>
      <trkpt lat="46.03122" lon="6.79839">
        <ele>1911.7</ele>
        <time>2000-01-01T06:44:07.000Z</time>
      </trkpt>
      <trkpt lat="46.03111" lon="6.79817">
        <ele>1891</ele>
        <time>2000-01-01T06:44:17.000Z</time>
      </trkpt>
      <trkpt lat="46.03099" lon="6.79803">
        <ele>1901.4</ele>
        <time>2000-01-01T06:44:27.000Z</time>
      </trkpt>
      <trkpt lat="46.03069" lon="6.79758">
        <ele>1868</ele>
        <time>2000-01-01T06:44:37.000Z</time>
      </trkpt>
      <trkpt lat="46.03062" lon="6.7974">
        <ele>1872.4</ele>
        <time>2000-01-01T06:44:47.000Z</time>
      </trkpt>
      <trkpt lat="46.03054" lon="6.79724">
        <ele>1864</ele>
        <time>2000-01-01T06:44:57.000Z</time>
      </trkpt>
      <trkpt lat="46.03052" lon="6.7971">
        <ele>1867.8</ele>
        <time>2000-01-01T06:45:07.000Z</time>
      </trkpt>
      <trkpt lat="46.03046" lon="6.79697">
        <ele>1860</ele>
        <time>2000-01-01T06:45:17.000Z</time>
      </trkpt>
      <trkpt lat="46.03031" lon="6.79701">
        <ele>1862.7</ele>
        <time>2000-01-01T06:45:27.000Z</time>
      </trkpt>
      <trkpt lat="46.03024" lon="6.79687">
        <ele>1848</ele>
        <time>2000-01-01T06:45:37.000Z</time>
      </trkpt>
      <trkpt lat="46.03024" lon="6.79674">
        <ele>1859.6</ele>
        <time>2000-01-01T06:45:47.000Z</time>
      </trkpt>
      <trkpt lat="46.03008" lon="6.79637">
        <ele>1839</ele>
        <time>2000-01-01T06:45:57.000Z</time>
      </trkpt>
      <trkpt lat="46.03005" lon="6.79628">
        <ele>1857</ele>
        <time>2000-01-01T06:46:07.000Z</time>
      </trkpt>
      <trkpt lat="46.02998" lon="6.79641">
        <ele>1836.1</ele>
        <time>2000-01-01T06:46:17.000Z</time>
      </trkpt>
      <trkpt lat="46.02992" lon="6.79649">
        <ele>1834</ele>
        <time>2000-01-01T06:46:27.000Z</time>
      </trkpt>
      <trkpt lat="46.02981" lon="6.79651">
        <ele>1834.7</ele>
        <time>2000-01-01T06:46:37.000Z</time>
      </trkpt>
      <trkpt lat="46.02978" lon="6.79662">
        <ele>1832</ele>
        <time>2000-01-01T06:46:47.000Z</time>
      </trkpt>
      <trkpt lat="46.02993" lon="6.79693">
        <ele>1830</ele>
        <time>2000-01-01T06:46:57.000Z</time>
      </trkpt>
      <trkpt lat="46.02998" lon="6.79749">
        <ele>1823</ele>
        <time>2000-01-01T06:47:07.000Z</time>
      </trkpt>
      <trkpt lat="46.02996" lon="6.79772">
        <ele>1832.2</ele>
        <time>2000-01-01T06:47:17.000Z</time>
      </trkpt>
      <trkpt lat="46.02985" lon="6.79823">
        <ele>1818</ele>
        <time>2000-01-01T06:47:27.000Z</time>
      </trkpt>
      <trkpt lat="46.0298" lon="6.79813">
        <ele>1829.3</ele>
        <time>2000-01-01T06:47:37.000Z</time>
      </trkpt>
      <trkpt lat="46.02976" lon="6.79773">
        <ele>1808</ele>
        <time>2000-01-01T06:47:47.000Z</time>
      </trkpt>
      <trkpt lat="46.02964" lon="6.79749">
        <ele>1806</ele>
        <time>2000-01-01T06:47:57.000Z</time>
      </trkpt>
      <trkpt lat="46.02945" lon="6.79735">
        <ele>1796</ele>
        <time>2000-01-01T06:48:07.000Z</time>
      </trkpt>
      <trkpt lat="46.0293" lon="6.79719">
        <ele>1823</ele>
        <time>2000-01-01T06:48:17.000Z</time>
      </trkpt>
      <trkpt lat="46.02922" lon="6.79691">
        <ele>1791</ele>
        <time>2000-01-01T06:48:27.000Z</time>
      </trkpt>
      <trkpt lat="46.02913" lon="6.79692">
        <ele>1811.8</ele>
        <time>2000-01-01T06:48:37.000Z</time>
      </trkpt>
      <trkpt lat="46.02907" lon="6.79715">
        <ele>1779</ele>
        <time>2000-01-01T06:48:47.000Z</time>
      </trkpt>
      <trkpt lat="46.02893" lon="6.7974">
        <ele>1778</ele>
        <time>2000-01-01T06:48:57.000Z</time>
      </trkpt>
      <trkpt lat="46.02886" lon="6.79763">
        <ele>1808.7</ele>
        <time>2000-01-01T06:49:07.000Z</time>
      </trkpt>
      <trkpt lat="46.02878" lon="6.79758">
        <ele>1771</ele>
        <time>2000-01-01T06:49:17.000Z</time>
      </trkpt>
      <trkpt lat="46.02874" lon="6.79735">
        <ele>1810.8</ele>
        <time>2000-01-01T06:49:27.000Z</time>
      </trkpt>
      <trkpt lat="46.02874" lon="6.79675">
        <ele>1765</ele>
        <time>2000-01-01T06:49:37.000Z</time>
      </trkpt>
      <trkpt lat="46.02879" lon="6.79656">
        <ele>1808.2</ele>
        <time>2000-01-01T06:49:47.000Z</time>
      </trkpt>
      <trkpt lat="46.02881" lon="6.79642">
        <ele>1760</ele>
        <time>2000-01-01T06:49:57.000Z</time>
      </trkpt>
      <trkpt lat="46.02872" lon="6.79644">
        <ele>1807.5</ele>
        <time>2000-01-01T06:50:07.000Z</time>
      </trkpt>
      <trkpt lat="46.02864" lon="6.79669">
        <ele>1752</ele>
        <time>2000-01-01T06:50:17.000Z</time>
      </trkpt>
      <trkpt lat="46.02851" lon="6.79701">
        <ele>1751</ele>
        <time>2000-01-01T06:50:27.000Z</time>
      </trkpt>
      <trkpt lat="46.02844" lon="6.79699">
        <ele>1810.6</ele>
        <time>2000-01-01T06:50:37.000Z</time>
      </trkpt>
      <trkpt lat="46.02849" lon="6.79677">
        <ele>1740</ele>
        <time>2000-01-01T06:50:47.000Z</time>
      </trkpt>
      <trkpt lat="46.02848" lon="6.79638">
        <ele>1734</ele>
        <time>2000-01-01T06:50:57.000Z</time>
      </trkpt>
      <trkpt lat="46.02846" lon="6.79585">
        <ele>1727</ele>
        <time>2000-01-01T06:51:07.000Z</time>
      </trkpt>
      <trkpt lat="46.02831" lon="6.79625">
        <ele>1727</ele>
        <time>2000-01-01T06:51:17.000Z</time>
      </trkpt>
      <trkpt lat="46.02828" lon="6.79619">
        <ele>1802.8</ele>
        <time>2000-01-01T06:51:27.000Z</time>
      </trkpt>
      <trkpt lat="46.0283" lon="6.79601">
        <ele>1801.1</ele>
        <time>2000-01-01T06:51:37.000Z</time>
      </trkpt>
      <trkpt lat="46.02824" lon="6.79573">
        <ele>1713</ele>
        <time>2000-01-01T06:51:47.000Z</time>
      </trkpt>
      <trkpt lat="46.02824" lon="6.79531">
        <ele>1707</ele>
        <time>2000-01-01T06:51:57.000Z</time>
      </trkpt>
      <trkpt lat="46.02828" lon="6.79519">
        <ele>1782.2</ele>
        <time>2000-01-01T06:52:07.000Z</time>
      </trkpt>
      <trkpt lat="46.02834" lon="6.79496">
        <ele>1706</ele>
        <time>2000-01-01T06:52:17.000Z</time>
      </trkpt>
      <trkpt lat="46.02827" lon="6.79496">
        <ele>1772.2</ele>
        <time>2000-01-01T06:52:27.000Z</time>
      </trkpt>
      <trkpt lat="46.02802" lon="6.79533">
        <ele>1698</ele>
        <time>2000-01-01T06:52:37.000Z</time>
      </trkpt>
      <trkpt lat="46.0279" lon="6.79548">
        <ele>1783.7</ele>
        <time>2000-01-01T06:52:47.000Z</time>
      </trkpt>
      <trkpt lat="46.02792" lon="6.79531">
        <ele>1692</ele>
        <time>2000-01-01T06:52:57.000Z</time>
      </trkpt>
      <trkpt lat="46.02798" lon="6.79517">
        <ele>1779.8</ele>
        <time>2000-01-01T06:53:07.000Z</time>
      </trkpt>
      <trkpt lat="46.02803" lon="6.79468">
        <ele>1683</ele>
        <time>2000-01-01T06:53:17.000Z</time>
      </trkpt>
      <trkpt lat="46.02808" lon="6.79432">
        <ele>1676</ele>
        <time>2000-01-01T06:53:27.000Z</time>
      </trkpt>
      <trkpt lat="46.02811" lon="6.79417">
        <ele>1743.2</ele>
        <time>2000-01-01T06:53:37.000Z</time>
      </trkpt>
      <trkpt lat="46.02809" lon="6.79377">
        <ele>1663</ele>
        <time>2000-01-01T06:53:47.000Z</time>
      </trkpt>
      <trkpt lat="46.0281" lon="6.79354">
        <ele>1703.4</ele>
        <time>2000-01-01T06:53:57.000Z</time>
      </trkpt>
      <trkpt lat="46.02807" lon="6.79306">
        <ele>1647</ele>
        <time>2000-01-01T06:54:07.000Z</time>
      </trkpt>
      <trkpt lat="46.02808" lon="6.7929">
        <ele>1660.1</ele>
        <time>2000-01-01T06:54:17.000Z</time>
      </trkpt>
      <trkpt lat="46.02807" lon="6.79272">
        <ele>1639</ele>
        <time>2000-01-01T06:54:27.000Z</time>
      </trkpt>
      <trkpt lat="46.02814" lon="6.79253">
        <ele>1654.3</ele>
        <time>2000-01-01T06:54:37.000Z</time>
      </trkpt>
      <trkpt lat="46.02825" lon="6.7923">
        <ele>1627</ele>
        <time>2000-01-01T06:54:47.000Z</time>
      </trkpt>
      <trkpt lat="46.0284" lon="6.79207">
        <ele>1625</ele>
        <time>2000-01-01T06:54:57.000Z</time>
      </trkpt>
      <trkpt lat="46.02858" lon="6.79183">
        <ele>1621</ele>
        <time>2000-01-01T06:55:07.000Z</time>
      </trkpt>
      <trkpt lat="46.02882" lon="6.79165">
        <ele>1618</ele>
        <time>2000-01-01T06:55:17.000Z</time>
      </trkpt>
      <trkpt lat="46.02916" lon="6.7914">
        <ele>1605</ele>
        <time>2000-01-01T06:55:27.000Z</time>
      </trkpt>
      <trkpt lat="46.02953" lon="6.79129">
        <ele>1604</ele>
        <time>2000-01-01T06:55:37.000Z</time>
      </trkpt>
      <trkpt lat="46.02976" lon="6.79117">
        <ele>1601</ele>
        <time>2000-01-01T06:55:47.000Z</time>
      </trkpt>
      <trkpt lat="46.02991" lon="6.79111">
        <ele>1616.2</ele>
        <time>2000-01-01T06:55:57.000Z</time>
      </trkpt>
      <trkpt lat="46.03015" lon="6.79094">
        <ele>1594</ele>
        <time>2000-01-01T06:56:07.000Z</time>
      </trkpt>
      <trkpt lat="46.03037" lon="6.7908">
        <ele>1585</ele>
        <time>2000-01-01T06:56:17.000Z</time>
      </trkpt>
      <trkpt lat="46.03058" lon="6.79059">
        <ele>1580</ele>
        <time>2000-01-01T06:56:27.000Z</time>
      </trkpt>
      <trkpt lat="46.03091" lon="6.79039">
        <ele>1576</ele>
        <time>2000-01-01T06:56:37.000Z</time>
      </trkpt>
      <trkpt lat="46.03091" lon="6.79031">
        <ele>1596.7</ele>
        <time>2000-01-01T06:56:47.000Z</time>
      </trkpt>
      <trkpt lat="46.03064" lon="6.79033">
        <ele>1570</ele>
        <time>2000-01-01T06:56:57.000Z</time>
      </trkpt>
      <trkpt lat="46.03041" lon="6.79036">
        <ele>1567</ele>
        <time>2000-01-01T06:57:07.000Z</time>
      </trkpt>
      <trkpt lat="46.03036" lon="6.79041">
        <ele>1587.5</ele>
        <time>2000-01-01T06:57:17.000Z</time>
      </trkpt>
      <trkpt lat="46.03023" lon="6.79043">
        <ele>1567</ele>
        <time>2000-01-01T06:57:27.000Z</time>
      </trkpt>
      <trkpt lat="46.02993" lon="6.79036">
        <ele>1560</ele>
        <time>2000-01-01T06:57:37.000Z</time>
      </trkpt>
      <trkpt lat="46.02966" lon="6.79033">
        <ele>1558</ele>
        <time>2000-01-01T06:57:47.000Z</time>
      </trkpt>
      <trkpt lat="46.02927" lon="6.79028">
        <ele>1549</ele>
        <time>2000-01-01T06:57:57.000Z</time>
      </trkpt>
      <trkpt lat="46.02927" lon="6.79019">
        <ele>1564</ele>
        <time>2000-01-01T06:58:07.000Z</time>
      </trkpt>
      <trkpt lat="46.02959" lon="6.79006">
        <ele>1540</ele>
        <time>2000-01-01T06:58:17.000Z</time>
      </trkpt>
      <trkpt lat="46.02982" lon="6.78988">
        <ele>1531</ele>
        <time>2000-01-01T06:58:27.000Z</time>
      </trkpt>
      <trkpt lat="46.03009" lon="6.78967">
        <ele>1525</ele>
        <time>2000-01-01T06:58:37.000Z</time>
      </trkpt>
      <trkpt lat="46.03034" lon="6.78944">
        <ele>1519</ele>
        <time>2000-01-01T06:58:47.000Z</time>
      </trkpt>
      <trkpt lat="46.03064" lon="6.78915">
        <ele>1510</ele>
        <time>2000-01-01T06:58:57.000Z</time>
      </trkpt>
      <trkpt lat="46.03062" lon="6.7891">
        <ele>1515.7</ele>
        <time>2000-01-01T06:59:07.000Z</time>
      </trkpt>
      <trkpt lat="46.03024" lon="6.78915">
        <ele>1503</ele>
        <time>2000-01-01T06:59:17.000Z</time>
      </trkpt>
      <trkpt lat="46.03012" lon="6.78921">
        <ele>1526.4</ele>
        <time>2000-01-01T06:59:27.000Z</time>
      </trkpt>
      <trkpt lat="46.03011" lon="6.78912">
        <ele>1501</ele>
        <time>2000-01-01T06:59:37.000Z</time>
      </trkpt>
      <trkpt lat="46.03041" lon="6.78889">
        <ele>1493</ele>
        <time>2000-01-01T06:59:47.000Z</time>
      </trkpt>
      <trkpt lat="46.03056" lon="6.78872">
        <ele>1490</ele>
        <time>2000-01-01T06:59:57.000Z</time>
      </trkpt>
      <trkpt lat="46.0307" lon="6.78864">
        <ele>1501.7</ele>
        <time>2000-01-01T07:00:07.000Z</time>
      </trkpt>
      <trkpt lat="46.03092" lon="6.78856">
        <ele>1485</ele>
        <time>2000-01-01T07:00:17.000Z</time>
      </trkpt>
      <trkpt lat="46.0311" lon="6.78848">
        <ele>1481</ele>
        <time>2000-01-01T07:00:27.000Z</time>
      </trkpt>
      <trkpt lat="46.0312" lon="6.78833">
        <ele>1482.3</ele>
        <time>2000-01-01T07:00:37.000Z</time>
      </trkpt>
      <trkpt lat="46.03135" lon="6.78828">
        <ele>1474</ele>
        <time>2000-01-01T07:00:47.000Z</time>
      </trkpt>
      <trkpt lat="46.03146" lon="6.78821">
        <ele>1485.1</ele>
        <time>2000-01-01T07:00:57.000Z</time>
      </trkpt>
      <trkpt lat="46.03164" lon="6.78801">
        <ele>1466</ele>
        <time>2000-01-01T07:01:07.000Z</time>
      </trkpt>
      <trkpt lat="46.03173" lon="6.7879">
        <ele>1485.9</ele>
        <time>2000-01-01T07:01:17.000Z</time>
      </trkpt>
      <trkpt lat="46.03215" lon="6.78768">
        <ele>1461</ele>
        <time>2000-01-01T07:01:27.000Z</time>
      </trkpt>
      <trkpt lat="46.03237" lon="6.78758">
        <ele>1456</ele>
        <time>2000-01-01T07:01:37.000Z</time>
      </trkpt>
      <trkpt lat="46.03243" lon="6.78741">
        <ele>1469</ele>
        <time>2000-01-01T07:01:47.000Z</time>
      </trkpt>
      <trkpt lat="46.03231" lon="6.78736">
        <ele>1448</ele>
        <time>2000-01-01T07:01:57.000Z</time>
      </trkpt>
      <trkpt lat="46.03199" lon="6.78739">
        <ele>1438</ele>
        <time>2000-01-01T07:02:07.000Z</time>
      </trkpt>
      <trkpt lat="46.03164" lon="6.78738">
        <ele>1434</ele>
        <time>2000-01-01T07:02:17.000Z</time>
      </trkpt>
      <trkpt lat="46.03136" lon="6.78728">
        <ele>1429</ele>
        <time>2000-01-01T07:02:27.000Z</time>
      </trkpt>
      <trkpt lat="46.03092" lon="6.78711">
        <ele>1421</ele>
        <time>2000-01-01T07:02:37.000Z</time>
      </trkpt>
      <trkpt lat="46.03083" lon="6.78706">
        <ele>1429.7</ele>
        <time>2000-01-01T07:02:47.000Z</time>
      </trkpt>
      <trkpt lat="46.03084" lon="6.78692">
        <ele>1413</ele>
        <time>2000-01-01T07:02:57.000Z</time>
      </trkpt>
      <trkpt lat="46.03089" lon="6.7868">
        <ele>1426.2</ele>
        <time>2000-01-01T07:03:07.000Z</time>
      </trkpt>
      <trkpt lat="46.03101" lon="6.78674">
        <ele>1406</ele>
        <time>2000-01-01T07:03:17.000Z</time>
      </trkpt>
      <trkpt lat="46.03125" lon="6.78668">
        <ele>1406</ele>
        <time>2000-01-01T07:03:27.000Z</time>
      </trkpt>
      <trkpt lat="46.03152" lon="6.78662">
        <ele>1406</ele>
        <time>2000-01-01T07:03:37.000Z</time>
      </trkpt>
      <trkpt lat="46.0316" lon="6.78656">
        <ele>1415.9</ele>
        <time>2000-01-01T07:03:47.000Z</time>
      </trkpt>
      <trkpt lat="46.0316" lon="6.78645">
        <ele>1412</ele>
        <time>2000-01-01T07:03:57.000Z</time>
      </trkpt>
      <trkpt lat="46.03145" lon="6.78639">
        <ele>1395</ele>
        <time>2000-01-01T07:04:07.000Z</time>
      </trkpt>
      <trkpt lat="46.03125" lon="6.7864">
        <ele>1392</ele>
        <time>2000-01-01T07:04:17.000Z</time>
      </trkpt>
      <trkpt lat="46.03085" lon="6.7864">
        <ele>1387</ele>
        <time>2000-01-01T07:04:27.000Z</time>
      </trkpt>
      <trkpt lat="46.03059" lon="6.78639">
        <ele>1383</ele>
        <time>2000-01-01T07:04:37.000Z</time>
      </trkpt>
      <trkpt lat="46.03026" lon="6.7864">
        <ele>1378</ele>
        <time>2000-01-01T07:04:47.000Z</time>
      </trkpt>
      <trkpt lat="46.03023" lon="6.78635">
        <ele>1393.6</ele>
        <time>2000-01-01T07:04:57.000Z</time>
      </trkpt>
      <trkpt lat="46.03035" lon="6.78623">
        <ele>1374</ele>
        <time>2000-01-01T07:05:07.000Z</time>
      </trkpt>
      <trkpt lat="46.03042" lon="6.78619">
        <ele>1392.2</ele>
        <time>2000-01-01T07:05:17.000Z</time>
      </trkpt>
      <trkpt lat="46.0305" lon="6.78602">
        <ele>1369</ele>
        <time>2000-01-01T07:05:27.000Z</time>
      </trkpt>
      <trkpt lat="46.03057" lon="6.78594">
        <ele>1389.7</ele>
        <time>2000-01-01T07:05:37.000Z</time>
      </trkpt>
      <trkpt lat="46.03082" lon="6.78585">
        <ele>1366</ele>
        <time>2000-01-01T07:05:47.000Z</time>
      </trkpt>
      <trkpt lat="46.03099" lon="6.78551">
        <ele>1357</ele>
        <time>2000-01-01T07:05:57.000Z</time>
      </trkpt>
      <trkpt lat="46.03115" lon="6.78538">
        <ele>1371.2</ele>
        <time>2000-01-01T07:06:07.000Z</time>
      </trkpt>
      <trkpt lat="46.03149" lon="6.78496">
        <ele>1345</ele>
        <time>2000-01-01T07:06:17.000Z</time>
      </trkpt>
      <trkpt lat="46.03167" lon="6.78481">
        <ele>1344</ele>
        <time>2000-01-01T07:06:27.000Z</time>
      </trkpt>
      <trkpt lat="46.03199" lon="6.78465">
        <ele>1337</ele>
        <time>2000-01-01T07:06:37.000Z</time>
      </trkpt>
      <trkpt lat="46.03225" lon="6.78442">
        <ele>1334</ele>
        <time>2000-01-01T07:06:47.000Z</time>
      </trkpt>
      <trkpt lat="46.03231" lon="6.78428">
        <ele>1351.2</ele>
        <time>2000-01-01T07:06:57.000Z</time>
      </trkpt>
      <trkpt lat="46.03231" lon="6.78394">
        <ele>1324</ele>
        <time>2000-01-01T07:07:07.000Z</time>
      </trkpt>
      <trkpt lat="46.03233" lon="6.78351">
        <ele>1316</ele>
        <time>2000-01-01T07:07:17.000Z</time>
      </trkpt>
      <trkpt lat="46.03241" lon="6.78318">
        <ele>1307</ele>
        <time>2000-01-01T07:07:27.000Z</time>
      </trkpt>
      <trkpt lat="46.03237" lon="6.78306">
        <ele>1304.4</ele>
        <time>2000-01-01T07:07:37.000Z</time>
      </trkpt>
      <trkpt lat="46.0322" lon="6.78317">
        <ele>1306</ele>
        <time>2000-01-01T07:07:47.000Z</time>
      </trkpt>
      <trkpt lat="46.03202" lon="6.78364">
        <ele>1305</ele>
        <time>2000-01-01T07:07:57.000Z</time>
      </trkpt>
      <trkpt lat="46.03186" lon="6.78366">
        <ele>1318</ele>
        <time>2000-01-01T07:08:07.000Z</time>
      </trkpt>
      <trkpt lat="46.03167" lon="6.78362">
        <ele>1294</ele>
        <time>2000-01-01T07:08:17.000Z</time>
      </trkpt>
      <trkpt lat="46.03128" lon="6.78362">
        <ele>1290</ele>
        <time>2000-01-01T07:08:27.000Z</time>
      </trkpt>
      <trkpt lat="46.03114" lon="6.78364">
        <ele>1300.9</ele>
        <time>2000-01-01T07:08:37.000Z</time>
      </trkpt>
      <trkpt lat="46.03107" lon="6.78356">
        <ele>1285</ele>
        <time>2000-01-01T07:08:47.000Z</time>
      </trkpt>
      <trkpt lat="46.031" lon="6.7834">
        <ele>1291.8</ele>
        <time>2000-01-01T07:08:57.000Z</time>
      </trkpt>
      <trkpt lat="46.03083" lon="6.78337">
        <ele>1276</ele>
        <time>2000-01-01T07:09:07.000Z</time>
      </trkpt>
      <trkpt lat="46.03068" lon="6.78344">
        <ele>1284.2</ele>
        <time>2000-01-01T07:09:17.000Z</time>
      </trkpt>
      <trkpt lat="46.03039" lon="6.78356">
        <ele>1270</ele>
        <time>2000-01-01T07:09:27.000Z</time>
      </trkpt>
      <trkpt lat="46.03008" lon="6.78364">
        <ele>1266</ele>
        <time>2000-01-01T07:09:37.000Z</time>
      </trkpt>
      <trkpt lat="46.0298" lon="6.78356">
        <ele>1262</ele>
        <time>2000-01-01T07:09:47.000Z</time>
      </trkpt>
      <trkpt lat="46.02961" lon="6.78373">
        <ele>1259</ele>
        <time>2000-01-01T07:09:57.000Z</time>
      </trkpt>
      <trkpt lat="46.02959" lon="6.7836">
        <ele>1269.7</ele>
        <time>2000-01-01T07:10:07.000Z</time>
      </trkpt>
      <trkpt lat="46.02969" lon="6.7834">
        <ele>1244</ele>
        <time>2000-01-01T07:10:17.000Z</time>
      </trkpt>
      <trkpt lat="46.02984" lon="6.78332">
        <ele>1253.5</ele>
        <time>2000-01-01T07:10:27.000Z</time>
      </trkpt>
      <trkpt lat="46.03008" lon="6.78305">
        <ele>1244</ele>
        <time>2000-01-01T07:10:37.000Z</time>
      </trkpt>
      <trkpt lat="46.03034" lon="6.78274">
        <ele>1241</ele>
        <time>2000-01-01T07:10:47.000Z</time>
      </trkpt>
      <trkpt lat="46.03045" lon="6.78252">
        <ele>1238</ele>
        <time>2000-01-01T07:10:57.000Z</time>
      </trkpt>
      <trkpt lat="46.0305" lon="6.78224">
        <ele>1228</ele>
        <time>2000-01-01T07:11:07.000Z</time>
      </trkpt>
      <trkpt lat="46.0306" lon="6.78205">
        <ele>1232.5</ele>
        <time>2000-01-01T07:11:17.000Z</time>
      </trkpt>
      <trkpt lat="46.03086" lon="6.78182">
        <ele>1223</ele>
        <time>2000-01-01T07:11:27.000Z</time>
      </trkpt>
      <trkpt lat="46.03095" lon="6.78173">
        <ele>1239.5</ele>
        <time>2000-01-01T07:11:37.000Z</time>
      </trkpt>
      <trkpt lat="46.03105" lon="6.78153">
        <ele>1217</ele>
        <time>2000-01-01T07:11:47.000Z</time>
      </trkpt>
      <trkpt lat="46.03115" lon="6.78148">
        <ele>1230.4</ele>
        <time>2000-01-01T07:11:57.000Z</time>
      </trkpt>
      <trkpt lat="46.03125" lon="6.78134">
        <ele>1215</ele>
        <time>2000-01-01T07:12:07.000Z</time>
      </trkpt>
      <trkpt lat="46.03133" lon="6.78081">
        <ele>1205</ele>
        <time>2000-01-01T07:12:17.000Z</time>
      </trkpt>
      <trkpt lat="46.03137" lon="6.78066">
        <ele>1208.9</ele>
        <time>2000-01-01T07:12:27.000Z</time>
      </trkpt>
      <trkpt lat="46.03148" lon="6.7805">
        <ele>1201</ele>
        <time>2000-01-01T07:12:37.000Z</time>
      </trkpt>
      <trkpt lat="46.03178" lon="6.78042">
        <ele>1197</ele>
        <time>2000-01-01T07:12:47.000Z</time>
      </trkpt>
      <trkpt lat="46.03199" lon="6.78032">
        <ele>1196</ele>
        <time>2000-01-01T07:12:57.000Z</time>
      </trkpt>
      <trkpt lat="46.03212" lon="6.7802">
        <ele>1215.6</ele>
        <time>2000-01-01T07:13:07.000Z</time>
      </trkpt>
      <trkpt lat="46.0323" lon="6.77992">
        <ele>1182</ele>
        <time>2000-01-01T07:13:17.000Z</time>
      </trkpt>
      <trkpt lat="46.03222" lon="6.7798">
        <ele>1196.7</ele>
        <time>2000-01-01T07:13:27.000Z</time>
      </trkpt>
      <trkpt lat="46.03206" lon="6.77973">
        <ele>1174</ele>
        <time>2000-01-01T07:13:37.000Z</time>
      </trkpt>
      <trkpt lat="46.03164" lon="6.7798">
        <ele>1171</ele>
        <time>2000-01-01T07:13:47.000Z</time>
      </trkpt>
      <trkpt lat="46.03146" lon="6.77973">
        <ele>1181.6</ele>
        <time>2000-01-01T07:13:57.000Z</time>
      </trkpt>
      <trkpt lat="46.03125" lon="6.77961">
        <ele>1160</ele>
        <time>2000-01-01T07:14:07.000Z</time>
      </trkpt>
      <trkpt lat="46.03111" lon="6.77961">
        <ele>1175.9</ele>
        <time>2000-01-01T07:14:17.000Z</time>
      </trkpt>
      <trkpt lat="46.03103" lon="6.77973">
        <ele>1158</ele>
        <time>2000-01-01T07:14:27.000Z</time>
      </trkpt>
      <trkpt lat="46.03093" lon="6.77991">
        <ele>1180.4</ele>
        <time>2000-01-01T07:14:37.000Z</time>
      </trkpt>
      <trkpt lat="46.03072" lon="6.77999">
        <ele>1155</ele>
        <time>2000-01-01T07:14:47.000Z</time>
      </trkpt>
      <trkpt lat="46.0306" lon="6.78009">
        <ele>1181.3</ele>
        <time>2000-01-01T07:14:57.000Z</time>
      </trkpt>
      <trkpt lat="46.03044" lon="6.78006">
        <ele>1149</ele>
        <time>2000-01-01T07:15:07.000Z</time>
      </trkpt>
      <trkpt lat="46.03014" lon="6.78002">
        <ele>1139</ele>
        <time>2000-01-01T07:15:17.000Z</time>
      </trkpt>
      <trkpt lat="46.02991" lon="6.78012">
        <ele>1134</ele>
        <time>2000-01-01T07:15:27.000Z</time>
      </trkpt>
      <trkpt lat="46.02974" lon="6.78041">
        <ele>1134</ele>
        <time>2000-01-01T07:15:37.000Z</time>
      </trkpt>
      <trkpt lat="46.02946" lon="6.78065">
        <ele>1129</ele>
        <time>2000-01-01T07:15:47.000Z</time>
      </trkpt>
      <trkpt lat="46.02911" lon="6.78087">
        <ele>1128</ele>
        <time>2000-01-01T07:15:57.000Z</time>
      </trkpt>
      <trkpt lat="46.029" lon="6.78091">
        <ele>1152.3</ele>
        <time>2000-01-01T07:16:07.000Z</time>
      </trkpt>
      <trkpt lat="46.02881" lon="6.78074">
        <ele>1119</ele>
        <time>2000-01-01T07:16:17.000Z</time>
      </trkpt>
      <trkpt lat="46.02871" lon="6.78066">
        <ele>1130.8</ele>
        <time>2000-01-01T07:16:27.000Z</time>
      </trkpt>
      <trkpt lat="46.0286" lon="6.78062">
        <ele>1110</ele>
        <time>2000-01-01T07:16:37.000Z</time>
      </trkpt>
      <trkpt lat="46.0283" lon="6.78063">
        <ele>1101</ele>
        <time>2000-01-01T07:16:47.000Z</time>
      </trkpt>
      <trkpt lat="46.02827" lon="6.78059">
        <ele>1112.9</ele>
        <time>2000-01-01T07:16:57.000Z</time>
      </trkpt>
      <trkpt lat="46.02829" lon="6.78045">
        <ele>1108.6</ele>
        <time>2000-01-01T07:17:07.000Z</time>
      </trkpt>
      <trkpt lat="46.02858" lon="6.78009">
        <ele>1096</ele>
        <time>2000-01-01T07:17:17.000Z</time>
      </trkpt>
      <trkpt lat="46.02875" lon="6.77992">
        <ele>1092</ele>
        <time>2000-01-01T07:17:27.000Z</time>
      </trkpt>
      <trkpt lat="46.02879" lon="6.77976">
        <ele>1106.3</ele>
        <time>2000-01-01T07:17:37.000Z</time>
      </trkpt>
      <trkpt lat="46.02889" lon="6.77955">
        <ele>1082</ele>
        <time>2000-01-01T07:17:47.000Z</time>
      </trkpt>
      <trkpt lat="46.02897" lon="6.77931">
        <ele>1103.6</ele>
        <time>2000-01-01T07:17:57.000Z</time>
      </trkpt>
      <trkpt lat="46.02919" lon="6.77902">
        <ele>1079</ele>
        <time>2000-01-01T07:18:07.000Z</time>
      </trkpt>
      <trkpt lat="46.0292" lon="6.77873">
        <ele>1071</ele>
        <time>2000-01-01T07:18:17.000Z</time>
      </trkpt>
      <trkpt lat="46.02928" lon="6.77848">
        <ele>1067</ele>
        <time>2000-01-01T07:18:27.000Z</time>
      </trkpt>
      <trkpt lat="46.02938" lon="6.77833">
        <ele>1079.7</ele>
        <time>2000-01-01T07:18:37.000Z</time>
      </trkpt>
      <trkpt lat="46.02982" lon="6.77794">
        <ele>1067</ele>
        <time>2000-01-01T07:18:47.000Z</time>
      </trkpt>
      <trkpt lat="46.02961" lon="6.77794">
        <ele>1062</ele>
        <time>2000-01-01T07:18:57.000Z</time>
      </trkpt>
      <trkpt lat="46.02941" lon="6.77801">
        <ele>1060</ele>
        <time>2000-01-01T07:19:07.000Z</time>
      </trkpt>
      <trkpt lat="46.02914" lon="6.77829">
        <ele>1060</ele>
        <time>2000-01-01T07:19:17.000Z</time>
      </trkpt>
      <trkpt lat="46.02884" lon="6.77871">
        <ele>1060</ele>
        <time>2000-01-01T07:19:27.000Z</time>
      </trkpt>
      <trkpt lat="46.02856" lon="6.77896">
        <ele>1053</ele>
        <time>2000-01-01T07:19:37.000Z</time>
      </trkpt>
      <trkpt lat="46.02839" lon="6.77919">
        <ele>1053</ele>
        <time>2000-01-01T07:19:47.000Z</time>
      </trkpt>
      <trkpt lat="46.02825" lon="6.7794">
        <ele>1055</ele>
        <time>2000-01-01T07:19:57.000Z</time>
      </trkpt>
      <trkpt lat="46.02794" lon="6.77983">
        <ele>1058</ele>
        <time>2000-01-01T07:20:07.000Z</time>
      </trkpt>
      <trkpt lat="46.02774" lon="6.78006">
        <ele>1058</ele>
        <time>2000-01-01T07:20:17.000Z</time>
      </trkpt>
      <trkpt lat="46.02748" lon="6.78035">
        <ele>1057</ele>
        <time>2000-01-01T07:20:27.000Z</time>
      </trkpt>
      <trkpt lat="46.02726" lon="6.78049">
        <ele>1056</ele>
        <time>2000-01-01T07:20:37.000Z</time>
      </trkpt>
      <trkpt lat="46.02706" lon="6.78071">
        <ele>1056</ele>
        <time>2000-01-01T07:20:47.000Z</time>
      </trkpt>
      <trkpt lat="46.02687" lon="6.78097">
        <ele>1059</ele>
        <time>2000-01-01T07:20:57.000Z</time>
      </trkpt>
      <trkpt lat="46.02669" lon="6.78114">
        <ele>1057</ele>
        <time>2000-01-01T07:21:07.000Z</time>
      </trkpt>
      <trkpt lat="46.0264" lon="6.78134">
        <ele>1059</ele>
        <time>2000-01-01T07:21:17.000Z</time>
      </trkpt>
      <trkpt lat="46.02623" lon="6.78152">
        <ele>1061</ele>
        <time>2000-01-01T07:21:27.000Z</time>
      </trkpt>
      <trkpt lat="46.02612" lon="6.78178">
        <ele>1064</ele>
        <time>2000-01-01T07:21:37.000Z</time>
      </trkpt>
      <trkpt lat="46.02591" lon="6.78224">
        <ele>1066</ele>
        <time>2000-01-01T07:21:47.000Z</time>
      </trkpt>
      <trkpt lat="46.02581" lon="6.78234">
        <ele>1088.6</ele>
        <time>2000-01-01T07:21:57.000Z</time>
      </trkpt>
      <trkpt lat="46.0256" lon="6.78246">
        <ele>1068</ele>
        <time>2000-01-01T07:22:07.000Z</time>
      </trkpt>
      <trkpt lat="46.02548" lon="6.78261">
        <ele>1095.7</ele>
        <time>2000-01-01T07:22:17.000Z</time>
      </trkpt>
      <trkpt lat="46.0254" lon="6.78287">
        <ele>1074</ele>
        <time>2000-01-01T07:22:27.000Z</time>
      </trkpt>
      <trkpt lat="46.02525" lon="6.78323">
        <ele>1077</ele>
        <time>2000-01-01T07:22:37.000Z</time>
      </trkpt>
      <trkpt lat="46.02502" lon="6.78349">
        <ele>1080</ele>
        <time>2000-01-01T07:22:47.000Z</time>
      </trkpt>
      <trkpt lat="46.02491" lon="6.78356">
        <ele>1094.3</ele>
        <time>2000-01-01T07:22:57.000Z</time>
      </trkpt>
      <trkpt lat="46.02463" lon="6.78392">
        <ele>1080</ele>
        <time>2000-01-01T07:23:07.000Z</time>
      </trkpt>
      <trkpt lat="46.02442" lon="6.7843">
        <ele>1083</ele>
        <time>2000-01-01T07:23:17.000Z</time>
      </trkpt>
      <trkpt lat="46.02424" lon="6.78457">
        <ele>1084</ele>
        <time>2000-01-01T07:23:27.000Z</time>
      </trkpt>
      <trkpt lat="46.024" lon="6.78491">
        <ele>1084</ele>
        <time>2000-01-01T07:23:37.000Z</time>
      </trkpt>
      <trkpt lat="46.02372" lon="6.78535">
        <ele>1087</ele>
        <time>2000-01-01T07:23:47.000Z</time>
      </trkpt>
      <trkpt lat="46.02354" lon="6.78568">
        <ele>1091</ele>
        <time>2000-01-01T07:23:57.000Z</time>
      </trkpt>
      <trkpt lat="46.0234" lon="6.78595">
        <ele>1093</ele>
        <time>2000-01-01T07:24:07.000Z</time>
      </trkpt>
      <trkpt lat="46.02326" lon="6.78622">
        <ele>1100</ele>
        <time>2000-01-01T07:24:17.000Z</time>
      </trkpt>
      <trkpt lat="46.02309" lon="6.78645">
        <ele>1100</ele>
        <time>2000-01-01T07:24:27.000Z</time>
      </trkpt>
      <trkpt lat="46.02287" lon="6.7869">
        <ele>1102</ele>
        <time>2000-01-01T07:24:37.000Z</time>
      </trkpt>
      <trkpt lat="46.02285" lon="6.78734">
        <ele>1105</ele>
        <time>2000-01-01T07:24:47.000Z</time>
      </trkpt>
      <trkpt lat="46.02265" lon="6.78768">
        <ele>1105</ele>
        <time>2000-01-01T07:24:57.000Z</time>
      </trkpt>
      <trkpt lat="46.02256" lon="6.788">
        <ele>1105</ele>
        <time>2000-01-01T07:25:07.000Z</time>
      </trkpt>
      <trkpt lat="46.02251" lon="6.78841">
        <ele>1107</ele>
        <time>2000-01-01T07:25:17.000Z</time>
      </trkpt>
      <trkpt lat="46.02249" lon="6.78883">
        <ele>1109</ele>
        <time>2000-01-01T07:25:27.000Z</time>
      </trkpt>
      <trkpt lat="46.02254" lon="6.78929">
        <ele>1118</ele>
        <time>2000-01-01T07:25:37.000Z</time>
      </trkpt>
      <trkpt lat="46.02253" lon="6.78983">
        <ele>1119</ele>
        <time>2000-01-01T07:25:47.000Z</time>
      </trkpt>
      <trkpt lat="46.02249" lon="6.79015">
        <ele>1121</ele>
        <time>2000-01-01T07:25:57.000Z</time>
      </trkpt>
      <trkpt lat="46.0225" lon="6.79048">
        <ele>1126</ele>
        <time>2000-01-01T07:26:07.000Z</time>
      </trkpt>
      <trkpt lat="46.02254" lon="6.79097">
        <ele>1141</ele>
        <time>2000-01-01T07:26:17.000Z</time>
      </trkpt>
      <trkpt lat="46.02259" lon="6.79134">
        <ele>1147</ele>
        <time>2000-01-01T07:26:27.000Z</time>
      </trkpt>
      <trkpt lat="46.02263" lon="6.79173">
        <ele>1162</ele>
        <time>2000-01-01T07:26:37.000Z</time>
      </trkpt>
      <trkpt lat="46.02263" lon="6.79212">
        <ele>1168</ele>
        <time>2000-01-01T07:26:47.000Z</time>
      </trkpt>
      <trkpt lat="46.02262" lon="6.79247">
        <ele>1172</ele>
        <time>2000-01-01T07:26:57.000Z</time>
      </trkpt>
      <trkpt lat="46.02292" lon="6.79253">
        <ele>1188</ele>
        <time>2000-01-01T07:27:07.000Z</time>
      </trkpt>
      <trkpt lat="46.02311" lon="6.79274">
        <ele>1189</ele>
        <time>2000-01-01T07:27:17.000Z</time>
      </trkpt>
      <trkpt lat="46.02304" lon="6.79298">
        <ele>1172.8</ele>
        <time>2000-01-01T07:27:27.000Z</time>
      </trkpt>
      <trkpt lat="46.0228" lon="6.7934">
        <ele>1191</ele>
        <time>2000-01-01T07:27:37.000Z</time>
      </trkpt>
      <trkpt lat="46.0227" lon="6.79368">
        <ele>1191</ele>
        <time>2000-01-01T07:27:47.000Z</time>
      </trkpt>
      <trkpt lat="46.02273" lon="6.79406">
        <ele>1199</ele>
        <time>2000-01-01T07:27:57.000Z</time>
      </trkpt>
      <trkpt lat="46.02283" lon="6.79424">
        <ele>1199.1</ele>
        <time>2000-01-01T07:28:07.000Z</time>
      </trkpt>
      <trkpt lat="46.02298" lon="6.7944">
        <ele>1205</ele>
        <time>2000-01-01T07:28:17.000Z</time>
      </trkpt>
      <trkpt lat="46.02297" lon="6.79455">
        <ele>1201.5</ele>
        <time>2000-01-01T07:28:27.000Z</time>
      </trkpt>
      <trkpt lat="46.02288" lon="6.7947">
        <ele>1211</ele>
        <time>2000-01-01T07:28:37.000Z</time>
      </trkpt>
      <trkpt lat="46.02282" lon="6.79501">
        <ele>1220</ele>
        <time>2000-01-01T07:28:47.000Z</time>
      </trkpt>
      <trkpt lat="46.02281" lon="6.79542">
        <ele>1223</ele>
        <time>2000-01-01T07:28:57.000Z</time>
      </trkpt>
      <trkpt lat="46.02276" lon="6.79587">
        <ele>1224</ele>
        <time>2000-01-01T07:29:07.000Z</time>
      </trkpt>
      <trkpt lat="46.02278" lon="6.7963">
        <ele>1226</ele>
        <time>2000-01-01T07:29:17.000Z</time>
      </trkpt>
      <trkpt lat="46.02283" lon="6.79661">
        <ele>1231</ele>
        <time>2000-01-01T07:29:27.000Z</time>
      </trkpt>
      <trkpt lat="46.02294" lon="6.79679">
        <ele>1232.4</ele>
        <time>2000-01-01T07:29:37.000Z</time>
      </trkpt>
      <trkpt lat="46.02295" lon="6.79707">
        <ele>1237</ele>
        <time>2000-01-01T07:29:47.000Z</time>
      </trkpt>
      <trkpt lat="46.02293" lon="6.7974">
        <ele>1237</ele>
        <time>2000-01-01T07:29:57.000Z</time>
      </trkpt>
      <trkpt lat="46.02296" lon="6.79769">
        <ele>1237</ele>
        <time>2000-01-01T07:30:07.000Z</time>
      </trkpt>
      <trkpt lat="46.02295" lon="6.79794">
        <ele>1253.8</ele>
        <time>2000-01-01T07:30:17.000Z</time>
      </trkpt>
      <trkpt lat="46.02312" lon="6.79854">
        <ele>1243</ele>
        <time>2000-01-01T07:30:27.000Z</time>
      </trkpt>
      <trkpt lat="46.02301" lon="6.79865">
        <ele>1272.8</ele>
        <time>2000-01-01T07:30:37.000Z</time>
      </trkpt>
      <trkpt lat="46.02287" lon="6.79875">
        <ele>1249</ele>
        <time>2000-01-01T07:30:47.000Z</time>
      </trkpt>
      <trkpt lat="46.02276" lon="6.79891">
        <ele>1271.1</ele>
        <time>2000-01-01T07:30:57.000Z</time>
      </trkpt>
      <trkpt lat="46.02273" lon="6.79914">
        <ele>1253</ele>
        <time>2000-01-01T07:31:07.000Z</time>
      </trkpt>
      <trkpt lat="46.02275" lon="6.79949">
        <ele>1259</ele>
        <time>2000-01-01T07:31:17.000Z</time>
      </trkpt>
      <trkpt lat="46.02274" lon="6.79968">
        <ele>1286.2</ele>
        <time>2000-01-01T07:31:27.000Z</time>
      </trkpt>
      <trkpt lat="46.02267" lon="6.79992">
        <ele>1265</ele>
        <time>2000-01-01T07:31:37.000Z</time>
      </trkpt>
      <trkpt lat="46.02259" lon="6.8001">
        <ele>1286.7</ele>
        <time>2000-01-01T07:31:47.000Z</time>
      </trkpt>
      <trkpt lat="46.02253" lon="6.80032">
        <ele>1265</ele>
        <time>2000-01-01T07:31:57.000Z</time>
      </trkpt>
      <trkpt lat="46.0226" lon="6.80062">
        <ele>1266</ele>
        <time>2000-01-01T07:32:07.000Z</time>
      </trkpt>
      <trkpt lat="46.0227" lon="6.80069">
        <ele>1290.8</ele>
        <time>2000-01-01T07:32:17.000Z</time>
      </trkpt>
      <trkpt lat="46.02276" lon="6.80078">
        <ele>1269</ele>
        <time>2000-01-01T07:32:27.000Z</time>
      </trkpt>
      <trkpt lat="46.02275" lon="6.80088">
        <ele>1292.9</ele>
        <time>2000-01-01T07:32:37.000Z</time>
      </trkpt>
      <trkpt lat="46.02264" lon="6.80101">
        <ele>1265</ele>
        <time>2000-01-01T07:32:47.000Z</time>
      </trkpt>
      <trkpt lat="46.02259" lon="6.80127">
        <ele>1262</ele>
        <time>2000-01-01T07:32:57.000Z</time>
      </trkpt>
      <trkpt lat="46.02253" lon="6.80171">
        <ele>1262</ele>
        <time>2000-01-01T07:33:07.000Z</time>
      </trkpt>
      <trkpt lat="46.02255" lon="6.80222">
        <ele>1262</ele>
        <time>2000-01-01T07:33:17.000Z</time>
      </trkpt>
      <trkpt lat="46.02258" lon="6.80269">
        <ele>1260</ele>
        <time>2000-01-01T07:33:27.000Z</time>
      </trkpt>
      <trkpt lat="46.02259" lon="6.80298">
        <ele>1264</ele>
        <time>2000-01-01T07:33:37.000Z</time>
      </trkpt>
      <trkpt lat="46.0227" lon="6.80316">
        <ele>1288.7</ele>
        <time>2000-01-01T07:33:47.000Z</time>
      </trkpt>
      <trkpt lat="46.02279" lon="6.80388">
        <ele>1269</ele>
        <time>2000-01-01T07:33:57.000Z</time>
      </trkpt>
      <trkpt lat="46.02281" lon="6.80429">
        <ele>1269</ele>
        <time>2000-01-01T07:34:07.000Z</time>
      </trkpt>
      <trkpt lat="46.02283" lon="6.80454">
        <ele>1289.3</ele>
        <time>2000-01-01T07:34:17.000Z</time>
      </trkpt>
      <trkpt lat="46.02278" lon="6.80465">
        <ele>1269</ele>
        <time>2000-01-01T07:34:27.000Z</time>
      </trkpt>
      <trkpt lat="46.02266" lon="6.80471">
        <ele>1289.1</ele>
        <time>2000-01-01T07:34:37.000Z</time>
      </trkpt>
      <trkpt lat="46.02257" lon="6.80493">
        <ele>1265</ele>
        <time>2000-01-01T07:34:47.000Z</time>
      </trkpt>
      <trkpt lat="46.02254" lon="6.80517">
        <ele>1285.4</ele>
        <time>2000-01-01T07:34:57.000Z</time>
      </trkpt>
      <trkpt lat="46.02258" lon="6.8054">
        <ele>1266</ele>
        <time>2000-01-01T07:35:07.000Z</time>
      </trkpt>
      <trkpt lat="46.02258" lon="6.80561">
        <ele>1280</ele>
        <time>2000-01-01T07:35:17.000Z</time>
      </trkpt>
      <trkpt lat="46.02247" lon="6.80576">
        <ele>1268</ele>
        <time>2000-01-01T07:35:27.000Z</time>
      </trkpt>
      <trkpt lat="46.02237" lon="6.80596">
        <ele>1285.3</ele>
        <time>2000-01-01T07:35:37.000Z</time>
      </trkpt>
      <trkpt lat="46.02229" lon="6.80642">
        <ele>1271</ele>
        <time>2000-01-01T07:35:47.000Z</time>
      </trkpt>
      <trkpt lat="46.02235" lon="6.80664">
        <ele>1287.5</ele>
        <time>2000-01-01T07:35:57.000Z</time>
      </trkpt>
      <trkpt lat="46.02241" lon="6.80678">
        <ele>1274</ele>
        <time>2000-01-01T07:36:07.000Z</time>
      </trkpt>
      <trkpt lat="46.02231" lon="6.80719">
        <ele>1275</ele>
        <time>2000-01-01T07:36:17.000Z</time>
      </trkpt>
      <trkpt lat="46.02209" lon="6.80713">
        <ele>1277</ele>
        <time>2000-01-01T07:36:27.000Z</time>
      </trkpt>
      <trkpt lat="46.02202" lon="6.80717">
        <ele>1301</ele>
        <time>2000-01-01T07:36:37.000Z</time>
      </trkpt>
      <trkpt lat="46.02199" lon="6.80727">
        <ele>1302.1</ele>
        <time>2000-01-01T07:36:47.000Z</time>
      </trkpt>
      <trkpt lat="46.02193" lon="6.80738">
        <ele>1283</ele>
        <time>2000-01-01T07:36:57.000Z</time>
      </trkpt>
      <trkpt lat="46.02183" lon="6.8075">
        <ele>1314.2</ele>
        <time>2000-01-01T07:37:07.000Z</time>
      </trkpt>
      <trkpt lat="46.02144" lon="6.80755">
        <ele>1288</ele>
        <time>2000-01-01T07:37:17.000Z</time>
      </trkpt>
      <trkpt lat="46.02149" lon="6.80765">
        <ele>1326.3</ele>
        <time>2000-01-01T07:37:27.000Z</time>
      </trkpt>
      <trkpt lat="46.0217" lon="6.8077">
        <ele>1294</ele>
        <time>2000-01-01T07:37:37.000Z</time>
      </trkpt>
      <trkpt lat="46.02168" lon="6.80779">
        <ele>1317.1</ele>
        <time>2000-01-01T07:37:47.000Z</time>
      </trkpt>
      <trkpt lat="46.02143" lon="6.80777">
        <ele>1299</ele>
        <time>2000-01-01T07:37:57.000Z</time>
      </trkpt>
      <trkpt lat="46.02138" lon="6.80783">
        <ele>1331.7</ele>
        <time>2000-01-01T07:38:07.000Z</time>
      </trkpt>
      <trkpt lat="46.02109" lon="6.80788">
        <ele>1311</ele>
        <time>2000-01-01T07:38:17.000Z</time>
      </trkpt>
      <trkpt lat="46.02097" lon="6.80796">
        <ele>1338.6</ele>
        <time>2000-01-01T07:38:27.000Z</time>
      </trkpt>
      <trkpt lat="46.02104" lon="6.80804">
        <ele>1310</ele>
        <time>2000-01-01T07:38:37.000Z</time>
      </trkpt>
      <trkpt lat="46.02123" lon="6.8081">
        <ele>1310</ele>
        <time>2000-01-01T07:38:47.000Z</time>
      </trkpt>
      <trkpt lat="46.0212" lon="6.8082">
        <ele>1336.1</ele>
        <time>2000-01-01T07:38:57.000Z</time>
      </trkpt>
      <trkpt lat="46.02083" lon="6.80815">
        <ele>1322</ele>
        <time>2000-01-01T07:39:07.000Z</time>
      </trkpt>
      <trkpt lat="46.02076" lon="6.80824">
        <ele>1350.7</ele>
        <time>2000-01-01T07:39:17.000Z</time>
      </trkpt>
      <trkpt lat="46.02081" lon="6.80833">
        <ele>1346.4</ele>
        <time>2000-01-01T07:39:27.000Z</time>
      </trkpt>
      <trkpt lat="46.02097" lon="6.80832">
        <ele>1324</ele>
        <time>2000-01-01T07:39:37.000Z</time>
      </trkpt>
      <trkpt lat="46.02102" lon="6.80841">
        <ele>1345.1</ele>
        <time>2000-01-01T07:39:47.000Z</time>
      </trkpt>
      <trkpt lat="46.02097" lon="6.80846">
        <ele>1345.5</ele>
        <time>2000-01-01T07:39:57.000Z</time>
      </trkpt>
      <trkpt lat="46.02071" lon="6.80841">
        <ele>1331</ele>
        <time>2000-01-01T07:40:07.000Z</time>
      </trkpt>
      <trkpt lat="46.02061" lon="6.80834">
        <ele>1354.2</ele>
        <time>2000-01-01T07:40:17.000Z</time>
      </trkpt>
      <trkpt lat="46.02057" lon="6.8084">
        <ele>1355.5</ele>
        <time>2000-01-01T07:40:27.000Z</time>
      </trkpt>
      <trkpt lat="46.02071" lon="6.80852">
        <ele>1333</ele>
        <time>2000-01-01T07:40:37.000Z</time>
      </trkpt>
      <trkpt lat="46.02093" lon="6.80861">
        <ele>1333</ele>
        <time>2000-01-01T07:40:47.000Z</time>
      </trkpt>
      <trkpt lat="46.02105" lon="6.80859">
        <ele>1346.1</ele>
        <time>2000-01-01T07:40:57.000Z</time>
      </trkpt>
      <trkpt lat="46.02116" lon="6.8087">
        <ele>1335</ele>
        <time>2000-01-01T07:41:07.000Z</time>
      </trkpt>
      <trkpt lat="46.02119" lon="6.80887">
        <ele>1348</ele>
        <time>2000-01-01T07:41:17.000Z</time>
      </trkpt>
      <trkpt lat="46.02116" lon="6.80916">
        <ele>1338</ele>
        <time>2000-01-01T07:41:27.000Z</time>
      </trkpt>
      <trkpt lat="46.02112" lon="6.80939">
        <ele>1361</ele>
        <time>2000-01-01T07:41:37.000Z</time>
      </trkpt>
      <trkpt lat="46.02111" lon="6.80964">
        <ele>1346</ele>
        <time>2000-01-01T07:41:47.000Z</time>
      </trkpt>
      <trkpt lat="46.02113" lon="6.80991">
        <ele>1352</ele>
        <time>2000-01-01T07:41:57.000Z</time>
      </trkpt>
      <trkpt lat="46.02117" lon="6.81004">
        <ele>1371.3</ele>
        <time>2000-01-01T07:42:07.000Z</time>
      </trkpt>
      <trkpt lat="46.02128" lon="6.81002">
        <ele>1348</ele>
        <time>2000-01-01T07:42:17.000Z</time>
      </trkpt>
      <trkpt lat="46.02137" lon="6.80982">
        <ele>1361</ele>
        <time>2000-01-01T07:42:27.000Z</time>
      </trkpt>
      <trkpt lat="46.02154" lon="6.80966">
        <ele>1349</ele>
        <time>2000-01-01T07:42:37.000Z</time>
      </trkpt>
      <trkpt lat="46.02165" lon="6.80972">
        <ele>1358.9</ele>
        <time>2000-01-01T07:42:47.000Z</time>
      </trkpt>
      <trkpt lat="46.02177" lon="6.80983">
        <ele>1350</ele>
        <time>2000-01-01T07:42:57.000Z</time>
      </trkpt>
      <trkpt lat="46.02178" lon="6.81">
        <ele>1357.6</ele>
        <time>2000-01-01T07:43:07.000Z</time>
      </trkpt>
      <trkpt lat="46.02162" lon="6.81012">
        <ele>1352</ele>
        <time>2000-01-01T07:43:17.000Z</time>
      </trkpt>
      <trkpt lat="46.02147" lon="6.81008">
        <ele>1366.8</ele>
        <time>2000-01-01T07:43:27.000Z</time>
      </trkpt>
      <trkpt lat="46.0214" lon="6.81016">
        <ele>1354</ele>
        <time>2000-01-01T07:43:37.000Z</time>
      </trkpt>
      <trkpt lat="46.02142" lon="6.81026">
        <ele>1369.6</ele>
        <time>2000-01-01T07:43:47.000Z</time>
      </trkpt>
      <trkpt lat="46.02156" lon="6.81033">
        <ele>1358</ele>
        <time>2000-01-01T07:43:57.000Z</time>
      </trkpt>
      <trkpt lat="46.02158" lon="6.81046">
        <ele>1370.6</ele>
        <time>2000-01-01T07:44:07.000Z</time>
      </trkpt>
      <trkpt lat="46.02153" lon="6.81065">
        <ele>1363</ele>
        <time>2000-01-01T07:44:17.000Z</time>
      </trkpt>
      <trkpt lat="46.02142" lon="6.8108">
        <ele>1373.1</ele>
        <time>2000-01-01T07:44:27.000Z</time>
      </trkpt>
      <trkpt lat="46.02132" lon="6.81067">
        <ele>1364</ele>
        <time>2000-01-01T07:44:37.000Z</time>
      </trkpt>
      <trkpt lat="46.02126" lon="6.81058">
        <ele>1373.5</ele>
        <time>2000-01-01T07:44:47.000Z</time>
      </trkpt>
      <trkpt lat="46.02106" lon="6.81072">
        <ele>1368</ele>
        <time>2000-01-01T07:44:57.000Z</time>
      </trkpt>
      <trkpt lat="46.02089" lon="6.81094">
        <ele>1374</ele>
        <time>2000-01-01T07:45:07.000Z</time>
      </trkpt>
      <trkpt lat="46.02064" lon="6.81119">
        <ele>1374</ele>
        <time>2000-01-01T07:45:17.000Z</time>
      </trkpt>
      <trkpt lat="46.02056" lon="6.81116">
        <ele>1402.8</ele>
        <time>2000-01-01T07:45:27.000Z</time>
      </trkpt>
      <trkpt lat="46.02056" lon="6.8111">
        <ele>1401.9</ele>
        <time>2000-01-01T07:45:37.000Z</time>
      </trkpt>
      <trkpt lat="46.02064" lon="6.81071">
        <ele>1375</ele>
        <time>2000-01-01T07:45:47.000Z</time>
      </trkpt>
      <trkpt lat="46.02065" lon="6.81063">
        <ele>1387.6</ele>
        <time>2000-01-01T07:45:57.000Z</time>
      </trkpt>
      <trkpt lat="46.02059" lon="6.81053">
        <ele>1387.7</ele>
        <time>2000-01-01T07:46:07.000Z</time>
      </trkpt>
      <trkpt lat="46.0205" lon="6.81049">
        <ele>1375</ele>
        <time>2000-01-01T07:46:17.000Z</time>
      </trkpt>
      <trkpt lat="46.02036" lon="6.81053">
        <ele>1390.5</ele>
        <time>2000-01-01T07:46:27.000Z</time>
      </trkpt>
      <trkpt lat="46.02019" lon="6.81044">
        <ele>1381</ele>
        <time>2000-01-01T07:46:37.000Z</time>
      </trkpt>
      <trkpt lat="46.02001" lon="6.81045">
        <ele>1392.8</ele>
        <time>2000-01-01T07:46:47.000Z</time>
      </trkpt>
      <trkpt lat="46.01964" lon="6.81039">
        <ele>1386</ele>
        <time>2000-01-01T07:46:57.000Z</time>
      </trkpt>
      <trkpt lat="46.01947" lon="6.81034">
        <ele>1405.8</ele>
        <time>2000-01-01T07:47:07.000Z</time>
      </trkpt>
      <trkpt lat="46.0191" lon="6.8104">
        <ele>1391</ele>
        <time>2000-01-01T07:47:17.000Z</time>
      </trkpt>
      <trkpt lat="46.01885" lon="6.81037">
        <ele>1392</ele>
        <time>2000-01-01T07:47:27.000Z</time>
      </trkpt>
      <trkpt lat="46.01873" lon="6.81052">
        <ele>1426</ele>
        <time>2000-01-01T07:47:37.000Z</time>
      </trkpt>
      <trkpt lat="46.01867" lon="6.81052">
        <ele>1392</ele>
        <time>2000-01-01T07:47:47.000Z</time>
      </trkpt>
      <trkpt lat="46.01863" lon="6.81039">
        <ele>1424.9</ele>
        <time>2000-01-01T07:47:57.000Z</time>
      </trkpt>
      <trkpt lat="46.01865" lon="6.8103">
        <ele>1423.2</ele>
        <time>2000-01-01T07:48:07.000Z</time>
      </trkpt>
      <trkpt lat="46.01873" lon="6.81001">
        <ele>1392</ele>
        <time>2000-01-01T07:48:17.000Z</time>
      </trkpt>
      <trkpt lat="46.01875" lon="6.8098">
        <ele>1402.7</ele>
        <time>2000-01-01T07:48:27.000Z</time>
      </trkpt>
      <trkpt lat="46.01873" lon="6.80973">
        <ele>1390</ele>
        <time>2000-01-01T07:48:37.000Z</time>
      </trkpt>
      <trkpt lat="46.0187" lon="6.8097">
        <ele>1402.4</ele>
        <time>2000-01-01T07:48:47.000Z</time>
      </trkpt>
      <trkpt lat="46.0186" lon="6.80972">
        <ele>1404.1</ele>
        <time>2000-01-01T07:48:57.000Z</time>
      </trkpt>
      <trkpt lat="46.01844" lon="6.80974">
        <ele>1389</ele>
        <time>2000-01-01T07:49:07.000Z</time>
      </trkpt>
      <trkpt lat="46.01809" lon="6.80971">
        <ele>1388</ele>
        <time>2000-01-01T07:49:17.000Z</time>
      </trkpt>
      <trkpt lat="46.01783" lon="6.80972">
        <ele>1388</ele>
        <time>2000-01-01T07:49:27.000Z</time>
      </trkpt>
      <trkpt lat="46.01766" lon="6.80979">
        <ele>1416.8</ele>
        <time>2000-01-01T07:49:37.000Z</time>
      </trkpt>
      <trkpt lat="46.01753" lon="6.80986">
        <ele>1388</ele>
        <time>2000-01-01T07:49:47.000Z</time>
      </trkpt>
      <trkpt lat="46.0173" lon="6.80979">
        <ele>1388</ele>
        <time>2000-01-01T07:49:57.000Z</time>
      </trkpt>
      <trkpt lat="46.01728" lon="6.80972">
        <ele>1419.1</ele>
        <time>2000-01-01T07:50:07.000Z</time>
      </trkpt>
      <trkpt lat="46.01722" lon="6.80967">
        <ele>1418.7</ele>
        <time>2000-01-01T07:50:17.000Z</time>
      </trkpt>
      <trkpt lat="46.01721" lon="6.80957">
        <ele>1388</ele>
        <time>2000-01-01T07:50:27.000Z</time>
      </trkpt>
      <trkpt lat="46.01726" lon="6.80951">
        <ele>1417.4</ele>
        <time>2000-01-01T07:50:37.000Z</time>
      </trkpt>
      <trkpt lat="46.01741" lon="6.80945">
        <ele>1391</ele>
        <time>2000-01-01T07:50:47.000Z</time>
      </trkpt>
      <trkpt lat="46.01753" lon="6.80932">
        <ele>1410.5</ele>
        <time>2000-01-01T07:50:57.000Z</time>
      </trkpt>
      <trkpt lat="46.01758" lon="6.80928">
        <ele>1395</ele>
        <time>2000-01-01T07:51:07.000Z</time>
      </trkpt>
      <trkpt lat="46.01761" lon="6.80917">
        <ele>1409.5</ele>
        <time>2000-01-01T07:51:17.000Z</time>
      </trkpt>
      <trkpt lat="46.0175" lon="6.80916">
        <ele>1402</ele>
        <time>2000-01-01T07:51:27.000Z</time>
      </trkpt>
      <trkpt lat="46.0174" lon="6.80919">
        <ele>1411.8</ele>
        <time>2000-01-01T07:51:37.000Z</time>
      </trkpt>
      <trkpt lat="46.01735" lon="6.80922">
        <ele>1413.2</ele>
        <time>2000-01-01T07:51:47.000Z</time>
      </trkpt>
      <trkpt lat="46.01726" lon="6.80921">
        <ele>1403</ele>
        <time>2000-01-01T07:51:57.000Z</time>
      </trkpt>
      <trkpt lat="46.01717" lon="6.80916">
        <ele>1420.8</ele>
        <time>2000-01-01T07:52:07.000Z</time>
      </trkpt>
      <trkpt lat="46.017" lon="6.80914">
        <ele>1413</ele>
        <time>2000-01-01T07:52:17.000Z</time>
      </trkpt>
      <trkpt lat="46.01684" lon="6.80908">
        <ele>1424</ele>
        <time>2000-01-01T07:52:27.000Z</time>
      </trkpt>
      <trkpt lat="46.01671" lon="6.80907">
        <ele>1423</ele>
        <time>2000-01-01T07:52:37.000Z</time>
      </trkpt>
      <trkpt lat="46.01655" lon="6.80904">
        <ele>1429.6</ele>
        <time>2000-01-01T07:52:47.000Z</time>
      </trkpt>
      <trkpt lat="46.01595" lon="6.80876">
        <ele>1441</ele>
        <time>2000-01-01T07:52:57.000Z</time>
      </trkpt>
      <trkpt lat="46.01589" lon="6.80869">
        <ele>1439.8</ele>
        <time>2000-01-01T07:53:07.000Z</time>
      </trkpt>
      <trkpt lat="46.01594" lon="6.80864">
        <ele>1440.7</ele>
        <time>2000-01-01T07:53:17.000Z</time>
      </trkpt>
      <trkpt lat="46.01607" lon="6.80865">
        <ele>1448</ele>
        <time>2000-01-01T07:53:27.000Z</time>
      </trkpt>
      <trkpt lat="46.01618" lon="6.80853">
        <ele>1440.7</ele>
        <time>2000-01-01T07:53:37.000Z</time>
      </trkpt>
      <trkpt lat="46.0163" lon="6.80834">
        <ele>1459</ele>
        <time>2000-01-01T07:53:47.000Z</time>
      </trkpt>
      <trkpt lat="46.01641" lon="6.80813">
        <ele>1466.8</ele>
        <time>2000-01-01T07:53:57.000Z</time>
      </trkpt>
      <trkpt lat="46.01653" lon="6.80801">
        <ele>1460</ele>
        <time>2000-01-01T07:54:07.000Z</time>
      </trkpt>
      <trkpt lat="46.01665" lon="6.80784">
        <ele>1475.1</ele>
        <time>2000-01-01T07:54:17.000Z</time>
      </trkpt>
      <trkpt lat="46.01669" lon="6.80766">
        <ele>1466</ele>
        <time>2000-01-01T07:54:27.000Z</time>
      </trkpt>
      <trkpt lat="46.01679" lon="6.80765">
        <ele>1471.3</ele>
        <time>2000-01-01T07:54:37.000Z</time>
      </trkpt>
      <trkpt lat="46.01692" lon="6.80757">
        <ele>1472</ele>
        <time>2000-01-01T07:54:47.000Z</time>
      </trkpt>
      <trkpt lat="46.01711" lon="6.80734">
        <ele>1473</ele>
        <time>2000-01-01T07:54:57.000Z</time>
      </trkpt>
      <trkpt lat="46.01717" lon="6.8072">
        <ele>1490.3</ele>
        <time>2000-01-01T07:55:07.000Z</time>
      </trkpt>
      <trkpt lat="46.01723" lon="6.80703">
        <ele>1482</ele>
        <time>2000-01-01T07:55:17.000Z</time>
      </trkpt>
      <trkpt lat="46.01733" lon="6.80687">
        <ele>1494.1</ele>
        <time>2000-01-01T07:55:27.000Z</time>
      </trkpt>
      <trkpt lat="46.01739" lon="6.80674">
        <ele>1491</ele>
        <time>2000-01-01T07:55:37.000Z</time>
      </trkpt>
      <trkpt lat="46.01746" lon="6.8064">
        <ele>1497</ele>
        <time>2000-01-01T07:55:47.000Z</time>
      </trkpt>
      <trkpt lat="46.01754" lon="6.8061">
        <ele>1500</ele>
        <time>2000-01-01T07:55:57.000Z</time>
      </trkpt>
      <trkpt lat="46.0176" lon="6.80612">
        <ele>1509.4</ele>
        <time>2000-01-01T07:56:07.000Z</time>
      </trkpt>
      <trkpt lat="46.01775" lon="6.80592">
        <ele>1503</ele>
        <time>2000-01-01T07:56:17.000Z</time>
      </trkpt>
      <trkpt lat="46.01788" lon="6.8059">
        <ele>1507.4</ele>
        <time>2000-01-01T07:56:27.000Z</time>
      </trkpt>
      <trkpt lat="46.01793" lon="6.80588">
        <ele>1506.3</ele>
        <time>2000-01-01T07:56:37.000Z</time>
      </trkpt>
      <trkpt lat="46.01798" lon="6.80577">
        <ele>1505</ele>
        <time>2000-01-01T07:56:47.000Z</time>
      </trkpt>
      <trkpt lat="46.01799" lon="6.80566">
        <ele>1527</ele>
        <time>2000-01-01T07:56:57.000Z</time>
      </trkpt>
      <trkpt lat="46.01795" lon="6.80547">
        <ele>1515</ele>
        <time>2000-01-01T07:57:07.000Z</time>
      </trkpt>
      <trkpt lat="46.01792" lon="6.80521">
        <ele>1536.1</ele>
        <time>2000-01-01T07:57:17.000Z</time>
      </trkpt>
      <trkpt lat="46.01792" lon="6.80508">
        <ele>1529</ele>
        <time>2000-01-01T07:57:27.000Z</time>
      </trkpt>
      <trkpt lat="46.018" lon="6.80493">
        <ele>1551.5</ele>
        <time>2000-01-01T07:57:37.000Z</time>
      </trkpt>
      <trkpt lat="46.01806" lon="6.80475">
        <ele>1533</ele>
        <time>2000-01-01T07:57:47.000Z</time>
      </trkpt>
      <trkpt lat="46.01807" lon="6.80462">
        <ele>1553.8</ele>
        <time>2000-01-01T07:57:57.000Z</time>
      </trkpt>
      <trkpt lat="46.01799" lon="6.80462">
        <ele>1555.4</ele>
        <time>2000-01-01T07:58:07.000Z</time>
      </trkpt>
      <trkpt lat="46.01791" lon="6.80463">
        <ele>1542</ele>
        <time>2000-01-01T07:58:17.000Z</time>
      </trkpt>
      <trkpt lat="46.01783" lon="6.80466">
        <ele>1558</ele>
        <time>2000-01-01T07:58:27.000Z</time>
      </trkpt>
      <trkpt lat="46.01774" lon="6.80475">
        <ele>1546</ele>
        <time>2000-01-01T07:58:37.000Z</time>
      </trkpt>
      <trkpt lat="46.01762" lon="6.80479">
        <ele>1560</ele>
        <time>2000-01-01T07:58:47.000Z</time>
      </trkpt>
      <trkpt lat="46.01754" lon="6.80489">
        <ele>1553</ele>
        <time>2000-01-01T07:58:57.000Z</time>
      </trkpt>
      <trkpt lat="46.01744" lon="6.80496">
        <ele>1571.3</ele>
        <time>2000-01-01T07:59:07.000Z</time>
      </trkpt>
      <trkpt lat="46.01732" lon="6.80497">
        <ele>1558</ele>
        <time>2000-01-01T07:59:17.000Z</time>
      </trkpt>
      <trkpt lat="46.01744" lon="6.80462">
        <ele>1564</ele>
        <time>2000-01-01T07:59:27.000Z</time>
      </trkpt>
      <trkpt lat="46.01748" lon="6.80443">
        <ele>1591.5</ele>
        <time>2000-01-01T07:59:37.000Z</time>
      </trkpt>
      <trkpt lat="46.01749" lon="6.80416">
        <ele>1572</ele>
        <time>2000-01-01T07:59:47.000Z</time>
      </trkpt>
      <trkpt lat="46.01751" lon="6.80402">
        <ele>1581.8</ele>
        <time>2000-01-01T07:59:57.000Z</time>
      </trkpt>
      <trkpt lat="46.01757" lon="6.80391">
        <ele>1581</ele>
        <time>2000-01-01T08:00:07.000Z</time>
      </trkpt>
      <trkpt lat="46.01767" lon="6.80366">
        <ele>1579</ele>
        <time>2000-01-01T08:00:17.000Z</time>
      </trkpt>
      <trkpt lat="46.01776" lon="6.80348">
        <ele>1583.2</ele>
        <time>2000-01-01T08:00:27.000Z</time>
      </trkpt>
      <trkpt lat="46.01781" lon="6.80334">
        <ele>1583</ele>
        <time>2000-01-01T08:00:37.000Z</time>
      </trkpt>
      <trkpt lat="46.01782" lon="6.80291">
        <ele>1588</ele>
        <time>2000-01-01T08:00:47.000Z</time>
      </trkpt>
      <trkpt lat="46.01767" lon="6.80315">
        <ele>1596</ele>
        <time>2000-01-01T08:00:57.000Z</time>
      </trkpt>
      <trkpt lat="46.0176" lon="6.80323">
        <ele>1600.5</ele>
        <time>2000-01-01T08:01:07.000Z</time>
      </trkpt>
      <trkpt lat="46.01758" lon="6.80316">
        <ele>1599.4</ele>
        <time>2000-01-01T08:01:17.000Z</time>
      </trkpt>
      <trkpt lat="46.01765" lon="6.80288">
        <ele>1605</ele>
        <time>2000-01-01T08:01:27.000Z</time>
      </trkpt>
      <trkpt lat="46.01766" lon="6.80275">
        <ele>1600.2</ele>
        <time>2000-01-01T08:01:37.000Z</time>
      </trkpt>
      <trkpt lat="46.01762" lon="6.80251">
        <ele>1611</ele>
        <time>2000-01-01T08:01:47.000Z</time>
      </trkpt>
      <trkpt lat="46.01763" lon="6.80213">
        <ele>1617</ele>
        <time>2000-01-01T08:01:57.000Z</time>
      </trkpt>
      <trkpt lat="46.01745" lon="6.80159">
        <ele>1636</ele>
        <time>2000-01-01T08:02:07.000Z</time>
      </trkpt>
      <trkpt lat="46.01746" lon="6.8013">
        <ele>1637</ele>
        <time>2000-01-01T08:02:17.000Z</time>
      </trkpt>
      <trkpt lat="46.01744" lon="6.80114">
        <ele>1655.6</ele>
        <time>2000-01-01T08:02:27.000Z</time>
      </trkpt>
      <trkpt lat="46.01736" lon="6.80097">
        <ele>1645</ele>
        <time>2000-01-01T08:02:37.000Z</time>
      </trkpt>
      <trkpt lat="46.01728" lon="6.8007">
        <ele>1649</ele>
        <time>2000-01-01T08:02:47.000Z</time>
      </trkpt>
      <trkpt lat="46.01724" lon="6.80052">
        <ele>1658.4</ele>
        <time>2000-01-01T08:02:57.000Z</time>
      </trkpt>
      <trkpt lat="46.01701" lon="6.80013">
        <ele>1658</ele>
        <time>2000-01-01T08:03:07.000Z</time>
      </trkpt>
      <trkpt lat="46.01681" lon="6.79991">
        <ele>1666</ele>
        <time>2000-01-01T08:03:17.000Z</time>
      </trkpt>
      <trkpt lat="46.01675" lon="6.7998">
        <ele>1662.4</ele>
        <time>2000-01-01T08:03:27.000Z</time>
      </trkpt>
      <trkpt lat="46.01665" lon="6.79967">
        <ele>1668</ele>
        <time>2000-01-01T08:03:37.000Z</time>
      </trkpt>
      <trkpt lat="46.01652" lon="6.79947">
        <ele>1670</ele>
        <time>2000-01-01T08:03:47.000Z</time>
      </trkpt>
      <trkpt lat="46.01647" lon="6.79927">
        <ele>1682.5</ele>
        <time>2000-01-01T08:03:57.000Z</time>
      </trkpt>
      <trkpt lat="46.0165" lon="6.7991">
        <ele>1671</ele>
        <time>2000-01-01T08:04:07.000Z</time>
      </trkpt>
      <trkpt lat="46.01642" lon="6.79899">
        <ele>1674.2</ele>
        <time>2000-01-01T08:04:17.000Z</time>
      </trkpt>
      <trkpt lat="46.01633" lon="6.79879">
        <ele>1670</ele>
        <time>2000-01-01T08:04:27.000Z</time>
      </trkpt>
      <trkpt lat="46.01631" lon="6.79851">
        <ele>1670</ele>
        <time>2000-01-01T08:04:37.000Z</time>
      </trkpt>
      <trkpt lat="46.01627" lon="6.79845">
        <ele>1675.2</ele>
        <time>2000-01-01T08:04:47.000Z</time>
      </trkpt>
      <trkpt lat="46.01624" lon="6.79819">
        <ele>1671</ele>
        <time>2000-01-01T08:04:57.000Z</time>
      </trkpt>
      <trkpt lat="46.0162" lon="6.79808">
        <ele>1668.7</ele>
        <time>2000-01-01T08:05:07.000Z</time>
      </trkpt>
      <trkpt lat="46.01613" lon="6.79802">
        <ele>1670.4</ele>
        <time>2000-01-01T08:05:17.000Z</time>
      </trkpt>
      <trkpt lat="46.01607" lon="6.79803">
        <ele>1672</ele>
        <time>2000-01-01T08:05:27.000Z</time>
      </trkpt>
      <trkpt lat="46.01604" lon="6.79791">
        <ele>1671.8</ele>
        <time>2000-01-01T08:05:37.000Z</time>
      </trkpt>
      <trkpt lat="46.01601" lon="6.79784">
        <ele>1672.3</ele>
        <time>2000-01-01T08:05:47.000Z</time>
      </trkpt>
      <trkpt lat="46.01602" lon="6.79764">
        <ele>1674</ele>
        <time>2000-01-01T08:05:57.000Z</time>
      </trkpt>
      <trkpt lat="46.01597" lon="6.79754">
        <ele>1677</ele>
        <time>2000-01-01T08:06:07.000Z</time>
      </trkpt>
      <trkpt lat="46.01587" lon="6.79749">
        <ele>1675</ele>
        <time>2000-01-01T08:06:17.000Z</time>
      </trkpt>
      <trkpt lat="46.01587" lon="6.79729">
        <ele>1672.1</ele>
        <time>2000-01-01T08:06:27.000Z</time>
      </trkpt>
      <trkpt lat="46.01592" lon="6.79701">
        <ele>1677</ele>
        <time>2000-01-01T08:06:37.000Z</time>
      </trkpt>
      <trkpt lat="46.01593" lon="6.79675">
        <ele>1671.9</ele>
        <time>2000-01-01T08:06:47.000Z</time>
      </trkpt>
      <trkpt lat="46.0159" lon="6.79632">
        <ele>1679</ele>
        <time>2000-01-01T08:06:57.000Z</time>
      </trkpt>
      <trkpt lat="46.01584" lon="6.79604">
        <ele>1682</ele>
        <time>2000-01-01T08:07:07.000Z</time>
      </trkpt>
      <trkpt lat="46.01584" lon="6.79591">
        <ele>1669.6</ele>
        <time>2000-01-01T08:07:17.000Z</time>
      </trkpt>
      <trkpt lat="46.01579" lon="6.79585">
        <ele>1676.8</ele>
        <time>2000-01-01T08:07:27.000Z</time>
      </trkpt>
      <trkpt lat="46.01556" lon="6.7958">
        <ele>1686</ele>
        <time>2000-01-01T08:07:37.000Z</time>
      </trkpt>
      <trkpt lat="46.01543" lon="6.79569">
        <ele>1675.5</ele>
        <time>2000-01-01T08:07:47.000Z</time>
      </trkpt>
      <trkpt lat="46.01522" lon="6.79566">
        <ele>1688</ele>
        <time>2000-01-01T08:07:57.000Z</time>
      </trkpt>
      <trkpt lat="46.01513" lon="6.79563">
        <ele>1680.1</ele>
        <time>2000-01-01T08:08:07.000Z</time>
      </trkpt>
      <trkpt lat="46.01501" lon="6.79565">
        <ele>1690</ele>
        <time>2000-01-01T08:08:17.000Z</time>
      </trkpt>
      <trkpt lat="46.01494" lon="6.79562">
        <ele>1687.6</ele>
        <time>2000-01-01T08:08:27.000Z</time>
      </trkpt>
      <trkpt lat="46.01476" lon="6.79573">
        <ele>1692</ele>
        <time>2000-01-01T08:08:37.000Z</time>
      </trkpt>
      <trkpt lat="46.01453" lon="6.79577">
        <ele>1694</ele>
        <time>2000-01-01T08:08:47.000Z</time>
      </trkpt>
      <trkpt lat="46.01447" lon="6.79582">
        <ele>1691.5</ele>
        <time>2000-01-01T08:08:57.000Z</time>
      </trkpt>
      <trkpt lat="46.01457" lon="6.79588">
        <ele>1706.6</ele>
        <time>2000-01-01T08:09:07.000Z</time>
      </trkpt>
      <trkpt lat="46.01467" lon="6.79595">
        <ele>1698</ele>
        <time>2000-01-01T08:09:17.000Z</time>
      </trkpt>
      <trkpt lat="46.01475" lon="6.79596">
        <ele>1705</ele>
        <time>2000-01-01T08:09:27.000Z</time>
      </trkpt>
      <trkpt lat="46.01483" lon="6.79602">
        <ele>1704.7</ele>
        <time>2000-01-01T08:09:37.000Z</time>
      </trkpt>
      <trkpt lat="46.01493" lon="6.79606">
        <ele>1706</ele>
        <time>2000-01-01T08:09:47.000Z</time>
      </trkpt>
      <trkpt lat="46.01499" lon="6.79618">
        <ele>1707.1</ele>
        <time>2000-01-01T08:09:57.000Z</time>
      </trkpt>
      <trkpt lat="46.015" lon="6.79633">
        <ele>1712</ele>
        <time>2000-01-01T08:10:07.000Z</time>
      </trkpt>
      <trkpt lat="46.01512" lon="6.79662">
        <ele>1713</ele>
        <time>2000-01-01T08:10:17.000Z</time>
      </trkpt>
      <trkpt lat="46.01511" lon="6.79689">
        <ele>1716</ele>
        <time>2000-01-01T08:10:27.000Z</time>
      </trkpt>
      <trkpt lat="46.01512" lon="6.79734">
        <ele>1722</ele>
        <time>2000-01-01T08:10:37.000Z</time>
      </trkpt>
      <trkpt lat="46.0151" lon="6.7974">
        <ele>1715.6</ele>
        <time>2000-01-01T08:10:47.000Z</time>
      </trkpt>
      <trkpt lat="46.01491" lon="6.79713">
        <ele>1729</ele>
        <time>2000-01-01T08:10:57.000Z</time>
      </trkpt>
      <trkpt lat="46.01482" lon="6.79695">
        <ele>1726.2</ele>
        <time>2000-01-01T08:11:07.000Z</time>
      </trkpt>
      <trkpt lat="46.01467" lon="6.79689">
        <ele>1730</ele>
        <time>2000-01-01T08:11:17.000Z</time>
      </trkpt>
      <trkpt lat="46.0146" lon="6.79687">
        <ele>1728</ele>
        <time>2000-01-01T08:11:27.000Z</time>
      </trkpt>
      <trkpt lat="46.0145" lon="6.79696">
        <ele>1731</ele>
        <time>2000-01-01T08:11:37.000Z</time>
      </trkpt>
      <trkpt lat="46.01441" lon="6.79691">
        <ele>1730</ele>
        <time>2000-01-01T08:11:47.000Z</time>
      </trkpt>
      <trkpt lat="46.01431" lon="6.79689">
        <ele>1733</ele>
        <time>2000-01-01T08:11:57.000Z</time>
      </trkpt>
      <trkpt lat="46.0141" lon="6.79711">
        <ele>1744</ele>
        <time>2000-01-01T08:12:07.000Z</time>
      </trkpt>
      <trkpt lat="46.01384" lon="6.79722">
        <ele>1750</ele>
        <time>2000-01-01T08:12:17.000Z</time>
      </trkpt>
      <trkpt lat="46.01374" lon="6.79724">
        <ele>1747.9</ele>
        <time>2000-01-01T08:12:27.000Z</time>
      </trkpt>
      <trkpt lat="46.01367" lon="6.79731">
        <ele>1749.6</ele>
        <time>2000-01-01T08:12:37.000Z</time>
      </trkpt>
      <trkpt lat="46.01375" lon="6.79741">
        <ele>1757</ele>
        <time>2000-01-01T08:12:47.000Z</time>
      </trkpt>
      <trkpt lat="46.01397" lon="6.79762">
        <ele>1761</ele>
        <time>2000-01-01T08:12:57.000Z</time>
      </trkpt>
      <trkpt lat="46.01401" lon="6.79776">
        <ele>1762.2</ele>
        <time>2000-01-01T08:13:07.000Z</time>
      </trkpt>
      <trkpt lat="46.014" lon="6.79791">
        <ele>1768</ele>
        <time>2000-01-01T08:13:17.000Z</time>
      </trkpt>
      <trkpt lat="46.014" lon="6.79806">
        <ele>1767.1</ele>
        <time>2000-01-01T08:13:27.000Z</time>
      </trkpt>
      <trkpt lat="46.01393" lon="6.7982">
        <ele>1770</ele>
        <time>2000-01-01T08:13:37.000Z</time>
      </trkpt>
      <trkpt lat="46.01392" lon="6.79834">
        <ele>1781.2</ele>
        <time>2000-01-01T08:13:47.000Z</time>
      </trkpt>
      <trkpt lat="46.01383" lon="6.79841">
        <ele>1775</ele>
        <time>2000-01-01T08:13:57.000Z</time>
      </trkpt>
      <trkpt lat="46.01384" lon="6.79852">
        <ele>1785</ele>
        <time>2000-01-01T08:14:07.000Z</time>
      </trkpt>
      <trkpt lat="46.01381" lon="6.79861">
        <ele>1786.6</ele>
        <time>2000-01-01T08:14:17.000Z</time>
      </trkpt>
      <trkpt lat="46.0139" lon="6.79867">
        <ele>1779</ele>
        <time>2000-01-01T08:14:27.000Z</time>
      </trkpt>
      <trkpt lat="46.01386" lon="6.79889">
        <ele>1789.9</ele>
        <time>2000-01-01T08:14:37.000Z</time>
      </trkpt>
      <trkpt lat="46.01391" lon="6.79898">
        <ele>1785</ele>
        <time>2000-01-01T08:14:47.000Z</time>
      </trkpt>
      <trkpt lat="46.01393" lon="6.79908">
        <ele>1790.9</ele>
        <time>2000-01-01T08:14:57.000Z</time>
      </trkpt>
      <trkpt lat="46.01398" lon="6.79918">
        <ele>1802.7</ele>
        <time>2000-01-01T08:15:07.000Z</time>
      </trkpt>
      <trkpt lat="46.01407" lon="6.79918">
        <ele>1790</ele>
        <time>2000-01-01T08:15:17.000Z</time>
      </trkpt>
      <trkpt lat="46.01418" lon="6.79926">
        <ele>1792.2</ele>
        <time>2000-01-01T08:15:27.000Z</time>
      </trkpt>
      <trkpt lat="46.01425" lon="6.79947">
        <ele>1797</ele>
        <time>2000-01-01T08:15:37.000Z</time>
      </trkpt>
      <trkpt lat="46.01443" lon="6.7995">
        <ele>1794.6</ele>
        <time>2000-01-01T08:15:47.000Z</time>
      </trkpt>
      <trkpt lat="46.01453" lon="6.79961">
        <ele>1804</ele>
        <time>2000-01-01T08:15:57.000Z</time>
      </trkpt>
      <trkpt lat="46.01463" lon="6.79966">
        <ele>1794.9</ele>
        <time>2000-01-01T08:16:07.000Z</time>
      </trkpt>
      <trkpt lat="46.01476" lon="6.79966">
        <ele>1805</ele>
        <time>2000-01-01T08:16:17.000Z</time>
      </trkpt>
      <trkpt lat="46.01479" lon="6.79975">
        <ele>1794.6</ele>
        <time>2000-01-01T08:16:27.000Z</time>
      </trkpt>
      <trkpt lat="46.01488" lon="6.79989">
        <ele>1808</ele>
        <time>2000-01-01T08:16:37.000Z</time>
      </trkpt>
      <trkpt lat="46.01496" lon="6.80033">
        <ele>1819</ele>
        <time>2000-01-01T08:16:47.000Z</time>
      </trkpt>
      <trkpt lat="46.01494" lon="6.80055">
        <ele>1817.5</ele>
        <time>2000-01-01T08:16:57.000Z</time>
      </trkpt>
      <trkpt lat="46.01493" lon="6.80084">
        <ele>1827</ele>
        <time>2000-01-01T08:17:07.000Z</time>
      </trkpt>
      <trkpt lat="46.01488" lon="6.80115">
        <ele>1834</ele>
        <time>2000-01-01T08:17:17.000Z</time>
      </trkpt>
      <trkpt lat="46.01482" lon="6.80145">
        <ele>1835</ele>
        <time>2000-01-01T08:17:27.000Z</time>
      </trkpt>
      <trkpt lat="46.01477" lon="6.80158">
        <ele>1829.4</ele>
        <time>2000-01-01T08:17:37.000Z</time>
      </trkpt>
      <trkpt lat="46.01464" lon="6.8017">
        <ele>1844</ele>
        <time>2000-01-01T08:17:47.000Z</time>
      </trkpt>
      <trkpt lat="46.01449" lon="6.80186">
        <ele>1831.7</ele>
        <time>2000-01-01T08:17:57.000Z</time>
      </trkpt>
      <trkpt lat="46.01435" lon="6.80187">
        <ele>1850</ele>
        <time>2000-01-01T08:18:07.000Z</time>
      </trkpt>
      <trkpt lat="46.01427" lon="6.80185">
        <ele>1838.9</ele>
        <time>2000-01-01T08:18:17.000Z</time>
      </trkpt>
      <trkpt lat="46.01408" lon="6.80193">
        <ele>1857</ele>
        <time>2000-01-01T08:18:27.000Z</time>
      </trkpt>
      <trkpt lat="46.01403" lon="6.80214">
        <ele>1857</ele>
        <time>2000-01-01T08:18:37.000Z</time>
      </trkpt>
      <trkpt lat="46.01388" lon="6.80248">
        <ele>1865</ele>
        <time>2000-01-01T08:18:47.000Z</time>
      </trkpt>
      <trkpt lat="46.01389" lon="6.80225">
        <ele>1858</ele>
        <time>2000-01-01T08:18:57.000Z</time>
      </trkpt>
      <trkpt lat="46.01384" lon="6.80176">
        <ele>1865</ele>
        <time>2000-01-01T08:19:07.000Z</time>
      </trkpt>
      <trkpt lat="46.01373" lon="6.80147">
        <ele>1866</ele>
        <time>2000-01-01T08:19:17.000Z</time>
      </trkpt>
      <trkpt lat="46.0136" lon="6.80133">
        <ele>1862.7</ele>
        <time>2000-01-01T08:19:27.000Z</time>
      </trkpt>
      <trkpt lat="46.01345" lon="6.80129">
        <ele>1871</ele>
        <time>2000-01-01T08:19:37.000Z</time>
      </trkpt>
      <trkpt lat="46.01357" lon="6.80143">
        <ele>1864.7</ele>
        <time>2000-01-01T08:19:47.000Z</time>
      </trkpt>
      <trkpt lat="46.01363" lon="6.80162">
        <ele>1874</ele>
        <time>2000-01-01T08:19:57.000Z</time>
      </trkpt>
      <trkpt lat="46.01366" lon="6.80179">
        <ele>1866.1</ele>
        <time>2000-01-01T08:20:07.000Z</time>
      </trkpt>
      <trkpt lat="46.01366" lon="6.80193">
        <ele>1880</ele>
        <time>2000-01-01T08:20:17.000Z</time>
      </trkpt>
      <trkpt lat="46.01361" lon="6.80181">
        <ele>1867.2</ele>
        <time>2000-01-01T08:20:27.000Z</time>
      </trkpt>
      <trkpt lat="46.01342" lon="6.8016">
        <ele>1881</ele>
        <time>2000-01-01T08:20:37.000Z</time>
      </trkpt>
      <trkpt lat="46.01354" lon="6.80189">
        <ele>1883</ele>
        <time>2000-01-01T08:20:47.000Z</time>
      </trkpt>
      <trkpt lat="46.01356" lon="6.80208">
        <ele>1865.6</ele>
        <time>2000-01-01T08:20:57.000Z</time>
      </trkpt>
      <trkpt lat="46.01355" lon="6.80218">
        <ele>1886</ele>
        <time>2000-01-01T08:21:07.000Z</time>
      </trkpt>
      <trkpt lat="46.01348" lon="6.8023">
        <ele>1866.8</ele>
        <time>2000-01-01T08:21:17.000Z</time>
      </trkpt>
      <trkpt lat="46.0133" lon="6.80247">
        <ele>1894</ele>
        <time>2000-01-01T08:21:27.000Z</time>
      </trkpt>
      <trkpt lat="46.01323" lon="6.80264">
        <ele>1880.9</ele>
        <time>2000-01-01T08:21:37.000Z</time>
      </trkpt>
      <trkpt lat="46.01318" lon="6.80261">
        <ele>1894</ele>
        <time>2000-01-01T08:21:47.000Z</time>
      </trkpt>
      <trkpt lat="46.0132" lon="6.80246">
        <ele>1885</ele>
        <time>2000-01-01T08:21:57.000Z</time>
      </trkpt>
      <trkpt lat="46.01331" lon="6.80218">
        <ele>1895</ele>
        <time>2000-01-01T08:22:07.000Z</time>
      </trkpt>
      <trkpt lat="46.01327" lon="6.80208">
        <ele>1891.3</ele>
        <time>2000-01-01T08:22:17.000Z</time>
      </trkpt>
      <trkpt lat="46.01321" lon="6.80196">
        <ele>1892</ele>
        <time>2000-01-01T08:22:27.000Z</time>
      </trkpt>
      <trkpt lat="46.01313" lon="6.80205">
        <ele>1901</ele>
        <time>2000-01-01T08:22:37.000Z</time>
      </trkpt>
      <trkpt lat="46.01301" lon="6.80222">
        <ele>1895.9</ele>
        <time>2000-01-01T08:22:47.000Z</time>
      </trkpt>
      <trkpt lat="46.01284" lon="6.80258">
        <ele>1909</ele>
        <time>2000-01-01T08:22:57.000Z</time>
      </trkpt>
      <trkpt lat="46.01253" lon="6.80284">
        <ele>1912</ele>
        <time>2000-01-01T08:23:07.000Z</time>
      </trkpt>
      <trkpt lat="46.01241" lon="6.80312">
        <ele>1915</ele>
        <time>2000-01-01T08:23:17.000Z</time>
      </trkpt>
      <trkpt lat="46.01226" lon="6.80329">
        <ele>1922</ele>
        <time>2000-01-01T08:23:27.000Z</time>
      </trkpt>
      <trkpt lat="46.01216" lon="6.80339">
        <ele>1925.5</ele>
        <time>2000-01-01T08:23:37.000Z</time>
      </trkpt>
      <trkpt lat="46.01214" lon="6.80334">
        <ele>1926.7</ele>
        <time>2000-01-01T08:23:47.000Z</time>
      </trkpt>
      <trkpt lat="46.01217" lon="6.80326">
        <ele>1933</ele>
        <time>2000-01-01T08:23:57.000Z</time>
      </trkpt>
      <trkpt lat="46.01217" lon="6.80308">
        <ele>1936.9</ele>
        <time>2000-01-01T08:24:07.000Z</time>
      </trkpt>
      <trkpt lat="46.0122" lon="6.80297">
        <ele>1931</ele>
        <time>2000-01-01T08:24:17.000Z</time>
      </trkpt>
      <trkpt lat="46.01228" lon="6.80291">
        <ele>1935.2</ele>
        <time>2000-01-01T08:24:27.000Z</time>
      </trkpt>
      <trkpt lat="46.01241" lon="6.80261">
        <ele>1931</ele>
        <time>2000-01-01T08:24:37.000Z</time>
      </trkpt>
      <trkpt lat="46.01241" lon="6.80249">
        <ele>1928.3</ele>
        <time>2000-01-01T08:24:47.000Z</time>
      </trkpt>
      <trkpt lat="46.01231" lon="6.80238">
        <ele>1931</ele>
        <time>2000-01-01T08:24:57.000Z</time>
      </trkpt>
      <trkpt lat="46.01216" lon="6.80233">
        <ele>1938.4</ele>
        <time>2000-01-01T08:25:07.000Z</time>
      </trkpt>
      <trkpt lat="46.01201" lon="6.80225">
        <ele>1943</ele>
        <time>2000-01-01T08:25:17.000Z</time>
      </trkpt>
      <trkpt lat="46.01207" lon="6.80242">
        <ele>1941.5</ele>
        <time>2000-01-01T08:25:27.000Z</time>
      </trkpt>
      <trkpt lat="46.01191" lon="6.80232">
        <ele>1952</ele>
        <time>2000-01-01T08:25:37.000Z</time>
      </trkpt>
      <trkpt lat="46.01182" lon="6.80232">
        <ele>1949.2</ele>
        <time>2000-01-01T08:25:47.000Z</time>
      </trkpt>
      <trkpt lat="46.01162" lon="6.80222">
        <ele>1957</ele>
        <time>2000-01-01T08:25:57.000Z</time>
      </trkpt>
      <trkpt lat="46.01147" lon="6.80216">
        <ele>1977.8</ele>
        <time>2000-01-01T08:26:07.000Z</time>
      </trkpt>
      <trkpt lat="46.01139" lon="6.80206">
        <ele>1966</ele>
        <time>2000-01-01T08:26:17.000Z</time>
      </trkpt>
      <trkpt lat="46.01123" lon="6.80182">
        <ele>1968</ele>
        <time>2000-01-01T08:26:27.000Z</time>
      </trkpt>
      <trkpt lat="46.01116" lon="6.8015">
        <ele>1971</ele>
        <time>2000-01-01T08:26:37.000Z</time>
      </trkpt>
      <trkpt lat="46.0111" lon="6.80163">
        <ele>1977.6</ele>
        <time>2000-01-01T08:26:47.000Z</time>
      </trkpt>
      <trkpt lat="46.01106" lon="6.80193">
        <ele>1976</ele>
        <time>2000-01-01T08:26:57.000Z</time>
      </trkpt>
      <trkpt lat="46.01111" lon="6.80221">
        <ele>1981</ele>
        <time>2000-01-01T08:27:07.000Z</time>
      </trkpt>
      <trkpt lat="46.01117" lon="6.80243">
        <ele>1989.3</ele>
        <time>2000-01-01T08:27:17.000Z</time>
      </trkpt>
      <trkpt lat="46.01118" lon="6.80264">
        <ele>1999</ele>
        <time>2000-01-01T08:27:27.000Z</time>
      </trkpt>
      <trkpt lat="46.01114" lon="6.80285">
        <ele>1991.9</ele>
        <time>2000-01-01T08:27:37.000Z</time>
      </trkpt>
      <trkpt lat="46.01112" lon="6.80303">
        <ele>1999</ele>
        <time>2000-01-01T08:27:47.000Z</time>
      </trkpt>
      <trkpt lat="46.01106" lon="6.80324">
        <ele>1995.4</ele>
        <time>2000-01-01T08:27:57.000Z</time>
      </trkpt>
      <trkpt lat="46.01096" lon="6.80336">
        <ele>2007</ele>
        <time>2000-01-01T08:28:07.000Z</time>
      </trkpt>
      <trkpt lat="46.01092" lon="6.80324">
        <ele>2001</ele>
        <time>2000-01-01T08:28:17.000Z</time>
      </trkpt>
      <trkpt lat="46.01088" lon="6.80304">
        <ele>2013</ele>
        <time>2000-01-01T08:28:27.000Z</time>
      </trkpt>
      <trkpt lat="46.01085" lon="6.8026">
        <ele>2018</ele>
        <time>2000-01-01T08:28:37.000Z</time>
      </trkpt>
      <trkpt lat="46.01074" lon="6.80272">
        <ele>2020.6</ele>
        <time>2000-01-01T08:28:47.000Z</time>
      </trkpt>
      <trkpt lat="46.01065" lon="6.8029">
        <ele>2031</ele>
        <time>2000-01-01T08:28:57.000Z</time>
      </trkpt>
      <trkpt lat="46.01057" lon="6.80315">
        <ele>2031</ele>
        <time>2000-01-01T08:29:07.000Z</time>
      </trkpt>
      <trkpt lat="46.01033" lon="6.80344">
        <ele>2034</ele>
        <time>2000-01-01T08:29:17.000Z</time>
      </trkpt>
      <trkpt lat="46.01019" lon="6.80354">
        <ele>2015</ele>
        <time>2000-01-01T08:29:27.000Z</time>
      </trkpt>
      <trkpt lat="46.01012" lon="6.80367">
        <ele>2034</ele>
        <time>2000-01-01T08:29:37.000Z</time>
      </trkpt>
      <trkpt lat="46.01013" lon="6.80364">
        <ele>2013.3</ele>
        <time>2000-01-01T08:29:47.000Z</time>
      </trkpt>
      <trkpt lat="46.01001" lon="6.80378">
        <ele>2011.1</ele>
        <time>2000-01-01T08:29:57.000Z</time>
      </trkpt>
      <trkpt lat="46.00988" lon="6.80386">
        <ele>2034</ele>
        <time>2000-01-01T08:30:07.000Z</time>
      </trkpt>
      <trkpt lat="46.00972" lon="6.80384">
        <ele>2027.5</ele>
        <time>2000-01-01T08:30:17.000Z</time>
      </trkpt>
      <trkpt lat="46.00962" lon="6.80373">
        <ele>2034</ele>
        <time>2000-01-01T08:30:27.000Z</time>
      </trkpt>
      <trkpt lat="46.00955" lon="6.80376">
        <ele>2030.2</ele>
        <time>2000-01-01T08:30:37.000Z</time>
      </trkpt>
      <trkpt lat="46.0095" lon="6.80386">
        <ele>2030</ele>
        <time>2000-01-01T08:30:47.000Z</time>
      </trkpt>
      <trkpt lat="46.00917" lon="6.80404">
        <ele>2034</ele>
        <time>2000-01-01T08:30:57.000Z</time>
      </trkpt>
      <trkpt lat="46.00911" lon="6.80418">
        <ele>2034.8</ele>
        <time>2000-01-01T08:31:07.000Z</time>
      </trkpt>
      <trkpt lat="46.00874" lon="6.80428">
        <ele>2035</ele>
        <time>2000-01-01T08:31:17.000Z</time>
      </trkpt>
      <trkpt lat="46.00858" lon="6.80431">
        <ele>2035.9</ele>
        <time>2000-01-01T08:31:27.000Z</time>
      </trkpt>
      <trkpt lat="46.00843" lon="6.80422">
        <ele>2035</ele>
        <time>2000-01-01T08:31:37.000Z</time>
      </trkpt>
      <trkpt lat="46.00827" lon="6.80423">
        <ele>2038.5</ele>
        <time>2000-01-01T08:31:47.000Z</time>
      </trkpt>
      <trkpt lat="46.00815" lon="6.80418">
        <ele>2035</ele>
        <time>2000-01-01T08:31:57.000Z</time>
      </trkpt>
      <trkpt lat="46.00796" lon="6.80418">
        <ele>2033</ele>
        <time>2000-01-01T08:32:07.000Z</time>
      </trkpt>
      <trkpt lat="46.00775" lon="6.80402">
        <ele>2031</ele>
        <time>2000-01-01T08:32:17.000Z</time>
      </trkpt>
      <trkpt lat="46.00754" lon="6.80368">
        <ele>2024</ele>
        <time>2000-01-01T08:32:27.000Z</time>
      </trkpt>
      <trkpt lat="46.00757" lon="6.80355">
        <ele>2031.7</ele>
        <time>2000-01-01T08:32:37.000Z</time>
      </trkpt>
      <trkpt lat="46.00745" lon="6.8034">
        <ele>2021</ele>
        <time>2000-01-01T08:32:47.000Z</time>
      </trkpt>
      <trkpt lat="46.00729" lon="6.80309">
        <ele>2013</ele>
        <time>2000-01-01T08:32:57.000Z</time>
      </trkpt>
      <trkpt lat="46.00709" lon="6.80267">
        <ele>2006</ele>
        <time>2000-01-01T08:33:07.000Z</time>
      </trkpt>
      <trkpt lat="46.00697" lon="6.80239">
        <ele>2003</ele>
        <time>2000-01-01T08:33:17.000Z</time>
      </trkpt>
      <trkpt lat="46.00691" lon="6.80211">
        <ele>2003</ele>
        <time>2000-01-01T08:33:27.000Z</time>
      </trkpt>
      <trkpt lat="46.0068" lon="6.80187">
        <ele>1992</ele>
        <time>2000-01-01T08:33:37.000Z</time>
      </trkpt>
      <trkpt lat="46.00675" lon="6.80167">
        <ele>2003.3</ele>
        <time>2000-01-01T08:33:47.000Z</time>
      </trkpt>
      <trkpt lat="46.00644" lon="6.8011">
        <ele>1980</ele>
        <time>2000-01-01T08:33:57.000Z</time>
      </trkpt>
      <trkpt lat="46.0064" lon="6.80088">
        <ele>1992.3</ele>
        <time>2000-01-01T08:34:07.000Z</time>
      </trkpt>
      <trkpt lat="46.00631" lon="6.80073">
        <ele>1979</ele>
        <time>2000-01-01T08:34:17.000Z</time>
      </trkpt>
      <trkpt lat="46.00611" lon="6.80045">
        <ele>1977</ele>
        <time>2000-01-01T08:34:27.000Z</time>
      </trkpt>
      <trkpt lat="46.00591" lon="6.8">
        <ele>1973</ele>
        <time>2000-01-01T08:34:37.000Z</time>
      </trkpt>
      <trkpt lat="46.00586" lon="6.7997">
        <ele>1969</ele>
        <time>2000-01-01T08:34:47.000Z</time>
      </trkpt>
      <trkpt lat="46.00592" lon="6.79944">
        <ele>1968</ele>
        <time>2000-01-01T08:34:57.000Z</time>
      </trkpt>
      <trkpt lat="46.006" lon="6.79911">
        <ele>1962</ele>
        <time>2000-01-01T08:35:07.000Z</time>
      </trkpt>
      <trkpt lat="46.00611" lon="6.79875">
        <ele>1955</ele>
        <time>2000-01-01T08:35:17.000Z</time>
      </trkpt>
      <trkpt lat="46.00632" lon="6.79838">
        <ele>1943</ele>
        <time>2000-01-01T08:35:27.000Z</time>
      </trkpt>
      <trkpt lat="46.00635" lon="6.79818">
        <ele>1942.5</ele>
        <time>2000-01-01T08:35:37.000Z</time>
      </trkpt>
      <trkpt lat="46.0063" lon="6.79795">
        <ele>1935</ele>
        <time>2000-01-01T08:35:47.000Z</time>
      </trkpt>
      <trkpt lat="46.00625" lon="6.79775">
        <ele>1938</ele>
        <time>2000-01-01T08:35:57.000Z</time>
      </trkpt>
      <trkpt lat="46.00619" lon="6.79761">
        <ele>1930</ele>
        <time>2000-01-01T08:36:07.000Z</time>
      </trkpt>
      <trkpt lat="46.00616" lon="6.79751">
        <ele>1935.7</ele>
        <time>2000-01-01T08:36:17.000Z</time>
      </trkpt>
      <trkpt lat="46.00605" lon="6.79739">
        <ele>1923</ele>
        <time>2000-01-01T08:36:27.000Z</time>
      </trkpt>
      <trkpt lat="46.00592" lon="6.79727">
        <ele>1926.7</ele>
        <time>2000-01-01T08:36:37.000Z</time>
      </trkpt>
      <trkpt lat="46.00574" lon="6.79712">
        <ele>1917</ele>
        <time>2000-01-01T08:36:47.000Z</time>
      </trkpt>
      <trkpt lat="46.00563" lon="6.79696">
        <ele>1915.4</ele>
        <time>2000-01-01T08:36:57.000Z</time>
      </trkpt>
      <trkpt lat="46.00543" lon="6.79698">
        <ele>1909</ele>
        <time>2000-01-01T08:37:07.000Z</time>
      </trkpt>
      <trkpt lat="46.00539" lon="6.79682">
        <ele>1912.4</ele>
        <time>2000-01-01T08:37:17.000Z</time>
      </trkpt>
      <trkpt lat="46.00534" lon="6.79657">
        <ele>1900</ele>
        <time>2000-01-01T08:37:27.000Z</time>
      </trkpt>
      <trkpt lat="46.00522" lon="6.7963">
        <ele>1892</ele>
        <time>2000-01-01T08:37:37.000Z</time>
      </trkpt>
      <trkpt lat="46.0052" lon="6.79603">
        <ele>1887</ele>
        <time>2000-01-01T08:37:47.000Z</time>
      </trkpt>
      <trkpt lat="46.00508" lon="6.79611">
        <ele>1897.4</ele>
        <time>2000-01-01T08:37:57.000Z</time>
      </trkpt>
      <trkpt lat="46.00496" lon="6.79624">
        <ele>1881</ele>
        <time>2000-01-01T08:38:07.000Z</time>
      </trkpt>
      <trkpt lat="46.00481" lon="6.79613">
        <ele>1890.5</ele>
        <time>2000-01-01T08:38:17.000Z</time>
      </trkpt>
      <trkpt lat="46.00474" lon="6.79585">
        <ele>1877</ele>
        <time>2000-01-01T08:38:27.000Z</time>
      </trkpt>
      <trkpt lat="46.00486" lon="6.79571">
        <ele>1882.3</ele>
        <time>2000-01-01T08:38:37.000Z</time>
      </trkpt>
      <trkpt lat="46.00493" lon="6.7956">
        <ele>1874</ele>
        <time>2000-01-01T08:38:47.000Z</time>
      </trkpt>
      <trkpt lat="46.00479" lon="6.79535">
        <ele>1868</ele>
        <time>2000-01-01T08:38:57.000Z</time>
      </trkpt>
      <trkpt lat="46.0047" lon="6.7949">
        <ele>1861</ele>
        <time>2000-01-01T08:39:07.000Z</time>
      </trkpt>
      <trkpt lat="46.0047" lon="6.79449">
        <ele>1857</ele>
        <time>2000-01-01T08:39:17.000Z</time>
      </trkpt>
      <trkpt lat="46.00474" lon="6.79427">
        <ele>1866.9</ele>
        <time>2000-01-01T08:39:27.000Z</time>
      </trkpt>
      <trkpt lat="46.00465" lon="6.79397">
        <ele>1856</ele>
        <time>2000-01-01T08:39:37.000Z</time>
      </trkpt>
      <trkpt lat="46.00471" lon="6.79362">
        <ele>1856</ele>
        <time>2000-01-01T08:39:47.000Z</time>
      </trkpt>
      <trkpt lat="46.0047" lon="6.79333">
        <ele>1849</ele>
        <time>2000-01-01T08:39:57.000Z</time>
      </trkpt>
      <trkpt lat="46.0047" lon="6.79297">
        <ele>1841</ele>
        <time>2000-01-01T08:40:07.000Z</time>
      </trkpt>
      <trkpt lat="46.00456" lon="6.79293">
        <ele>1837.9</ele>
        <time>2000-01-01T08:40:17.000Z</time>
      </trkpt>
      <trkpt lat="46.00443" lon="6.79294">
        <ele>1835</ele>
        <time>2000-01-01T08:40:27.000Z</time>
      </trkpt>
      <trkpt lat="46.00435" lon="6.79289">
        <ele>1835.7</ele>
        <time>2000-01-01T08:40:37.000Z</time>
      </trkpt>
      <trkpt lat="46.00436" lon="6.79275">
        <ele>1833.8</ele>
        <time>2000-01-01T08:40:47.000Z</time>
      </trkpt>
      <trkpt lat="46.00441" lon="6.79263">
        <ele>1827</ele>
        <time>2000-01-01T08:40:57.000Z</time>
      </trkpt>
      <trkpt lat="46.00435" lon="6.79247">
        <ele>1822.7</ele>
        <time>2000-01-01T08:41:07.000Z</time>
      </trkpt>
      <trkpt lat="46.00426" lon="6.79247">
        <ele>1817</ele>
        <time>2000-01-01T08:41:17.000Z</time>
      </trkpt>
      <trkpt lat="46.00413" lon="6.79254">
        <ele>1824.3</ele>
        <time>2000-01-01T08:41:27.000Z</time>
      </trkpt>
      <trkpt lat="46.00399" lon="6.79268">
        <ele>1815</ele>
        <time>2000-01-01T08:41:37.000Z</time>
      </trkpt>
      <trkpt lat="46.00394" lon="6.79251">
        <ele>1826.5</ele>
        <time>2000-01-01T08:41:47.000Z</time>
      </trkpt>
      <trkpt lat="46.00391" lon="6.79234">
        <ele>1813</ele>
        <time>2000-01-01T08:41:57.000Z</time>
      </trkpt>
      <trkpt lat="46.00395" lon="6.7922">
        <ele>1818.8</ele>
        <time>2000-01-01T08:42:07.000Z</time>
      </trkpt>
      <trkpt lat="46.00403" lon="6.7921">
        <ele>1811</ele>
        <time>2000-01-01T08:42:17.000Z</time>
      </trkpt>
      <trkpt lat="46.00416" lon="6.79203">
        <ele>1817.5</ele>
        <time>2000-01-01T08:42:27.000Z</time>
      </trkpt>
      <trkpt lat="46.00426" lon="6.79202">
        <ele>1810</ele>
        <time>2000-01-01T08:42:37.000Z</time>
      </trkpt>
      <trkpt lat="46.0044" lon="6.79198">
        <ele>1819.4</ele>
        <time>2000-01-01T08:42:47.000Z</time>
      </trkpt>
      <trkpt lat="46.00447" lon="6.79178">
        <ele>1808</ele>
        <time>2000-01-01T08:42:57.000Z</time>
      </trkpt>
      <trkpt lat="46.00454" lon="6.79161">
        <ele>1810.9</ele>
        <time>2000-01-01T08:43:07.000Z</time>
      </trkpt>
      <trkpt lat="46.00447" lon="6.79177">
        <ele>1808</ele>
        <time>2000-01-01T08:43:17.000Z</time>
      </trkpt>
      <trkpt lat="46.00441" lon="6.79195">
        <ele>1819.1</ele>
        <time>2000-01-01T08:43:27.000Z</time>
      </trkpt>
      <trkpt lat="46.00427" lon="6.79202">
        <ele>1810</ele>
        <time>2000-01-01T08:43:37.000Z</time>
      </trkpt>
      <trkpt lat="46.00416" lon="6.79202">
        <ele>1817.4</ele>
        <time>2000-01-01T08:43:47.000Z</time>
      </trkpt>
      <trkpt lat="46.00403" lon="6.7921">
        <ele>1811</ele>
        <time>2000-01-01T08:43:57.000Z</time>
      </trkpt>
      <trkpt lat="46.00392" lon="6.79224">
        <ele>1819</ele>
        <time>2000-01-01T08:44:07.000Z</time>
      </trkpt>
      <trkpt lat="46.00384" lon="6.79236">
        <ele>1812</ele>
        <time>2000-01-01T08:44:17.000Z</time>
      </trkpt>
      <trkpt lat="46.0037" lon="6.7926">
        <ele>1812</ele>
        <time>2000-01-01T08:44:27.000Z</time>
      </trkpt>
      <trkpt lat="46.00364" lon="6.79254">
        <ele>1826.8</ele>
        <time>2000-01-01T08:44:37.000Z</time>
      </trkpt>
      <trkpt lat="46.00356" lon="6.79234">
        <ele>1812</ele>
        <time>2000-01-01T08:44:47.000Z</time>
      </trkpt>
      <trkpt lat="46.0035" lon="6.79234">
        <ele>1819.6</ele>
        <time>2000-01-01T08:44:57.000Z</time>
      </trkpt>
      <trkpt lat="46.00343" lon="6.7925">
        <ele>1815</ele>
        <time>2000-01-01T08:45:07.000Z</time>
      </trkpt>
      <trkpt lat="46.00335" lon="6.79258">
        <ele>1824.2</ele>
        <time>2000-01-01T08:45:17.000Z</time>
      </trkpt>
      <trkpt lat="46.00332" lon="6.79266">
        <ele>1832.6</ele>
        <time>2000-01-01T08:45:27.000Z</time>
      </trkpt>
      <trkpt lat="46.00336" lon="6.79282">
        <ele>1823</ele>
        <time>2000-01-01T08:45:37.000Z</time>
      </trkpt>
      <trkpt lat="46.00326" lon="6.79283">
        <ele>1838.6</ele>
        <time>2000-01-01T08:45:47.000Z</time>
      </trkpt>
      <trkpt lat="46.00307" lon="6.79278">
        <ele>1833</ele>
        <time>2000-01-01T08:45:57.000Z</time>
      </trkpt>
      <trkpt lat="46.003" lon="6.79273">
        <ele>1841.9</ele>
        <time>2000-01-01T08:46:07.000Z</time>
      </trkpt>
      <trkpt lat="46.00279" lon="6.7926">
        <ele>1842</ele>
        <time>2000-01-01T08:46:17.000Z</time>
      </trkpt>
      <trkpt lat="46.00267" lon="6.79257">
        <ele>1848.3</ele>
        <time>2000-01-01T08:46:27.000Z</time>
      </trkpt>
      <trkpt lat="46.00247" lon="6.79242">
        <ele>1852</ele>
        <time>2000-01-01T08:46:37.000Z</time>
      </trkpt>
      <trkpt lat="46.00222" lon="6.79237">
        <ele>1859</ele>
        <time>2000-01-01T08:46:47.000Z</time>
      </trkpt>
      <trkpt lat="46.00212" lon="6.79239">
        <ele>1863.2</ele>
        <time>2000-01-01T08:46:57.000Z</time>
      </trkpt>
      <trkpt lat="46.00211" lon="6.79228">
        <ele>1862.9</ele>
        <time>2000-01-01T08:47:07.000Z</time>
      </trkpt>
      <trkpt lat="46.00203" lon="6.79219">
        <ele>1863</ele>
        <time>2000-01-01T08:47:17.000Z</time>
      </trkpt>
      <trkpt lat="46.00197" lon="6.79214">
        <ele>1865</ele>
        <time>2000-01-01T08:47:27.000Z</time>
      </trkpt>
      <trkpt lat="46.00196" lon="6.79239">
        <ele>1873</ele>
        <time>2000-01-01T08:47:37.000Z</time>
      </trkpt>
      <trkpt lat="46.00187" lon="6.79231">
        <ele>1869.8</ele>
        <time>2000-01-01T08:47:47.000Z</time>
      </trkpt>
      <trkpt lat="46.00189" lon="6.79248">
        <ele>1879</ele>
        <time>2000-01-01T08:47:57.000Z</time>
      </trkpt>
      <trkpt lat="46.00195" lon="6.79271">
        <ele>1879.7</ele>
        <time>2000-01-01T08:48:07.000Z</time>
      </trkpt>
      <trkpt lat="46.00198" lon="6.79302">
        <ele>1890</ele>
        <time>2000-01-01T08:48:17.000Z</time>
      </trkpt>
      <trkpt lat="46.00203" lon="6.79328">
        <ele>1884.2</ele>
        <time>2000-01-01T08:48:27.000Z</time>
      </trkpt>
      <trkpt lat="46.00209" lon="6.79364">
        <ele>1901</ele>
        <time>2000-01-01T08:48:37.000Z</time>
      </trkpt>
      <trkpt lat="46.00217" lon="6.7939">
        <ele>1908</ele>
        <time>2000-01-01T08:48:47.000Z</time>
      </trkpt>
      <trkpt lat="46.00217" lon="6.79424">
        <ele>1919</ele>
        <time>2000-01-01T08:48:57.000Z</time>
      </trkpt>
      <trkpt lat="46.00217" lon="6.7946">
        <ele>1925</ele>
        <time>2000-01-01T08:49:07.000Z</time>
      </trkpt>
      <trkpt lat="46.0022" lon="6.79502">
        <ele>1934</ele>
        <time>2000-01-01T08:49:17.000Z</time>
      </trkpt>
      <trkpt lat="46.00214" lon="6.79532">
        <ele>1939</ele>
        <time>2000-01-01T08:49:27.000Z</time>
      </trkpt>
      <trkpt lat="46.00211" lon="6.79559">
        <ele>1943</ele>
        <time>2000-01-01T08:49:37.000Z</time>
      </trkpt>
      <trkpt lat="46.00211" lon="6.79581">
        <ele>1947</ele>
        <time>2000-01-01T08:49:47.000Z</time>
      </trkpt>
      <trkpt lat="46.00199" lon="6.79574">
        <ele>1960</ele>
        <time>2000-01-01T08:49:57.000Z</time>
      </trkpt>
      <trkpt lat="46.00202" lon="6.79592">
        <ele>1962</ele>
        <time>2000-01-01T08:50:07.000Z</time>
      </trkpt>
      <trkpt lat="46.00203" lon="6.79607">
        <ele>1960</ele>
        <time>2000-01-01T08:50:17.000Z</time>
      </trkpt>
      <trkpt lat="46.00198" lon="6.79622">
        <ele>1964.7</ele>
        <time>2000-01-01T08:50:27.000Z</time>
      </trkpt>
      <trkpt lat="46.00196" lon="6.7964">
        <ele>1971</ele>
        <time>2000-01-01T08:50:37.000Z</time>
      </trkpt>
      <trkpt lat="46.0021" lon="6.79663">
        <ele>1973</ele>
        <time>2000-01-01T08:50:47.000Z</time>
      </trkpt>
      <trkpt lat="46.00221" lon="6.7971">
        <ele>1977</ele>
        <time>2000-01-01T08:50:57.000Z</time>
      </trkpt>
      <trkpt lat="46.00219" lon="6.79724">
        <ele>1980.4</ele>
        <time>2000-01-01T08:51:07.000Z</time>
      </trkpt>
      <trkpt lat="46.00219" lon="6.79738">
        <ele>1987</ele>
        <time>2000-01-01T08:51:17.000Z</time>
      </trkpt>
      <trkpt lat="46.00213" lon="6.79741">
        <ele>1982.9</ele>
        <time>2000-01-01T08:51:27.000Z</time>
      </trkpt>
      <trkpt lat="46.00203" lon="6.79732">
        <ele>1984.6</ele>
        <time>2000-01-01T08:51:37.000Z</time>
      </trkpt>
      <trkpt lat="46.00192" lon="6.79732">
        <ele>1993</ele>
        <time>2000-01-01T08:51:47.000Z</time>
      </trkpt>
      <trkpt lat="46.00185" lon="6.7973">
        <ele>1989</ele>
        <time>2000-01-01T08:51:57.000Z</time>
      </trkpt>
      <trkpt lat="46.00179" lon="6.79721">
        <ele>1988.1</ele>
        <time>2000-01-01T08:52:07.000Z</time>
      </trkpt>
      <trkpt lat="46.00161" lon="6.79725">
        <ele>2000</ele>
        <time>2000-01-01T08:52:17.000Z</time>
      </trkpt>
      <trkpt lat="46.00146" lon="6.79727">
        <ele>2012.7</ele>
        <time>2000-01-01T08:52:27.000Z</time>
      </trkpt>
      <trkpt lat="46.00153" lon="6.7974">
        <ele>2005</ele>
        <time>2000-01-01T08:52:37.000Z</time>
      </trkpt>
      <trkpt lat="46.00159" lon="6.79761">
        <ele>2015.4</ele>
        <time>2000-01-01T08:52:47.000Z</time>
      </trkpt>
      <trkpt lat="46.00168" lon="6.79786">
        <ele>2018</ele>
        <time>2000-01-01T08:52:57.000Z</time>
      </trkpt>
      <trkpt lat="46.0017" lon="6.79802">
        <ele>2005.3</ele>
        <time>2000-01-01T08:53:07.000Z</time>
      </trkpt>
      <trkpt lat="46.0016" lon="6.79802">
        <ele>2026</ele>
        <time>2000-01-01T08:53:17.000Z</time>
      </trkpt>
      <trkpt lat="46.00148" lon="6.79801">
        <ele>2026.3</ele>
        <time>2000-01-01T08:53:27.000Z</time>
      </trkpt>
      <trkpt lat="46.00139" lon="6.79796">
        <ele>2031</ele>
        <time>2000-01-01T08:53:37.000Z</time>
      </trkpt>
      <trkpt lat="46.00131" lon="6.79798">
        <ele>2029.4</ele>
        <time>2000-01-01T08:53:47.000Z</time>
      </trkpt>
      <trkpt lat="46.00125" lon="6.79795">
        <ele>2030.5</ele>
        <time>2000-01-01T08:53:57.000Z</time>
      </trkpt>
      <trkpt lat="46.00119" lon="6.79805">
        <ele>2039</ele>
        <time>2000-01-01T08:54:07.000Z</time>
      </trkpt>
      <trkpt lat="46.00125" lon="6.79818">
        <ele>2032</ele>
        <time>2000-01-01T08:54:17.000Z</time>
      </trkpt>
      <trkpt lat="46.00124" lon="6.79832">
        <ele>2045</ele>
        <time>2000-01-01T08:54:27.000Z</time>
      </trkpt>
      <trkpt lat="46.00111" lon="6.79836">
        <ele>2046.1</ele>
        <time>2000-01-01T08:54:37.000Z</time>
      </trkpt>
      <trkpt lat="46.00104" lon="6.7985">
        <ele>2053</ele>
        <time>2000-01-01T08:54:47.000Z</time>
      </trkpt>
      <trkpt lat="46.00084" lon="6.79854">
        <ele>2058</ele>
        <time>2000-01-01T08:54:57.000Z</time>
      </trkpt>
      <trkpt lat="46.00056" lon="6.79849">
        <ele>2068</ele>
        <time>2000-01-01T08:55:07.000Z</time>
      </trkpt>
      <trkpt lat="46.00035" lon="6.79842">
        <ele>2076</ele>
        <time>2000-01-01T08:55:17.000Z</time>
      </trkpt>
      <trkpt lat="46.00015" lon="6.79842">
        <ele>2078</ele>
        <time>2000-01-01T08:55:27.000Z</time>
      </trkpt>
      <trkpt lat="46.00005" lon="6.79847">
        <ele>2077.4</ele>
        <time>2000-01-01T08:55:37.000Z</time>
      </trkpt>
      <trkpt lat="45.99986" lon="6.79849">
        <ele>2080</ele>
        <time>2000-01-01T08:55:47.000Z</time>
      </trkpt>
      <trkpt lat="45.99972" lon="6.79865">
        <ele>2084.3</ele>
        <time>2000-01-01T08:55:57.000Z</time>
      </trkpt>
      <trkpt lat="45.99957" lon="6.79868">
        <ele>2082</ele>
        <time>2000-01-01T08:56:07.000Z</time>
      </trkpt>
      <trkpt lat="45.99951" lon="6.7988">
        <ele>2085.3</ele>
        <time>2000-01-01T08:56:17.000Z</time>
      </trkpt>
      <trkpt lat="45.99938" lon="6.7989">
        <ele>2083</ele>
        <time>2000-01-01T08:56:27.000Z</time>
      </trkpt>
      <trkpt lat="45.99926" lon="6.7991">
        <ele>2088.8</ele>
        <time>2000-01-01T08:56:37.000Z</time>
      </trkpt>
      <trkpt lat="45.99911" lon="6.79929">
        <ele>2087</ele>
        <time>2000-01-01T08:56:47.000Z</time>
      </trkpt>
      <trkpt lat="45.99892" lon="6.79928">
        <ele>2089</ele>
        <time>2000-01-01T08:56:57.000Z</time>
      </trkpt>
      <trkpt lat="45.99879" lon="6.79929">
        <ele>2105.7</ele>
        <time>2000-01-01T08:57:07.000Z</time>
      </trkpt>
      <trkpt lat="45.99868" lon="6.79923">
        <ele>2097</ele>
        <time>2000-01-01T08:57:17.000Z</time>
      </trkpt>
      <trkpt lat="45.99859" lon="6.79909">
        <ele>2099.5</ele>
        <time>2000-01-01T08:57:27.000Z</time>
      </trkpt>
      <trkpt lat="45.99842" lon="6.79893">
        <ele>2100</ele>
        <time>2000-01-01T08:57:37.000Z</time>
      </trkpt>
      <trkpt lat="45.99813" lon="6.79854">
        <ele>2105</ele>
        <time>2000-01-01T08:57:47.000Z</time>
      </trkpt>
      <trkpt lat="45.9981" lon="6.79833">
        <ele>2099.8</ele>
        <time>2000-01-01T08:57:57.000Z</time>
      </trkpt>
      <trkpt lat="45.99808" lon="6.79814">
        <ele>2110</ele>
        <time>2000-01-01T08:58:07.000Z</time>
      </trkpt>
      <trkpt lat="45.99796" lon="6.79809">
        <ele>2101.3</ele>
        <time>2000-01-01T08:58:17.000Z</time>
      </trkpt>
      <trkpt lat="45.99786" lon="6.79799">
        <ele>2115</ele>
        <time>2000-01-01T08:58:27.000Z</time>
      </trkpt>
      <trkpt lat="45.99774" lon="6.79782">
        <ele>2102.9</ele>
        <time>2000-01-01T08:58:37.000Z</time>
      </trkpt>
      <trkpt lat="45.99759" lon="6.79771">
        <ele>2115</ele>
        <time>2000-01-01T08:58:47.000Z</time>
      </trkpt>
      <trkpt lat="45.99747" lon="6.79759">
        <ele>2110</ele>
        <time>2000-01-01T08:58:57.000Z</time>
      </trkpt>
      <trkpt lat="45.99735" lon="6.7976">
        <ele>2111</ele>
        <time>2000-01-01T08:59:07.000Z</time>
      </trkpt>
      <trkpt lat="45.9972" lon="6.7975">
        <ele>2109.4</ele>
        <time>2000-01-01T08:59:17.000Z</time>
      </trkpt>
      <trkpt lat="45.99708" lon="6.7975">
        <ele>2110</ele>
        <time>2000-01-01T08:59:27.000Z</time>
      </trkpt>
      <trkpt lat="45.997" lon="6.798">
        <ele>2108</ele>
        <time>2000-01-01T08:59:37.000Z</time>
      </trkpt>
      <trkpt lat="45.99692" lon="6.79825">
        <ele>2104</ele>
        <time>2000-01-01T08:59:47.000Z</time>
      </trkpt>
      <trkpt lat="45.99688" lon="6.7984">
        <ele>2109.3</ele>
        <time>2000-01-01T08:59:57.000Z</time>
      </trkpt>
      <trkpt lat="45.99658" lon="6.7984">
        <ele>2096</ele>
        <time>2000-01-01T09:00:07.000Z</time>
      </trkpt>
      <trkpt lat="45.99642" lon="6.79853">
        <ele>2095.8</ele>
        <time>2000-01-01T09:00:17.000Z</time>
      </trkpt>
      <trkpt lat="45.99624" lon="6.7986">
        <ele>2085</ele>
        <time>2000-01-01T09:00:27.000Z</time>
      </trkpt>
      <trkpt lat="45.99614" lon="6.79871">
        <ele>2091.7</ele>
        <time>2000-01-01T09:00:37.000Z</time>
      </trkpt>
      <trkpt lat="45.99597" lon="6.79879">
        <ele>2080</ele>
        <time>2000-01-01T09:00:47.000Z</time>
      </trkpt>
      <trkpt lat="45.99577" lon="6.79879">
        <ele>2078</ele>
        <time>2000-01-01T09:00:57.000Z</time>
      </trkpt>
      <trkpt lat="45.99563" lon="6.79882">
        <ele>2078</ele>
        <time>2000-01-01T09:01:07.000Z</time>
      </trkpt>
      <trkpt lat="45.99548" lon="6.7989">
        <ele>2074</ele>
        <time>2000-01-01T09:01:17.000Z</time>
      </trkpt>
      <trkpt lat="45.99534" lon="6.7989">
        <ele>2075.9</ele>
        <time>2000-01-01T09:01:27.000Z</time>
      </trkpt>
      <trkpt lat="45.99493" lon="6.79898">
        <ele>2068</ele>
        <time>2000-01-01T09:01:37.000Z</time>
      </trkpt>
      <trkpt lat="45.99465" lon="6.799">
        <ele>2066</ele>
        <time>2000-01-01T09:01:47.000Z</time>
      </trkpt>
      <trkpt lat="45.99431" lon="6.79908">
        <ele>2064</ele>
        <time>2000-01-01T09:01:57.000Z</time>
      </trkpt>
      <trkpt lat="45.99422" lon="6.79929">
        <ele>2069.9</ele>
        <time>2000-01-01T09:02:07.000Z</time>
      </trkpt>
      <trkpt lat="45.99412" lon="6.79955">
        <ele>2064</ele>
        <time>2000-01-01T09:02:17.000Z</time>
      </trkpt>
      <trkpt lat="45.99408" lon="6.79978">
        <ele>2072.1</ele>
        <time>2000-01-01T09:02:27.000Z</time>
      </trkpt>
      <trkpt lat="45.99387" lon="6.79998">
        <ele>2064</ele>
        <time>2000-01-01T09:02:37.000Z</time>
      </trkpt>
      <trkpt lat="45.99374" lon="6.80022">
        <ele>2064</ele>
        <time>2000-01-01T09:02:47.000Z</time>
      </trkpt>
      <trkpt lat="45.99354" lon="6.80039">
        <ele>2062</ele>
        <time>2000-01-01T09:02:57.000Z</time>
      </trkpt>
      <trkpt lat="45.99343" lon="6.80039">
        <ele>2073.4</ele>
        <time>2000-01-01T09:03:07.000Z</time>
      </trkpt>
      <trkpt lat="45.99328" lon="6.80047">
        <ele>2062</ele>
        <time>2000-01-01T09:03:17.000Z</time>
      </trkpt>
      <trkpt lat="45.99322" lon="6.80057">
        <ele>2066.5</ele>
        <time>2000-01-01T09:03:27.000Z</time>
      </trkpt>
      <trkpt lat="45.99287" lon="6.80065">
        <ele>2062</ele>
        <time>2000-01-01T09:03:37.000Z</time>
      </trkpt>
      <trkpt lat="45.99275" lon="6.80064">
        <ele>2064.9</ele>
        <time>2000-01-01T09:03:47.000Z</time>
      </trkpt>
      <trkpt lat="45.99264" lon="6.80053">
        <ele>2061</ele>
        <time>2000-01-01T09:03:57.000Z</time>
      </trkpt>
      <trkpt lat="45.99258" lon="6.80036">
        <ele>2064</ele>
        <time>2000-01-01T09:04:07.000Z</time>
      </trkpt>
      <trkpt lat="45.99251" lon="6.80039">
        <ele>2061</ele>
        <time>2000-01-01T09:04:17.000Z</time>
      </trkpt>
      <trkpt lat="45.99255" lon="6.80065">
        <ele>2064.4</ele>
        <time>2000-01-01T09:04:27.000Z</time>
      </trkpt>
      <trkpt lat="45.9925" lon="6.80069">
        <ele>2061</ele>
        <time>2000-01-01T09:04:37.000Z</time>
      </trkpt>
      <trkpt lat="45.99221" lon="6.80078">
        <ele>2061</ele>
        <time>2000-01-01T09:04:47.000Z</time>
      </trkpt>
      <trkpt lat="45.99195" lon="6.80084">
        <ele>2060</ele>
        <time>2000-01-01T09:04:57.000Z</time>
      </trkpt>
      <trkpt lat="45.99164" lon="6.80093">
        <ele>2059</ele>
        <time>2000-01-01T09:05:07.000Z</time>
      </trkpt>
      <trkpt lat="45.9914" lon="6.80098">
        <ele>2059</ele>
        <time>2000-01-01T09:05:17.000Z</time>
      </trkpt>
      <trkpt lat="45.99112" lon="6.80107">
        <ele>2059</ele>
        <time>2000-01-01T09:05:27.000Z</time>
      </trkpt>
      <trkpt lat="45.99081" lon="6.80118">
        <ele>2059</ele>
        <time>2000-01-01T09:05:37.000Z</time>
      </trkpt>
      <trkpt lat="45.99063" lon="6.80126">
        <ele>2059</ele>
        <time>2000-01-01T09:05:47.000Z</time>
      </trkpt>
      <trkpt lat="45.99017" lon="6.80136">
        <ele>2059</ele>
        <time>2000-01-01T09:05:57.000Z</time>
      </trkpt>
      <trkpt lat="45.98991" lon="6.80127">
        <ele>2059</ele>
        <time>2000-01-01T09:06:07.000Z</time>
      </trkpt>
      <trkpt lat="45.98974" lon="6.80116">
        <ele>2067.2</ele>
        <time>2000-01-01T09:06:17.000Z</time>
      </trkpt>
      <trkpt lat="45.98935" lon="6.80078">
        <ele>2063</ele>
        <time>2000-01-01T09:06:27.000Z</time>
      </trkpt>
      <trkpt lat="45.9891" lon="6.80057">
        <ele>2065</ele>
        <time>2000-01-01T09:06:37.000Z</time>
      </trkpt>
      <trkpt lat="45.98888" lon="6.8004">
        <ele>2066</ele>
        <time>2000-01-01T09:06:47.000Z</time>
      </trkpt>
      <trkpt lat="45.98872" lon="6.80021">
        <ele>2066</ele>
        <time>2000-01-01T09:06:57.000Z</time>
      </trkpt>
      <trkpt lat="45.98855" lon="6.8002">
        <ele>2072.7</ele>
        <time>2000-01-01T09:07:07.000Z</time>
      </trkpt>
      <trkpt lat="45.98844" lon="6.80023">
        <ele>2074</ele>
        <time>2000-01-01T09:07:17.000Z</time>
      </trkpt>
      <trkpt lat="45.98829" lon="6.79997">
        <ele>2075</ele>
        <time>2000-01-01T09:07:27.000Z</time>
      </trkpt>
      <trkpt lat="45.9882" lon="6.79987">
        <ele>2082.2</ele>
        <time>2000-01-01T09:07:37.000Z</time>
      </trkpt>
      <trkpt lat="45.98806" lon="6.79978">
        <ele>2077</ele>
        <time>2000-01-01T09:07:47.000Z</time>
      </trkpt>
      <trkpt lat="45.98801" lon="6.79953">
        <ele>2088.6</ele>
        <time>2000-01-01T09:07:57.000Z</time>
      </trkpt>
      <trkpt lat="45.98804" lon="6.79935">
        <ele>2081</ele>
        <time>2000-01-01T09:08:07.000Z</time>
      </trkpt>
      <trkpt lat="45.98802" lon="6.79906">
        <ele>2085</ele>
        <time>2000-01-01T09:08:17.000Z</time>
      </trkpt>
      <trkpt lat="45.98793" lon="6.79918">
        <ele>2091.4</ele>
        <time>2000-01-01T09:08:27.000Z</time>
      </trkpt>
      <trkpt lat="45.98779" lon="6.79941">
        <ele>2100</ele>
        <time>2000-01-01T09:08:37.000Z</time>
      </trkpt>
      <trkpt lat="45.98755" lon="6.79966">
        <ele>2105</ele>
        <time>2000-01-01T09:08:47.000Z</time>
      </trkpt>
      <trkpt lat="45.9873" lon="6.79968">
        <ele>2116</ele>
        <time>2000-01-01T09:08:57.000Z</time>
      </trkpt>
      <trkpt lat="45.98703" lon="6.79977">
        <ele>2120</ele>
        <time>2000-01-01T09:09:07.000Z</time>
      </trkpt>
      <trkpt lat="45.98674" lon="6.79974">
        <ele>2126</ele>
        <time>2000-01-01T09:09:17.000Z</time>
      </trkpt>
      <trkpt lat="45.9865" lon="6.79982">
        <ele>2129</ele>
        <time>2000-01-01T09:09:27.000Z</time>
      </trkpt>
      <trkpt lat="45.98629" lon="6.7998">
        <ele>2133</ele>
        <time>2000-01-01T09:09:37.000Z</time>
      </trkpt>
      <trkpt lat="45.9861" lon="6.79967">
        <ele>2138</ele>
        <time>2000-01-01T09:09:47.000Z</time>
      </trkpt>
      <trkpt lat="45.98607" lon="6.79954">
        <ele>2140.7</ele>
        <time>2000-01-01T09:09:57.000Z</time>
      </trkpt>
      <trkpt lat="45.98571" lon="6.79925">
        <ele>2144</ele>
        <time>2000-01-01T09:10:07.000Z</time>
      </trkpt>
      <trkpt lat="45.98559" lon="6.79882">
        <ele>2147</ele>
        <time>2000-01-01T09:10:17.000Z</time>
      </trkpt>
      <trkpt lat="45.98551" lon="6.79857">
        <ele>2150</ele>
        <time>2000-01-01T09:10:27.000Z</time>
      </trkpt>
      <trkpt lat="45.98548" lon="6.79838">
        <ele>2158.8</ele>
        <time>2000-01-01T09:10:37.000Z</time>
      </trkpt>
      <trkpt lat="45.98532" lon="6.7982">
        <ele>2157</ele>
        <time>2000-01-01T09:10:47.000Z</time>
      </trkpt>
      <trkpt lat="45.98505" lon="6.79819">
        <ele>2157</ele>
        <time>2000-01-01T09:10:57.000Z</time>
      </trkpt>
      <trkpt lat="45.98491" lon="6.7982">
        <ele>2166.3</ele>
        <time>2000-01-01T09:11:07.000Z</time>
      </trkpt>
      <trkpt lat="45.98478" lon="6.79818">
        <ele>2159</ele>
        <time>2000-01-01T09:11:17.000Z</time>
      </trkpt>
      <trkpt lat="45.98465" lon="6.79821">
        <ele>2169.5</ele>
        <time>2000-01-01T09:11:27.000Z</time>
      </trkpt>
      <trkpt lat="45.98452" lon="6.79804">
        <ele>2161</ele>
        <time>2000-01-01T09:11:37.000Z</time>
      </trkpt>
      <trkpt lat="45.98433" lon="6.79797">
        <ele>2163</ele>
        <time>2000-01-01T09:11:47.000Z</time>
      </trkpt>
      <trkpt lat="45.98412" lon="6.79798">
        <ele>2167</ele>
        <time>2000-01-01T09:11:57.000Z</time>
      </trkpt>
      <trkpt lat="45.98395" lon="6.79805">
        <ele>2179</ele>
        <time>2000-01-01T09:12:07.000Z</time>
      </trkpt>
      <trkpt lat="45.98374" lon="6.79802">
        <ele>2179</ele>
        <time>2000-01-01T09:12:17.000Z</time>
      </trkpt>
      <trkpt lat="45.98345" lon="6.79787">
        <ele>2184</ele>
        <time>2000-01-01T09:12:27.000Z</time>
      </trkpt>
      <trkpt lat="45.98325" lon="6.79769">
        <ele>2188</ele>
        <time>2000-01-01T09:12:37.000Z</time>
      </trkpt>
      <trkpt lat="45.98297" lon="6.79758">
        <ele>2191</ele>
        <time>2000-01-01T09:12:47.000Z</time>
      </trkpt>
      <trkpt lat="45.9828" lon="6.7976">
        <ele>2197.8</ele>
        <time>2000-01-01T09:12:57.000Z</time>
      </trkpt>
      <trkpt lat="45.98242" lon="6.79753">
        <ele>2199</ele>
        <time>2000-01-01T09:13:07.000Z</time>
      </trkpt>
      <trkpt lat="45.98238" lon="6.79759">
        <ele>2206.2</ele>
        <time>2000-01-01T09:13:17.000Z</time>
      </trkpt>
      <trkpt lat="45.98224" lon="6.79762">
        <ele>2205</ele>
        <time>2000-01-01T09:13:27.000Z</time>
      </trkpt>
      <trkpt lat="45.98213" lon="6.79772">
        <ele>2209.2</ele>
        <time>2000-01-01T09:13:37.000Z</time>
      </trkpt>
      <trkpt lat="45.98203" lon="6.79784">
        <ele>2209</ele>
        <time>2000-01-01T09:13:47.000Z</time>
      </trkpt>
      <trkpt lat="45.98187" lon="6.79785">
        <ele>2211</ele>
        <time>2000-01-01T09:13:57.000Z</time>
      </trkpt>
      <trkpt lat="45.98173" lon="6.79773">
        <ele>2215</ele>
        <time>2000-01-01T09:14:07.000Z</time>
      </trkpt>
      <trkpt lat="45.98157" lon="6.79764">
        <ele>2219.7</ele>
        <time>2000-01-01T09:14:17.000Z</time>
      </trkpt>
      <trkpt lat="45.98146" lon="6.79749">
        <ele>2224</ele>
        <time>2000-01-01T09:14:27.000Z</time>
      </trkpt>
      <trkpt lat="45.98129" lon="6.79736">
        <ele>2232</ele>
        <time>2000-01-01T09:14:37.000Z</time>
      </trkpt>
      <trkpt lat="45.98112" lon="6.7972">
        <ele>2235</ele>
        <time>2000-01-01T09:14:47.000Z</time>
      </trkpt>
      <trkpt lat="45.98097" lon="6.79702">
        <ele>2238</ele>
        <time>2000-01-01T09:14:57.000Z</time>
      </trkpt>
      <trkpt lat="45.98083" lon="6.79682">
        <ele>2241</ele>
        <time>2000-01-01T09:15:07.000Z</time>
      </trkpt>
      <trkpt lat="45.98076" lon="6.79675">
        <ele>2235.3</ele>
        <time>2000-01-01T09:15:17.000Z</time>
      </trkpt>
      <trkpt lat="45.98064" lon="6.79672">
        <ele>2250</ele>
        <time>2000-01-01T09:15:27.000Z</time>
      </trkpt>
      <trkpt lat="45.98049" lon="6.79655">
        <ele>2255</ele>
        <time>2000-01-01T09:15:37.000Z</time>
      </trkpt>
      <trkpt lat="45.9803" lon="6.79649">
        <ele>2254</ele>
        <time>2000-01-01T09:15:47.000Z</time>
      </trkpt>
      <trkpt lat="45.9801" lon="6.79648">
        <ele>2253</ele>
        <time>2000-01-01T09:15:57.000Z</time>
      </trkpt>
      <trkpt lat="45.98012" lon="6.7966">
        <ele>2241</ele>
        <time>2000-01-01T09:16:07.000Z</time>
      </trkpt>
      <trkpt lat="45.98006" lon="6.79673">
        <ele>2244</ele>
        <time>2000-01-01T09:16:17.000Z</time>
      </trkpt>
      <trkpt lat="45.98008" lon="6.79685">
        <ele>2239.4</ele>
        <time>2000-01-01T09:16:27.000Z</time>
      </trkpt>
      <trkpt lat="45.97997" lon="6.79718">
        <ele>2239</ele>
        <time>2000-01-01T09:16:37.000Z</time>
      </trkpt>
      <trkpt lat="45.97989" lon="6.79689">
        <ele>2234</ele>
        <time>2000-01-01T09:16:47.000Z</time>
      </trkpt>
      <trkpt lat="45.97985" lon="6.79693">
        <ele>2223.7</ele>
        <time>2000-01-01T09:16:57.000Z</time>
      </trkpt>
      <trkpt lat="45.97978" lon="6.79723">
        <ele>2216</ele>
        <time>2000-01-01T09:17:07.000Z</time>
      </trkpt>
      <trkpt lat="45.9797" lon="6.79766">
        <ele>2203</ele>
        <time>2000-01-01T09:17:17.000Z</time>
      </trkpt>
      <trkpt lat="45.97968" lon="6.79771">
        <ele>2204.3</ele>
        <time>2000-01-01T09:17:27.000Z</time>
      </trkpt>
      <trkpt lat="45.97953" lon="6.79752">
        <ele>2199</ele>
        <time>2000-01-01T09:17:37.000Z</time>
      </trkpt>
      <trkpt lat="45.97929" lon="6.7973">
        <ele>2186</ele>
        <time>2000-01-01T09:17:47.000Z</time>
      </trkpt>
      <trkpt lat="45.97906" lon="6.797">
        <ele>2179</ele>
        <time>2000-01-01T09:17:57.000Z</time>
      </trkpt>
      <trkpt lat="45.97888" lon="6.79681">
        <ele>2171</ele>
        <time>2000-01-01T09:18:07.000Z</time>
      </trkpt>
      <trkpt lat="45.9785" lon="6.7966">
        <ele>2162</ele>
        <time>2000-01-01T09:18:17.000Z</time>
      </trkpt>
      <trkpt lat="45.97821" lon="6.79647">
        <ele>2153</ele>
        <time>2000-01-01T09:18:27.000Z</time>
      </trkpt>
      <trkpt lat="45.9783" lon="6.79686">
        <ele>2142</ele>
        <time>2000-01-01T09:18:37.000Z</time>
      </trkpt>
      <trkpt lat="45.97831" lon="6.79708">
        <ele>2136</ele>
        <time>2000-01-01T09:18:47.000Z</time>
      </trkpt>
      <trkpt lat="45.97825" lon="6.79715">
        <ele>2137</ele>
        <time>2000-01-01T09:18:57.000Z</time>
      </trkpt>
      <trkpt lat="45.97822" lon="6.79745">
        <ele>2135</ele>
        <time>2000-01-01T09:19:07.000Z</time>
      </trkpt>
      <trkpt lat="45.97814" lon="6.79754">
        <ele>2130.5</ele>
        <time>2000-01-01T09:19:17.000Z</time>
      </trkpt>
      <trkpt lat="45.97805" lon="6.79756">
        <ele>2127</ele>
        <time>2000-01-01T09:19:27.000Z</time>
      </trkpt>
      <trkpt lat="45.97795" lon="6.79743">
        <ele>2129</ele>
        <time>2000-01-01T09:19:37.000Z</time>
      </trkpt>
      <trkpt lat="45.97792" lon="6.79726">
        <ele>2122</ele>
        <time>2000-01-01T09:19:47.000Z</time>
      </trkpt>
      <trkpt lat="45.97782" lon="6.79712">
        <ele>2127.3</ele>
        <time>2000-01-01T09:19:57.000Z</time>
      </trkpt>
      <trkpt lat="45.97781" lon="6.7969">
        <ele>2120</ele>
        <time>2000-01-01T09:20:07.000Z</time>
      </trkpt>
      <trkpt lat="45.97767" lon="6.79684">
        <ele>2123.6</ele>
        <time>2000-01-01T09:20:17.000Z</time>
      </trkpt>
      <trkpt lat="45.9776" lon="6.79677">
        <ele>2114</ele>
        <time>2000-01-01T09:20:27.000Z</time>
      </trkpt>
      <trkpt lat="45.97759" lon="6.7966">
        <ele>2125.4</ele>
        <time>2000-01-01T09:20:37.000Z</time>
      </trkpt>
      <trkpt lat="45.97752" lon="6.79653">
        <ele>2108</ele>
        <time>2000-01-01T09:20:47.000Z</time>
      </trkpt>
      <trkpt lat="45.97739" lon="6.79652">
        <ele>2109.2</ele>
        <time>2000-01-01T09:20:57.000Z</time>
      </trkpt>
      <trkpt lat="45.97722" lon="6.79635">
        <ele>2097</ele>
        <time>2000-01-01T09:21:07.000Z</time>
      </trkpt>
      <trkpt lat="45.97712" lon="6.79643">
        <ele>2103.6</ele>
        <time>2000-01-01T09:21:17.000Z</time>
      </trkpt>
      <trkpt lat="45.97708" lon="6.79655">
        <ele>2087</ele>
        <time>2000-01-01T09:21:27.000Z</time>
      </trkpt>
      <trkpt lat="45.97703" lon="6.79665">
        <ele>2098.7</ele>
        <time>2000-01-01T09:21:37.000Z</time>
      </trkpt>
      <trkpt lat="45.97692" lon="6.79673">
        <ele>2076</ele>
        <time>2000-01-01T09:21:47.000Z</time>
      </trkpt>
      <trkpt lat="45.97681" lon="6.79676">
        <ele>2081.6</ele>
        <time>2000-01-01T09:21:57.000Z</time>
      </trkpt>
      <trkpt lat="45.97668" lon="6.79663">
        <ele>2066</ele>
        <time>2000-01-01T09:22:07.000Z</time>
      </trkpt>
      <trkpt lat="45.97652" lon="6.79659">
        <ele>2069.5</ele>
        <time>2000-01-01T09:22:17.000Z</time>
      </trkpt>
      <trkpt lat="45.97641" lon="6.79651">
        <ele>2060</ele>
        <time>2000-01-01T09:22:27.000Z</time>
      </trkpt>
      <trkpt lat="45.97631" lon="6.79645">
        <ele>2064.7</ele>
        <time>2000-01-01T09:22:37.000Z</time>
      </trkpt>
      <trkpt lat="45.97636" lon="6.79669">
        <ele>2054</ele>
        <time>2000-01-01T09:22:47.000Z</time>
      </trkpt>
      <trkpt lat="45.97634" lon="6.797">
        <ele>2049</ele>
        <time>2000-01-01T09:22:57.000Z</time>
      </trkpt>
      <trkpt lat="45.9763" lon="6.79716">
        <ele>2049</ele>
        <time>2000-01-01T09:23:07.000Z</time>
      </trkpt>
      <trkpt lat="45.97636" lon="6.79769">
        <ele>2039</ele>
        <time>2000-01-01T09:23:17.000Z</time>
      </trkpt>
      <trkpt lat="45.97637" lon="6.79801">
        <ele>2033</ele>
        <time>2000-01-01T09:23:27.000Z</time>
      </trkpt>
      <trkpt lat="45.97625" lon="6.79826">
        <ele>2032</ele>
        <time>2000-01-01T09:23:37.000Z</time>
      </trkpt>
      <trkpt lat="45.97629" lon="6.79879">
        <ele>2027</ele>
        <time>2000-01-01T09:23:47.000Z</time>
      </trkpt>
      <trkpt lat="45.97613" lon="6.79896">
        <ele>2021</ele>
        <time>2000-01-01T09:23:57.000Z</time>
      </trkpt>
      <trkpt lat="45.97615" lon="6.79913">
        <ele>2028.4</ele>
        <time>2000-01-01T09:24:07.000Z</time>
      </trkpt>
      <trkpt lat="45.9762" lon="6.79924">
        <ele>2017</ele>
        <time>2000-01-01T09:24:17.000Z</time>
      </trkpt>
      <trkpt lat="45.97633" lon="6.79928">
        <ele>2029.8</ele>
        <time>2000-01-01T09:24:27.000Z</time>
      </trkpt>
      <trkpt lat="45.9763" lon="6.79949">
        <ele>2016</ele>
        <time>2000-01-01T09:24:37.000Z</time>
      </trkpt>
      <trkpt lat="45.97629" lon="6.79969">
        <ele>2028</ele>
        <time>2000-01-01T09:24:47.000Z</time>
      </trkpt>
      <trkpt lat="45.97625" lon="6.79983">
        <ele>2015</ele>
        <time>2000-01-01T09:24:57.000Z</time>
      </trkpt>
      <trkpt lat="45.97586" lon="6.8001">
        <ele>2007</ele>
        <time>2000-01-01T09:25:07.000Z</time>
      </trkpt>
      <trkpt lat="45.97576" lon="6.80036">
        <ele>2006</ele>
        <time>2000-01-01T09:25:17.000Z</time>
      </trkpt>
      <trkpt lat="45.97559" lon="6.80046">
        <ele>2002.8</ele>
        <time>2000-01-01T09:25:27.000Z</time>
      </trkpt>
      <trkpt lat="45.97549" lon="6.80062">
        <ele>2000</ele>
        <time>2000-01-01T09:25:37.000Z</time>
      </trkpt>
      <trkpt lat="45.97539" lon="6.80068">
        <ele>2000.8</ele>
        <time>2000-01-01T09:25:47.000Z</time>
      </trkpt>
      <trkpt lat="45.97523" lon="6.8006">
        <ele>1995</ele>
        <time>2000-01-01T09:25:57.000Z</time>
      </trkpt>
      <trkpt lat="45.9751" lon="6.80056">
        <ele>1997.2</ele>
        <time>2000-01-01T09:26:07.000Z</time>
      </trkpt>
      <trkpt lat="45.97496" lon="6.80047">
        <ele>1992</ele>
        <time>2000-01-01T09:26:17.000Z</time>
      </trkpt>
      <trkpt lat="45.97476" lon="6.8003">
        <ele>1988</ele>
        <time>2000-01-01T09:26:27.000Z</time>
      </trkpt>
      <trkpt lat="45.97444" lon="6.80011">
        <ele>1984</ele>
        <time>2000-01-01T09:26:37.000Z</time>
      </trkpt>
      <trkpt lat="45.97435" lon="6.79998">
        <ele>1976.7</ele>
        <time>2000-01-01T09:26:47.000Z</time>
      </trkpt>
      <trkpt lat="45.97416" lon="6.79986">
        <ele>1979</ele>
        <time>2000-01-01T09:26:57.000Z</time>
      </trkpt>
      <trkpt lat="45.97395" lon="6.79965">
        <ele>1977</ele>
        <time>2000-01-01T09:27:07.000Z</time>
      </trkpt>
      <trkpt lat="45.97372" lon="6.7994">
        <ele>1976</ele>
        <time>2000-01-01T09:27:17.000Z</time>
      </trkpt>
      <trkpt lat="45.97336" lon="6.79899">
        <ele>1976</ele>
        <time>2000-01-01T09:27:27.000Z</time>
      </trkpt>
      <trkpt lat="45.97313" lon="6.79884">
        <ele>1975</ele>
        <time>2000-01-01T09:27:37.000Z</time>
      </trkpt>
      <trkpt lat="45.97283" lon="6.79855">
        <ele>1971</ele>
        <time>2000-01-01T09:27:47.000Z</time>
      </trkpt>
      <trkpt lat="45.97254" lon="6.79834">
        <ele>1969</ele>
        <time>2000-01-01T09:27:57.000Z</time>
      </trkpt>
      <trkpt lat="45.97231" lon="6.79821">
        <ele>1967</ele>
        <time>2000-01-01T09:28:07.000Z</time>
      </trkpt>
      <trkpt lat="45.97205" lon="6.79806">
        <ele>1966</ele>
        <time>2000-01-01T09:28:17.000Z</time>
      </trkpt>
      <trkpt lat="45.97184" lon="6.79787">
        <ele>1965</ele>
        <time>2000-01-01T09:28:27.000Z</time>
      </trkpt>
      <trkpt lat="45.9717" lon="6.79781">
        <ele>1956.3</ele>
        <time>2000-01-01T09:28:37.000Z</time>
      </trkpt>
      <trkpt lat="45.97147" lon="6.7975">
        <ele>1959</ele>
        <time>2000-01-01T09:28:47.000Z</time>
      </trkpt>
      <trkpt lat="45.97123" lon="6.79711">
        <ele>1956</ele>
        <time>2000-01-01T09:28:57.000Z</time>
      </trkpt>
      <trkpt lat="45.97082" lon="6.79687">
        <ele>1956</ele>
        <time>2000-01-01T09:29:07.000Z</time>
      </trkpt>
      <trkpt lat="45.97048" lon="6.79668">
        <ele>1956</ele>
        <time>2000-01-01T09:29:17.000Z</time>
      </trkpt>
      <trkpt lat="45.97026" lon="6.79658">
        <ele>1956</ele>
        <time>2000-01-01T09:29:27.000Z</time>
      </trkpt>
      <trkpt lat="45.97004" lon="6.79651">
        <ele>1956</ele>
        <time>2000-01-01T09:29:37.000Z</time>
      </trkpt>
      <trkpt lat="45.96991" lon="6.79635">
        <ele>1959.8</ele>
        <time>2000-01-01T09:29:47.000Z</time>
      </trkpt>
      <trkpt lat="45.96963" lon="6.79624">
        <ele>1962</ele>
        <time>2000-01-01T09:29:57.000Z</time>
      </trkpt>
      <trkpt lat="45.96942" lon="6.79623">
        <ele>1965</ele>
        <time>2000-01-01T09:30:07.000Z</time>
      </trkpt>
      <trkpt lat="45.96933" lon="6.79628">
        <ele>1962.4</ele>
        <time>2000-01-01T09:30:17.000Z</time>
      </trkpt>
      <trkpt lat="45.96912" lon="6.79635">
        <ele>1967</ele>
        <time>2000-01-01T09:30:27.000Z</time>
      </trkpt>
      <trkpt lat="45.96886" lon="6.79637">
        <ele>1969</ele>
        <time>2000-01-01T09:30:37.000Z</time>
      </trkpt>
      <trkpt lat="45.96875" lon="6.79639">
        <ele>1967.8</ele>
        <time>2000-01-01T09:30:47.000Z</time>
      </trkpt>
      <trkpt lat="45.96865" lon="6.79649">
        <ele>1969</ele>
        <time>2000-01-01T09:30:57.000Z</time>
      </trkpt>
      <trkpt lat="45.96858" lon="6.7966">
        <ele>1968.5</ele>
        <time>2000-01-01T09:31:07.000Z</time>
      </trkpt>
      <trkpt lat="45.9684" lon="6.79645">
        <ele>1968</ele>
        <time>2000-01-01T09:31:17.000Z</time>
      </trkpt>
      <trkpt lat="45.96818" lon="6.7963">
        <ele>1967</ele>
        <time>2000-01-01T09:31:27.000Z</time>
      </trkpt>
      <trkpt lat="45.96808" lon="6.79619">
        <ele>1965</ele>
        <time>2000-01-01T09:31:37.000Z</time>
      </trkpt>
      <trkpt lat="45.96796" lon="6.79612">
        <ele>1963</ele>
        <time>2000-01-01T09:31:47.000Z</time>
      </trkpt>
      <trkpt lat="45.96783" lon="6.79607">
        <ele>1962.8</ele>
        <time>2000-01-01T09:31:57.000Z</time>
      </trkpt>
      <trkpt lat="45.9677" lon="6.79614">
        <ele>1960</ele>
        <time>2000-01-01T09:32:07.000Z</time>
      </trkpt>
      <trkpt lat="45.96755" lon="6.79617">
        <ele>1960.8</ele>
        <time>2000-01-01T09:32:17.000Z</time>
      </trkpt>
      <trkpt lat="45.96744" lon="6.796">
        <ele>1958</ele>
        <time>2000-01-01T09:32:27.000Z</time>
      </trkpt>
      <trkpt lat="45.96729" lon="6.79594">
        <ele>1951.7</ele>
        <time>2000-01-01T09:32:37.000Z</time>
      </trkpt>
      <trkpt lat="45.96715" lon="6.79583">
        <ele>1951</ele>
        <time>2000-01-01T09:32:47.000Z</time>
      </trkpt>
      <trkpt lat="45.96704" lon="6.79567">
        <ele>1948.1</ele>
        <time>2000-01-01T09:32:57.000Z</time>
      </trkpt>
      <trkpt lat="45.96696" lon="6.79549">
        <ele>1943</ele>
        <time>2000-01-01T09:33:07.000Z</time>
      </trkpt>
      <trkpt lat="45.96692" lon="6.79534">
        <ele>1946.8</ele>
        <time>2000-01-01T09:33:17.000Z</time>
      </trkpt>
      <trkpt lat="45.96687" lon="6.7952">
        <ele>1943</ele>
        <time>2000-01-01T09:33:27.000Z</time>
      </trkpt>
      <trkpt lat="45.96658" lon="6.7949">
        <ele>1936</ele>
        <time>2000-01-01T09:33:37.000Z</time>
      </trkpt>
      <trkpt lat="45.96639" lon="6.79466">
        <ele>1934</ele>
        <time>2000-01-01T09:33:47.000Z</time>
      </trkpt>
      <trkpt lat="45.96623" lon="6.7944">
        <ele>1933</ele>
        <time>2000-01-01T09:33:57.000Z</time>
      </trkpt>
      <trkpt lat="45.96605" lon="6.79412">
        <ele>1932</ele>
        <time>2000-01-01T09:34:07.000Z</time>
      </trkpt>
      <trkpt lat="45.966" lon="6.79399">
        <ele>1932.5</ele>
        <time>2000-01-01T09:34:17.000Z</time>
      </trkpt>
      <trkpt lat="45.96599" lon="6.79349">
        <ele>1931</ele>
        <time>2000-01-01T09:34:27.000Z</time>
      </trkpt>
      <trkpt lat="45.96607" lon="6.79321">
        <ele>1931</ele>
        <time>2000-01-01T09:34:37.000Z</time>
      </trkpt>
      <trkpt lat="45.96616" lon="6.79306">
        <ele>1924.4</ele>
        <time>2000-01-01T09:34:47.000Z</time>
      </trkpt>
      <trkpt lat="45.96625" lon="6.79308">
        <ele>1926</ele>
        <time>2000-01-01T09:34:57.000Z</time>
      </trkpt>
      <trkpt lat="45.96635" lon="6.79294">
        <ele>1922.2</ele>
        <time>2000-01-01T09:35:07.000Z</time>
      </trkpt>
      <trkpt lat="45.96652" lon="6.79302">
        <ele>1921</ele>
        <time>2000-01-01T09:35:17.000Z</time>
      </trkpt>
      <trkpt lat="45.96661" lon="6.79294">
        <ele>1920.5</ele>
        <time>2000-01-01T09:35:27.000Z</time>
      </trkpt>
      <trkpt lat="45.96661" lon="6.79271">
        <ele>1914</ele>
        <time>2000-01-01T09:35:37.000Z</time>
      </trkpt>
      <trkpt lat="45.96665" lon="6.79251">
        <ele>1908.3</ele>
        <time>2000-01-01T09:35:47.000Z</time>
      </trkpt>
      <trkpt lat="45.96677" lon="6.7924">
        <ele>1905</ele>
        <time>2000-01-01T09:35:57.000Z</time>
      </trkpt>
      <trkpt lat="45.9669" lon="6.79213">
        <ele>1896</ele>
        <time>2000-01-01T09:36:07.000Z</time>
      </trkpt>
      <trkpt lat="45.96705" lon="6.79211">
        <ele>1886.3</ele>
        <time>2000-01-01T09:36:17.000Z</time>
      </trkpt>
      <trkpt lat="45.96713" lon="6.79195">
        <ele>1889</ele>
        <time>2000-01-01T09:36:27.000Z</time>
      </trkpt>
      <trkpt lat="45.96703" lon="6.79155">
        <ele>1876</ele>
        <time>2000-01-01T09:36:37.000Z</time>
      </trkpt>
      <trkpt lat="45.96709" lon="6.79143">
        <ele>1869.2</ele>
        <time>2000-01-01T09:36:47.000Z</time>
      </trkpt>
      <trkpt lat="45.96726" lon="6.7915">
        <ele>1870</ele>
        <time>2000-01-01T09:36:57.000Z</time>
      </trkpt>
      <trkpt lat="45.96735" lon="6.79145">
        <ele>1865.4</ele>
        <time>2000-01-01T09:37:07.000Z</time>
      </trkpt>
      <trkpt lat="45.96743" lon="6.79136">
        <ele>1860</ele>
        <time>2000-01-01T09:37:17.000Z</time>
      </trkpt>
      <trkpt lat="45.96758" lon="6.79135">
        <ele>1853.6</ele>
        <time>2000-01-01T09:37:27.000Z</time>
      </trkpt>
      <trkpt lat="45.96764" lon="6.79126">
        <ele>1850</ele>
        <time>2000-01-01T09:37:37.000Z</time>
      </trkpt>
      <trkpt lat="45.96773" lon="6.79127">
        <ele>1852</ele>
        <time>2000-01-01T09:37:47.000Z</time>
      </trkpt>
      <trkpt lat="45.96768" lon="6.79113">
        <ele>1847</ele>
        <time>2000-01-01T09:37:57.000Z</time>
      </trkpt>
      <trkpt lat="45.96776" lon="6.79095">
        <ele>1848.9</ele>
        <time>2000-01-01T09:38:07.000Z</time>
      </trkpt>
      <trkpt lat="45.96759" lon="6.7907">
        <ele>1829</ele>
        <time>2000-01-01T09:38:17.000Z</time>
      </trkpt>
      <trkpt lat="45.96744" lon="6.79059">
        <ele>1847.8</ele>
        <time>2000-01-01T09:38:27.000Z</time>
      </trkpt>
      <trkpt lat="45.96742" lon="6.79033">
        <ele>1825</ele>
        <time>2000-01-01T09:38:37.000Z</time>
      </trkpt>
      <trkpt lat="45.96733" lon="6.79026">
        <ele>1845.8</ele>
        <time>2000-01-01T09:38:47.000Z</time>
      </trkpt>
      <trkpt lat="45.96723" lon="6.79008">
        <ele>1825</ele>
        <time>2000-01-01T09:38:57.000Z</time>
      </trkpt>
      <trkpt lat="45.96708" lon="6.78984">
        <ele>1825</ele>
        <time>2000-01-01T09:39:07.000Z</time>
      </trkpt>
      <trkpt lat="45.9669" lon="6.78973">
        <ele>1824</ele>
        <time>2000-01-01T09:39:17.000Z</time>
      </trkpt>
      <trkpt lat="45.96679" lon="6.78949">
        <ele>1826</ele>
        <time>2000-01-01T09:39:27.000Z</time>
      </trkpt>
      <trkpt lat="45.96669" lon="6.78941">
        <ele>1828</ele>
        <time>2000-01-01T09:39:37.000Z</time>
      </trkpt>
      <trkpt lat="45.96661" lon="6.78942">
        <ele>1828</ele>
        <time>2000-01-01T09:39:47.000Z</time>
      </trkpt>
      <trkpt lat="45.96648" lon="6.78922">
        <ele>1828</ele>
        <time>2000-01-01T09:39:57.000Z</time>
      </trkpt>
      <trkpt lat="45.96634" lon="6.78904">
        <ele>1828</ele>
        <time>2000-01-01T09:40:07.000Z</time>
      </trkpt>
      <trkpt lat="45.96614" lon="6.7887">
        <ele>1820</ele>
        <time>2000-01-01T09:40:17.000Z</time>
      </trkpt>
      <trkpt lat="45.96595" lon="6.78827">
        <ele>1810</ele>
        <time>2000-01-01T09:40:27.000Z</time>
      </trkpt>
      <trkpt lat="45.96587" lon="6.78804">
        <ele>1797.9</ele>
        <time>2000-01-01T09:40:37.000Z</time>
      </trkpt>
      <trkpt lat="45.96567" lon="6.78777">
        <ele>1799</ele>
        <time>2000-01-01T09:40:47.000Z</time>
      </trkpt>
      <trkpt lat="45.96555" lon="6.78765">
        <ele>1802.1</ele>
        <time>2000-01-01T09:40:57.000Z</time>
      </trkpt>
      <trkpt lat="45.96547" lon="6.78748">
        <ele>1798</ele>
        <time>2000-01-01T09:41:07.000Z</time>
      </trkpt>
      <trkpt lat="45.96542" lon="6.78736">
        <ele>1782.6</ele>
        <time>2000-01-01T09:41:17.000Z</time>
      </trkpt>
      <trkpt lat="45.96525" lon="6.78728">
        <ele>1798</ele>
        <time>2000-01-01T09:41:27.000Z</time>
      </trkpt>
      <trkpt lat="45.96512" lon="6.78702">
        <ele>1791</ele>
        <time>2000-01-01T09:41:37.000Z</time>
      </trkpt>
      <trkpt lat="45.96504" lon="6.78669">
        <ele>1778</ele>
        <time>2000-01-01T09:41:47.000Z</time>
      </trkpt>
      <trkpt lat="45.96495" lon="6.7865">
        <ele>1770.8</ele>
        <time>2000-01-01T09:41:57.000Z</time>
      </trkpt>
      <trkpt lat="45.96496" lon="6.78633">
        <ele>1770</ele>
        <time>2000-01-01T09:42:07.000Z</time>
      </trkpt>
      <trkpt lat="45.96486" lon="6.78621">
        <ele>1764.7</ele>
        <time>2000-01-01T09:42:17.000Z</time>
      </trkpt>
      <trkpt lat="45.96475" lon="6.78621">
        <ele>1766</ele>
        <time>2000-01-01T09:42:27.000Z</time>
      </trkpt>
      <trkpt lat="45.96468" lon="6.78609">
        <ele>1764.6</ele>
        <time>2000-01-01T09:42:37.000Z</time>
      </trkpt>
      <trkpt lat="45.96462" lon="6.78607">
        <ele>1765.5</ele>
        <time>2000-01-01T09:42:47.000Z</time>
      </trkpt>
      <trkpt lat="45.96452" lon="6.78597">
        <ele>1755</ele>
        <time>2000-01-01T09:42:57.000Z</time>
      </trkpt>
      <trkpt lat="45.96441" lon="6.78591">
        <ele>1766.2</ele>
        <time>2000-01-01T09:43:07.000Z</time>
      </trkpt>
      <trkpt lat="45.96433" lon="6.78583">
        <ele>1749</ele>
        <time>2000-01-01T09:43:17.000Z</time>
      </trkpt>
      <trkpt lat="45.96419" lon="6.7859">
        <ele>1765.7</ele>
        <time>2000-01-01T09:43:27.000Z</time>
      </trkpt>
      <trkpt lat="45.96403" lon="6.78553">
        <ele>1738</ele>
        <time>2000-01-01T09:43:37.000Z</time>
      </trkpt>
      <trkpt lat="45.96392" lon="6.78543">
        <ele>1757.1</ele>
        <time>2000-01-01T09:43:47.000Z</time>
      </trkpt>
      <trkpt lat="45.9638" lon="6.78516">
        <ele>1734</ele>
        <time>2000-01-01T09:43:57.000Z</time>
      </trkpt>
      <trkpt lat="45.96367" lon="6.78492">
        <ele>1729</ele>
        <time>2000-01-01T09:44:07.000Z</time>
      </trkpt>
      <trkpt lat="45.96354" lon="6.78475">
        <ele>1728</ele>
        <time>2000-01-01T09:44:17.000Z</time>
      </trkpt>
      <trkpt lat="45.96353" lon="6.78456">
        <ele>1715</ele>
        <time>2000-01-01T09:44:27.000Z</time>
      </trkpt>
      <trkpt lat="45.96346" lon="6.78441">
        <ele>1717.3</ele>
        <time>2000-01-01T09:44:37.000Z</time>
      </trkpt>
      <trkpt lat="45.96348" lon="6.7843">
        <ele>1701</ele>
        <time>2000-01-01T09:44:47.000Z</time>
      </trkpt>
      <trkpt lat="45.96329" lon="6.78408">
        <ele>1692</ele>
        <time>2000-01-01T09:44:57.000Z</time>
      </trkpt>
      <trkpt lat="45.96313" lon="6.78375">
        <ele>1689</ele>
        <time>2000-01-01T09:45:07.000Z</time>
      </trkpt>
      <trkpt lat="45.96299" lon="6.78368">
        <ele>1708.3</ele>
        <time>2000-01-01T09:45:17.000Z</time>
      </trkpt>
      <trkpt lat="45.96274" lon="6.78364">
        <ele>1687</ele>
        <time>2000-01-01T09:45:27.000Z</time>
      </trkpt>
      <trkpt lat="45.96252" lon="6.78355">
        <ele>1683</ele>
        <time>2000-01-01T09:45:37.000Z</time>
      </trkpt>
      <trkpt lat="45.96228" lon="6.78333">
        <ele>1678</ele>
        <time>2000-01-01T09:45:47.000Z</time>
      </trkpt>
      <trkpt lat="45.96214" lon="6.78319">
        <ele>1713</ele>
        <time>2000-01-01T09:45:57.000Z</time>
      </trkpt>
      <trkpt lat="45.96198" lon="6.78308">
        <ele>1667</ele>
        <time>2000-01-01T09:46:07.000Z</time>
      </trkpt>
      <trkpt lat="45.96158" lon="6.78287">
        <ele>1658</ele>
        <time>2000-01-01T09:46:17.000Z</time>
      </trkpt>
      <trkpt lat="45.96155" lon="6.7828">
        <ele>1707.7</ele>
        <time>2000-01-01T09:46:27.000Z</time>
      </trkpt>
      <trkpt lat="45.96148" lon="6.78271">
        <ele>1705.1</ele>
        <time>2000-01-01T09:46:37.000Z</time>
      </trkpt>
      <trkpt lat="45.96153" lon="6.78247">
        <ele>1638</ele>
        <time>2000-01-01T09:46:47.000Z</time>
      </trkpt>
      <trkpt lat="45.96146" lon="6.78244">
        <ele>1656</ele>
        <time>2000-01-01T09:46:57.000Z</time>
      </trkpt>
      <trkpt lat="45.96135" lon="6.78253">
        <ele>1634</ele>
        <time>2000-01-01T09:47:07.000Z</time>
      </trkpt>
      <trkpt lat="45.96134" lon="6.78242">
        <ele>1648.6</ele>
        <time>2000-01-01T09:47:17.000Z</time>
      </trkpt>
      <trkpt lat="45.96124" lon="6.78243">
        <ele>1646.3</ele>
        <time>2000-01-01T09:47:27.000Z</time>
      </trkpt>
      <trkpt lat="45.96128" lon="6.78232">
        <ele>1622</ele>
        <time>2000-01-01T09:47:37.000Z</time>
      </trkpt>
      <trkpt lat="45.96122" lon="6.78223">
        <ele>1638</ele>
        <time>2000-01-01T09:47:47.000Z</time>
      </trkpt>
      <trkpt lat="45.96124" lon="6.78189">
        <ele>1600</ele>
        <time>2000-01-01T09:47:57.000Z</time>
      </trkpt>
      <trkpt lat="45.9612" lon="6.7818">
        <ele>1615.8</ele>
        <time>2000-01-01T09:48:07.000Z</time>
      </trkpt>
      <trkpt lat="45.96108" lon="6.78192">
        <ele>1597</ele>
        <time>2000-01-01T09:48:17.000Z</time>
      </trkpt>
      <trkpt lat="45.96108" lon="6.78179">
        <ele>1611.3</ele>
        <time>2000-01-01T09:48:27.000Z</time>
      </trkpt>
      <trkpt lat="45.9611" lon="6.78168">
        <ele>1608.5</ele>
        <time>2000-01-01T09:48:37.000Z</time>
      </trkpt>
      <trkpt lat="45.96094" lon="6.78141">
        <ele>1574</ele>
        <time>2000-01-01T09:48:47.000Z</time>
      </trkpt>
      <trkpt lat="45.96104" lon="6.78131">
        <ele>1583.9</ele>
        <time>2000-01-01T09:48:57.000Z</time>
      </trkpt>
      <trkpt lat="45.96098" lon="6.78105">
        <ele>1559</ele>
        <time>2000-01-01T09:49:07.000Z</time>
      </trkpt>
      <trkpt lat="45.96089" lon="6.78092">
        <ele>1577.8</ele>
        <time>2000-01-01T09:49:17.000Z</time>
      </trkpt>
      <trkpt lat="45.96088" lon="6.78065">
        <ele>1556</ele>
        <time>2000-01-01T09:49:27.000Z</time>
      </trkpt>
      <trkpt lat="45.96077" lon="6.78071">
        <ele>1569.9</ele>
        <time>2000-01-01T09:49:37.000Z</time>
      </trkpt>
      <trkpt lat="45.96068" lon="6.78073">
        <ele>1555</ele>
        <time>2000-01-01T09:49:47.000Z</time>
      </trkpt>
      <trkpt lat="45.96058" lon="6.78068">
        <ele>1567.4</ele>
        <time>2000-01-01T09:49:57.000Z</time>
      </trkpt>
      <trkpt lat="45.96053" lon="6.78071">
        <ele>1566.8</ele>
        <time>2000-01-01T09:50:07.000Z</time>
      </trkpt>
      <trkpt lat="45.96041" lon="6.78074">
        <ele>1554</ele>
        <time>2000-01-01T09:50:17.000Z</time>
      </trkpt>
      <trkpt lat="45.96027" lon="6.78055">
        <ele>1551</ele>
        <time>2000-01-01T09:50:27.000Z</time>
      </trkpt>
      <trkpt lat="45.96034" lon="6.78044">
        <ele>1563.6</ele>
        <time>2000-01-01T09:50:37.000Z</time>
      </trkpt>
      <trkpt lat="45.96035" lon="6.78036">
        <ele>1563.3</ele>
        <time>2000-01-01T09:50:47.000Z</time>
      </trkpt>
      <trkpt lat="45.96041" lon="6.78033">
        <ele>1551</ele>
        <time>2000-01-01T09:50:57.000Z</time>
      </trkpt>
      <trkpt lat="45.96052" lon="6.78038">
        <ele>1565.9</ele>
        <time>2000-01-01T09:51:07.000Z</time>
      </trkpt>
      <trkpt lat="45.96056" lon="6.78029">
        <ele>1554</ele>
        <time>2000-01-01T09:51:17.000Z</time>
      </trkpt>
      <trkpt lat="45.96062" lon="6.78018">
        <ele>1568.4</ele>
        <time>2000-01-01T09:51:27.000Z</time>
      </trkpt>
      <trkpt lat="45.96061" lon="6.78001">
        <ele>1557</ele>
        <time>2000-01-01T09:51:37.000Z</time>
      </trkpt>
      <trkpt lat="45.96072" lon="6.77985">
        <ele>1575</ele>
        <time>2000-01-01T09:51:47.000Z</time>
      </trkpt>
      <trkpt lat="45.96069" lon="6.7797">
        <ele>1558</ele>
        <time>2000-01-01T09:51:57.000Z</time>
      </trkpt>
      <trkpt lat="45.96076" lon="6.77954">
        <ele>1577.4</ele>
        <time>2000-01-01T09:52:07.000Z</time>
      </trkpt>
      <trkpt lat="45.96073" lon="6.77946">
        <ele>1565</ele>
        <time>2000-01-01T09:52:17.000Z</time>
      </trkpt>
      <trkpt lat="45.96061" lon="6.77938">
        <ele>1578.1</ele>
        <time>2000-01-01T09:52:27.000Z</time>
      </trkpt>
      <trkpt lat="45.9605" lon="6.77924">
        <ele>1565</ele>
        <time>2000-01-01T09:52:37.000Z</time>
      </trkpt>
      <trkpt lat="45.96028" lon="6.77914">
        <ele>1568</ele>
        <time>2000-01-01T09:52:47.000Z</time>
      </trkpt>
      <trkpt lat="45.96019" lon="6.77899">
        <ele>1581.8</ele>
        <time>2000-01-01T09:52:57.000Z</time>
      </trkpt>
      <trkpt lat="45.96006" lon="6.7789">
        <ele>1569</ele>
        <time>2000-01-01T09:53:07.000Z</time>
      </trkpt>
      <trkpt lat="45.95994" lon="6.77884">
        <ele>1567.8</ele>
        <time>2000-01-01T09:53:17.000Z</time>
      </trkpt>
      <trkpt lat="45.95981" lon="6.77887">
        <ele>1568</ele>
        <time>2000-01-01T09:53:27.000Z</time>
      </trkpt>
      <trkpt lat="45.95974" lon="6.77881">
        <ele>1566.5</ele>
        <time>2000-01-01T09:53:37.000Z</time>
      </trkpt>
      <trkpt lat="45.9597" lon="6.77884">
        <ele>1565.8</ele>
        <time>2000-01-01T09:53:47.000Z</time>
      </trkpt>
      <trkpt lat="45.95958" lon="6.77876">
        <ele>1568</ele>
        <time>2000-01-01T09:53:57.000Z</time>
      </trkpt>
      <trkpt lat="45.95931" lon="6.77869">
        <ele>1566</ele>
        <time>2000-01-01T09:54:07.000Z</time>
      </trkpt>
      <trkpt lat="45.95909" lon="6.77866">
        <ele>1564</ele>
        <time>2000-01-01T09:54:17.000Z</time>
      </trkpt>
      <trkpt lat="45.95892" lon="6.77859">
        <ele>1548.8</ele>
        <time>2000-01-01T09:54:27.000Z</time>
      </trkpt>
      <trkpt lat="45.95888" lon="6.77851">
        <ele>1559</ele>
        <time>2000-01-01T09:54:37.000Z</time>
      </trkpt>
      <trkpt lat="45.95889" lon="6.7784">
        <ele>1550.3</ele>
        <time>2000-01-01T09:54:47.000Z</time>
      </trkpt>
      <trkpt lat="45.95898" lon="6.77817">
        <ele>1554</ele>
        <time>2000-01-01T09:54:57.000Z</time>
      </trkpt>
      <trkpt lat="45.95895" lon="6.77804">
        <ele>1555.1</ele>
        <time>2000-01-01T09:55:07.000Z</time>
      </trkpt>
      <trkpt lat="45.95883" lon="6.77796">
        <ele>1551</ele>
        <time>2000-01-01T09:55:17.000Z</time>
      </trkpt>
      <trkpt lat="45.95872" lon="6.77783">
        <ele>1552.2</ele>
        <time>2000-01-01T09:55:27.000Z</time>
      </trkpt>
      <trkpt lat="45.95856" lon="6.77757">
        <ele>1544</ele>
        <time>2000-01-01T09:55:37.000Z</time>
      </trkpt>
      <trkpt lat="45.95855" lon="6.77734">
        <ele>1549.8</ele>
        <time>2000-01-01T09:55:47.000Z</time>
      </trkpt>
      <trkpt lat="45.9586" lon="6.77692">
        <ele>1537</ele>
        <time>2000-01-01T09:55:57.000Z</time>
      </trkpt>
      <trkpt lat="45.95864" lon="6.77674">
        <ele>1550</ele>
        <time>2000-01-01T09:56:07.000Z</time>
      </trkpt>
      <trkpt lat="45.95855" lon="6.77669">
        <ele>1534</ele>
        <time>2000-01-01T09:56:17.000Z</time>
      </trkpt>
      <trkpt lat="45.95826" lon="6.77688">
        <ele>1527</ele>
        <time>2000-01-01T09:56:27.000Z</time>
      </trkpt>
      <trkpt lat="45.95812" lon="6.77691">
        <ele>1529.6</ele>
        <time>2000-01-01T09:56:37.000Z</time>
      </trkpt>
      <trkpt lat="45.95801" lon="6.77675">
        <ele>1522</ele>
        <time>2000-01-01T09:56:47.000Z</time>
      </trkpt>
      <trkpt lat="45.95806" lon="6.77652">
        <ele>1527.4</ele>
        <time>2000-01-01T09:56:57.000Z</time>
      </trkpt>
      <trkpt lat="45.95789" lon="6.77644">
        <ele>1513</ele>
        <time>2000-01-01T09:57:07.000Z</time>
      </trkpt>
      <trkpt lat="45.95777" lon="6.77624">
        <ele>1521.3</ele>
        <time>2000-01-01T09:57:17.000Z</time>
      </trkpt>
      <trkpt lat="45.95786" lon="6.77597">
        <ele>1511</ele>
        <time>2000-01-01T09:57:27.000Z</time>
      </trkpt>
      <trkpt lat="45.95794" lon="6.77566">
        <ele>1509</ele>
        <time>2000-01-01T09:57:37.000Z</time>
      </trkpt>
      <trkpt lat="45.95792" lon="6.77542">
        <ele>1524.8</ele>
        <time>2000-01-01T09:57:47.000Z</time>
      </trkpt>
      <trkpt lat="45.95792" lon="6.77519">
        <ele>1509</ele>
        <time>2000-01-01T09:57:57.000Z</time>
      </trkpt>
      <trkpt lat="45.95777" lon="6.77488">
        <ele>1503</ele>
        <time>2000-01-01T09:58:07.000Z</time>
      </trkpt>
      <trkpt lat="45.95767" lon="6.7746">
        <ele>1503</ele>
        <time>2000-01-01T09:58:17.000Z</time>
      </trkpt>
      <trkpt lat="45.95751" lon="6.77434">
        <ele>1501</ele>
        <time>2000-01-01T09:58:27.000Z</time>
      </trkpt>
      <trkpt lat="45.9574" lon="6.77432">
        <ele>1506.3</ele>
        <time>2000-01-01T09:58:37.000Z</time>
      </trkpt>
      <trkpt lat="45.95727" lon="6.77417">
        <ele>1500</ele>
        <time>2000-01-01T09:58:47.000Z</time>
      </trkpt>
      <trkpt lat="45.9571" lon="6.77417">
        <ele>1502.1</ele>
        <time>2000-01-01T09:58:57.000Z</time>
      </trkpt>
      <trkpt lat="45.95693" lon="6.77426">
        <ele>1494</ele>
        <time>2000-01-01T09:59:07.000Z</time>
      </trkpt>
      <trkpt lat="45.95684" lon="6.77418">
        <ele>1497.6</ele>
        <time>2000-01-01T09:59:17.000Z</time>
      </trkpt>
      <trkpt lat="45.95668" lon="6.77407">
        <ele>1488</ele>
        <time>2000-01-01T09:59:27.000Z</time>
      </trkpt>
      <trkpt lat="45.95654" lon="6.77402">
        <ele>1487.1</ele>
        <time>2000-01-01T09:59:37.000Z</time>
      </trkpt>
      <trkpt lat="45.95644" lon="6.7739">
        <ele>1482</ele>
        <time>2000-01-01T09:59:47.000Z</time>
      </trkpt>
      <trkpt lat="45.95641" lon="6.77365">
        <ele>1484.2</ele>
        <time>2000-01-01T09:59:57.000Z</time>
      </trkpt>
      <trkpt lat="45.95638" lon="6.77333">
        <ele>1475</ele>
        <time>2000-01-01T10:00:07.000Z</time>
      </trkpt>
      <trkpt lat="45.95628" lon="6.77297">
        <ele>1470</ele>
        <time>2000-01-01T10:00:17.000Z</time>
      </trkpt>
      <trkpt lat="45.95625" lon="6.77264">
        <ele>1469</ele>
        <time>2000-01-01T10:00:27.000Z</time>
      </trkpt>
      <trkpt lat="45.9562" lon="6.77229">
        <ele>1463</ele>
        <time>2000-01-01T10:00:37.000Z</time>
      </trkpt>
      <trkpt lat="45.95611" lon="6.77203">
        <ele>1463</ele>
        <time>2000-01-01T10:00:47.000Z</time>
      </trkpt>
      <trkpt lat="45.95604" lon="6.77159">
        <ele>1463</ele>
        <time>2000-01-01T10:00:57.000Z</time>
      </trkpt>
      <trkpt lat="45.956" lon="6.77147">
        <ele>1480.4</ele>
        <time>2000-01-01T10:01:07.000Z</time>
      </trkpt>
      <trkpt lat="45.95588" lon="6.77144">
        <ele>1454</ele>
        <time>2000-01-01T10:01:17.000Z</time>
      </trkpt>
      <trkpt lat="45.95562" lon="6.77118">
        <ele>1452</ele>
        <time>2000-01-01T10:01:27.000Z</time>
      </trkpt>
      <trkpt lat="45.95546" lon="6.77103">
        <ele>1449</ele>
        <time>2000-01-01T10:01:37.000Z</time>
      </trkpt>
      <trkpt lat="45.95533" lon="6.77074">
        <ele>1447</ele>
        <time>2000-01-01T10:01:47.000Z</time>
      </trkpt>
      <trkpt lat="45.95519" lon="6.77054">
        <ele>1441</ele>
        <time>2000-01-01T10:01:57.000Z</time>
      </trkpt>
      <trkpt lat="45.95512" lon="6.77031">
        <ele>1462.3</ele>
        <time>2000-01-01T10:02:07.000Z</time>
      </trkpt>
      <trkpt lat="45.95484" lon="6.77025">
        <ele>1435</ele>
        <time>2000-01-01T10:02:17.000Z</time>
      </trkpt>
      <trkpt lat="45.9546" lon="6.77012">
        <ele>1430</ele>
        <time>2000-01-01T10:02:27.000Z</time>
      </trkpt>
      <trkpt lat="45.95431" lon="6.77012">
        <ele>1426</ele>
        <time>2000-01-01T10:02:37.000Z</time>
      </trkpt>
      <trkpt lat="45.95414" lon="6.77005">
        <ele>1428.1</ele>
        <time>2000-01-01T10:02:47.000Z</time>
      </trkpt>
      <trkpt lat="45.954" lon="6.77005">
        <ele>1421</ele>
        <time>2000-01-01T10:02:57.000Z</time>
      </trkpt>
      <trkpt lat="45.95392" lon="6.76997">
        <ele>1425.2</ele>
        <time>2000-01-01T10:03:07.000Z</time>
      </trkpt>
      <trkpt lat="45.9538" lon="6.76953">
        <ele>1417</ele>
        <time>2000-01-01T10:03:17.000Z</time>
      </trkpt>
      <trkpt lat="45.95372" lon="6.76918">
        <ele>1414</ele>
        <time>2000-01-01T10:03:27.000Z</time>
      </trkpt>
      <trkpt lat="45.9537" lon="6.7688">
        <ele>1411</ele>
        <time>2000-01-01T10:03:37.000Z</time>
      </trkpt>
      <trkpt lat="45.9536" lon="6.76856">
        <ele>1410</ele>
        <time>2000-01-01T10:03:47.000Z</time>
      </trkpt>
      <trkpt lat="45.95358" lon="6.76829">
        <ele>1409</ele>
        <time>2000-01-01T10:03:57.000Z</time>
      </trkpt>
      <trkpt lat="45.95348" lon="6.76796">
        <ele>1409</ele>
        <time>2000-01-01T10:04:07.000Z</time>
      </trkpt>
      <trkpt lat="45.95322" lon="6.76748">
        <ele>1412</ele>
        <time>2000-01-01T10:04:17.000Z</time>
      </trkpt>
      <trkpt lat="45.95318" lon="6.76725">
        <ele>1420.5</ele>
        <time>2000-01-01T10:04:27.000Z</time>
      </trkpt>
      <trkpt lat="45.95308" lon="6.7671">
        <ele>1412</ele>
        <time>2000-01-01T10:04:37.000Z</time>
      </trkpt>
      <trkpt lat="45.95287" lon="6.76694">
        <ele>1412</ele>
        <time>2000-01-01T10:04:47.000Z</time>
      </trkpt>
      <trkpt lat="45.9527" lon="6.76669">
        <ele>1414</ele>
        <time>2000-01-01T10:04:57.000Z</time>
      </trkpt>
      <trkpt lat="45.95261" lon="6.7664">
        <ele>1415</ele>
        <time>2000-01-01T10:05:07.000Z</time>
      </trkpt>
      <trkpt lat="45.95232" lon="6.76592">
        <ele>1415</ele>
        <time>2000-01-01T10:05:17.000Z</time>
      </trkpt>
      <trkpt lat="45.95215" lon="6.76577">
        <ele>1415</ele>
        <time>2000-01-01T10:05:27.000Z</time>
      </trkpt>
      <trkpt lat="45.95197" lon="6.76523">
        <ele>1416</ele>
        <time>2000-01-01T10:05:37.000Z</time>
      </trkpt>
      <trkpt lat="45.95178" lon="6.7649">
        <ele>1416</ele>
        <time>2000-01-01T10:05:47.000Z</time>
      </trkpt>
      <trkpt lat="45.95159" lon="6.76461">
        <ele>1414</ele>
        <time>2000-01-01T10:05:57.000Z</time>
      </trkpt>
      <trkpt lat="45.95147" lon="6.7643">
        <ele>1413</ele>
        <time>2000-01-01T10:06:07.000Z</time>
      </trkpt>
      <trkpt lat="45.95138" lon="6.76394">
        <ele>1413</ele>
        <time>2000-01-01T10:06:17.000Z</time>
      </trkpt>
      <trkpt lat="45.95118" lon="6.76353">
        <ele>1411</ele>
        <time>2000-01-01T10:06:27.000Z</time>
      </trkpt>
      <trkpt lat="45.95108" lon="6.76342">
        <ele>1416.4</ele>
        <time>2000-01-01T10:06:37.000Z</time>
      </trkpt>
      <trkpt lat="45.95083" lon="6.76296">
        <ele>1409</ele>
        <time>2000-01-01T10:06:47.000Z</time>
      </trkpt>
      <trkpt lat="45.95079" lon="6.76262">
        <ele>1403</ele>
        <time>2000-01-01T10:06:57.000Z</time>
      </trkpt>
      <trkpt lat="45.95067" lon="6.76238">
        <ele>1401</ele>
        <time>2000-01-01T10:07:07.000Z</time>
      </trkpt>
      <trkpt lat="45.95059" lon="6.76219">
        <ele>1408.2</ele>
        <time>2000-01-01T10:07:17.000Z</time>
      </trkpt>
      <trkpt lat="45.95051" lon="6.76218">
        <ele>1401</ele>
        <time>2000-01-01T10:07:27.000Z</time>
      </trkpt>
      <trkpt lat="45.95046" lon="6.76235">
        <ele>1404.8</ele>
        <time>2000-01-01T10:07:37.000Z</time>
      </trkpt>
      <trkpt lat="45.95041" lon="6.76261">
        <ele>1386</ele>
        <time>2000-01-01T10:07:47.000Z</time>
      </trkpt>
      <trkpt lat="45.95038" lon="6.76269">
        <ele>1396.7</ele>
        <time>2000-01-01T10:07:57.000Z</time>
      </trkpt>
      <trkpt lat="45.95025" lon="6.7623">
        <ele>1382</ele>
        <time>2000-01-01T10:08:07.000Z</time>
      </trkpt>
      <trkpt lat="45.95014" lon="6.76209">
        <ele>1399.9</ele>
        <time>2000-01-01T10:08:17.000Z</time>
      </trkpt>
      <trkpt lat="45.95004" lon="6.76199">
        <ele>1378</ele>
        <time>2000-01-01T10:08:27.000Z</time>
      </trkpt>
      <trkpt lat="45.94978" lon="6.76185">
        <ele>1374</ele>
        <time>2000-01-01T10:08:37.000Z</time>
      </trkpt>
      <trkpt lat="45.94966" lon="6.7616">
        <ele>1371</ele>
        <time>2000-01-01T10:08:47.000Z</time>
      </trkpt>
      <trkpt lat="45.9496" lon="6.76136">
        <ele>1373.7</ele>
        <time>2000-01-01T10:08:57.000Z</time>
      </trkpt>
      <trkpt lat="45.94963" lon="6.76108">
        <ele>1368</ele>
        <time>2000-01-01T10:09:07.000Z</time>
      </trkpt>
      <trkpt lat="45.94979" lon="6.76084">
        <ele>1366</ele>
        <time>2000-01-01T10:09:17.000Z</time>
      </trkpt>
      <trkpt lat="45.94986" lon="6.76064">
        <ele>1370.6</ele>
        <time>2000-01-01T10:09:27.000Z</time>
      </trkpt>
      <trkpt lat="45.94981" lon="6.76053">
        <ele>1358</ele>
        <time>2000-01-01T10:09:37.000Z</time>
      </trkpt>
      <trkpt lat="45.94959" lon="6.7606">
        <ele>1351</ele>
        <time>2000-01-01T10:09:47.000Z</time>
      </trkpt>
      <trkpt lat="45.94953" lon="6.76036">
        <ele>1358.3</ele>
        <time>2000-01-01T10:09:57.000Z</time>
      </trkpt>
      <trkpt lat="45.94948" lon="6.76008">
        <ele>1333</ele>
        <time>2000-01-01T10:10:07.000Z</time>
      </trkpt>
      <trkpt lat="45.94953" lon="6.75974">
        <ele>1326</ele>
        <time>2000-01-01T10:10:17.000Z</time>
      </trkpt>
      <trkpt lat="45.94953" lon="6.75956">
        <ele>1336.9</ele>
        <time>2000-01-01T10:10:27.000Z</time>
      </trkpt>
      <trkpt lat="45.94947" lon="6.75928">
        <ele>1315</ele>
        <time>2000-01-01T10:10:37.000Z</time>
      </trkpt>
      <trkpt lat="45.94944" lon="6.75898">
        <ele>1310</ele>
        <time>2000-01-01T10:10:47.000Z</time>
      </trkpt>
      <trkpt lat="45.94954" lon="6.75864">
        <ele>1308</ele>
        <time>2000-01-01T10:10:57.000Z</time>
      </trkpt>
      <trkpt lat="45.94963" lon="6.75843">
        <ele>1318.6</ele>
        <time>2000-01-01T10:11:07.000Z</time>
      </trkpt>
      <trkpt lat="45.94978" lon="6.75839">
        <ele>1308</ele>
        <time>2000-01-01T10:11:17.000Z</time>
      </trkpt>
      <trkpt lat="45.94995" lon="6.75836">
        <ele>1322.4</ele>
        <time>2000-01-01T10:11:27.000Z</time>
      </trkpt>
      <trkpt lat="45.95007" lon="6.75831">
        <ele>1310</ele>
        <time>2000-01-01T10:11:37.000Z</time>
      </trkpt>
      <trkpt lat="45.95016" lon="6.7582">
        <ele>1328.3</ele>
        <time>2000-01-01T10:11:47.000Z</time>
      </trkpt>
      <trkpt lat="45.95026" lon="6.75806">
        <ele>1309</ele>
        <time>2000-01-01T10:11:57.000Z</time>
      </trkpt>
      <trkpt lat="45.95029" lon="6.7579">
        <ele>1329.9</ele>
        <time>2000-01-01T10:12:07.000Z</time>
      </trkpt>
      <trkpt lat="45.95024" lon="6.75767">
        <ele>1308</ele>
        <time>2000-01-01T10:12:17.000Z</time>
      </trkpt>
      <trkpt lat="45.95014" lon="6.75727">
        <ele>1306</ele>
        <time>2000-01-01T10:12:27.000Z</time>
      </trkpt>
      <trkpt lat="45.95008" lon="6.75678">
        <ele>1306</ele>
        <time>2000-01-01T10:12:37.000Z</time>
      </trkpt>
      <trkpt lat="45.95007" lon="6.75643">
        <ele>1305</ele>
        <time>2000-01-01T10:12:47.000Z</time>
      </trkpt>
      <trkpt lat="45.95014" lon="6.75622">
        <ele>1322.4</ele>
        <time>2000-01-01T10:12:57.000Z</time>
      </trkpt>
      <trkpt lat="45.95024" lon="6.75603">
        <ele>1305</ele>
        <time>2000-01-01T10:13:07.000Z</time>
      </trkpt>
      <trkpt lat="45.95038" lon="6.75586">
        <ele>1321.7</ele>
        <time>2000-01-01T10:13:17.000Z</time>
      </trkpt>
      <trkpt lat="45.95051" lon="6.75579">
        <ele>1303</ele>
        <time>2000-01-01T10:13:27.000Z</time>
      </trkpt>
      <trkpt lat="45.95068" lon="6.7558">
        <ele>1318.4</ele>
        <time>2000-01-01T10:13:37.000Z</time>
      </trkpt>
      <trkpt lat="45.95083" lon="6.75571">
        <ele>1302</ele>
        <time>2000-01-01T10:13:47.000Z</time>
      </trkpt>
      <trkpt lat="45.95091" lon="6.75554">
        <ele>1324.8</ele>
        <time>2000-01-01T10:13:57.000Z</time>
      </trkpt>
      <trkpt lat="45.95093" lon="6.75537">
        <ele>1300</ele>
        <time>2000-01-01T10:14:07.000Z</time>
      </trkpt>
      <trkpt lat="45.95104" lon="6.75492">
        <ele>1300</ele>
        <time>2000-01-01T10:14:17.000Z</time>
      </trkpt>
      <trkpt lat="45.95104" lon="6.75474">
        <ele>1319.1</ele>
        <time>2000-01-01T10:14:27.000Z</time>
      </trkpt>
      <trkpt lat="45.95098" lon="6.75433">
        <ele>1301</ele>
        <time>2000-01-01T10:14:37.000Z</time>
      </trkpt>
      <trkpt lat="45.95095" lon="6.75404">
        <ele>1298</ele>
        <time>2000-01-01T10:14:47.000Z</time>
      </trkpt>
      <trkpt lat="45.95099" lon="6.75383">
        <ele>1317.1</ele>
        <time>2000-01-01T10:14:57.000Z</time>
      </trkpt>
      <trkpt lat="45.95095" lon="6.75344">
        <ele>1296</ele>
        <time>2000-01-01T10:15:07.000Z</time>
      </trkpt>
      <trkpt lat="45.95096" lon="6.75318">
        <ele>1310.7</ele>
        <time>2000-01-01T10:15:17.000Z</time>
      </trkpt>
      <trkpt lat="45.95108" lon="6.75278">
        <ele>1298</ele>
        <time>2000-01-01T10:15:27.000Z</time>
      </trkpt>
      <trkpt lat="45.95111" lon="6.75248">
        <ele>1298</ele>
        <time>2000-01-01T10:15:37.000Z</time>
      </trkpt>
      <trkpt lat="45.95105" lon="6.75208">
        <ele>1299</ele>
        <time>2000-01-01T10:15:47.000Z</time>
      </trkpt>
      <trkpt lat="45.95096" lon="6.75175">
        <ele>1299</ele>
        <time>2000-01-01T10:15:57.000Z</time>
      </trkpt>
      <trkpt lat="45.95086" lon="6.75157">
        <ele>1319.8</ele>
        <time>2000-01-01T10:16:07.000Z</time>
      </trkpt>
      <trkpt lat="45.95069" lon="6.75145">
        <ele>1299</ele>
        <time>2000-01-01T10:16:17.000Z</time>
      </trkpt>
      <trkpt lat="45.95054" lon="6.75142">
        <ele>1308.7</ele>
        <time>2000-01-01T10:16:27.000Z</time>
      </trkpt>
      <trkpt lat="45.95041" lon="6.75142">
        <ele>1291</ele>
        <time>2000-01-01T10:16:37.000Z</time>
      </trkpt>
      <trkpt lat="45.9503" lon="6.75141">
        <ele>1304.9</ele>
        <time>2000-01-01T10:16:47.000Z</time>
      </trkpt>
      <trkpt lat="45.9501" lon="6.75106">
        <ele>1293</ele>
        <time>2000-01-01T10:16:57.000Z</time>
      </trkpt>
      <trkpt lat="45.94996" lon="6.75078">
        <ele>1295</ele>
        <time>2000-01-01T10:17:07.000Z</time>
      </trkpt>
      <trkpt lat="45.9498" lon="6.75048">
        <ele>1298</ele>
        <time>2000-01-01T10:17:17.000Z</time>
      </trkpt>
      <trkpt lat="45.94966" lon="6.75013">
        <ele>1297</ele>
        <time>2000-01-01T10:17:27.000Z</time>
      </trkpt>
      <trkpt lat="45.94953" lon="6.74983">
        <ele>1297</ele>
        <time>2000-01-01T10:17:37.000Z</time>
      </trkpt>
      <trkpt lat="45.94946" lon="6.74952">
        <ele>1299</ele>
        <time>2000-01-01T10:17:47.000Z</time>
      </trkpt>
      <trkpt lat="45.9494" lon="6.74942">
        <ele>1314.3</ele>
        <time>2000-01-01T10:17:57.000Z</time>
      </trkpt>
      <trkpt lat="45.9492" lon="6.74934">
        <ele>1302</ele>
        <time>2000-01-01T10:18:07.000Z</time>
      </trkpt>
      <trkpt lat="45.94892" lon="6.7493">
        <ele>1302</ele>
        <time>2000-01-01T10:18:17.000Z</time>
      </trkpt>
      <trkpt lat="45.94876" lon="6.74918">
        <ele>1302.7</ele>
        <time>2000-01-01T10:18:27.000Z</time>
      </trkpt>
      <trkpt lat="45.94862" lon="6.74896">
        <ele>1303</ele>
        <time>2000-01-01T10:18:37.000Z</time>
      </trkpt>
      <trkpt lat="45.94842" lon="6.74852">
        <ele>1305</ele>
        <time>2000-01-01T10:18:47.000Z</time>
      </trkpt>
      <trkpt lat="45.94834" lon="6.7483">
        <ele>1316.6</ele>
        <time>2000-01-01T10:18:57.000Z</time>
      </trkpt>
      <trkpt lat="45.94835" lon="6.74805">
        <ele>1308</ele>
        <time>2000-01-01T10:19:07.000Z</time>
      </trkpt>
      <trkpt lat="45.94835" lon="6.7477">
        <ele>1310</ele>
        <time>2000-01-01T10:19:17.000Z</time>
      </trkpt>
      <trkpt lat="45.94846" lon="6.74745">
        <ele>1313</ele>
        <time>2000-01-01T10:19:27.000Z</time>
      </trkpt>
      <trkpt lat="45.94856" lon="6.74703">
        <ele>1315</ele>
        <time>2000-01-01T10:19:37.000Z</time>
      </trkpt>
      <trkpt lat="45.94857" lon="6.74685">
        <ele>1333.2</ele>
        <time>2000-01-01T10:19:47.000Z</time>
      </trkpt>
      <trkpt lat="45.94852" lon="6.74657">
        <ele>1316</ele>
        <time>2000-01-01T10:19:57.000Z</time>
      </trkpt>
      <trkpt lat="45.94859" lon="6.74634">
        <ele>1335.5</ele>
        <time>2000-01-01T10:20:07.000Z</time>
      </trkpt>
      <trkpt lat="45.94861" lon="6.74604">
        <ele>1316</ele>
        <time>2000-01-01T10:20:17.000Z</time>
      </trkpt>
      <trkpt lat="45.94852" lon="6.74582">
        <ele>1335.2</ele>
        <time>2000-01-01T10:20:27.000Z</time>
      </trkpt>
      <trkpt lat="45.94839" lon="6.74558">
        <ele>1317</ele>
        <time>2000-01-01T10:20:37.000Z</time>
      </trkpt>
      <trkpt lat="45.94841" lon="6.7454">
        <ele>1336.1</ele>
        <time>2000-01-01T10:20:47.000Z</time>
      </trkpt>
      <trkpt lat="45.94841" lon="6.74524">
        <ele>1318</ele>
        <time>2000-01-01T10:20:57.000Z</time>
      </trkpt>
      <trkpt lat="45.94835" lon="6.74501">
        <ele>1333.4</ele>
        <time>2000-01-01T10:21:07.000Z</time>
      </trkpt>
      <trkpt lat="45.94826" lon="6.74479">
        <ele>1319</ele>
        <time>2000-01-01T10:21:17.000Z</time>
      </trkpt>
      <trkpt lat="45.9482" lon="6.74454">
        <ele>1327.3</ele>
        <time>2000-01-01T10:21:27.000Z</time>
      </trkpt>
      <trkpt lat="45.94817" lon="6.74431">
        <ele>1322</ele>
        <time>2000-01-01T10:21:37.000Z</time>
      </trkpt>
      <trkpt lat="45.94822" lon="6.74408">
        <ele>1329.8</ele>
        <time>2000-01-01T10:21:47.000Z</time>
      </trkpt>
      <trkpt lat="45.94829" lon="6.74384">
        <ele>1327</ele>
        <time>2000-01-01T10:21:57.000Z</time>
      </trkpt>
      <trkpt lat="45.94829" lon="6.74362">
        <ele>1328.5</ele>
        <time>2000-01-01T10:22:07.000Z</time>
      </trkpt>
      <trkpt lat="45.94821" lon="6.74338">
        <ele>1328</ele>
        <time>2000-01-01T10:22:17.000Z</time>
      </trkpt>
      <trkpt lat="45.94823" lon="6.74315">
        <ele>1327.1</ele>
        <time>2000-01-01T10:22:27.000Z</time>
      </trkpt>
      <trkpt lat="45.94831" lon="6.74282">
        <ele>1328</ele>
        <time>2000-01-01T10:22:37.000Z</time>
      </trkpt>
      <trkpt lat="45.94861" lon="6.74239">
        <ele>1334</ele>
        <time>2000-01-01T10:22:47.000Z</time>
      </trkpt>
      <trkpt lat="45.94883" lon="6.74209">
        <ele>1337</ele>
        <time>2000-01-01T10:22:57.000Z</time>
      </trkpt>
      <trkpt lat="45.94905" lon="6.74191">
        <ele>1341</ele>
        <time>2000-01-01T10:23:07.000Z</time>
      </trkpt>
      <trkpt lat="45.94921" lon="6.74173">
        <ele>1343</ele>
        <time>2000-01-01T10:23:17.000Z</time>
      </trkpt>
      <trkpt lat="45.94936" lon="6.74158">
        <ele>1347.5</ele>
        <time>2000-01-01T10:23:27.000Z</time>
      </trkpt>
      <trkpt lat="45.94941" lon="6.74136">
        <ele>1345</ele>
        <time>2000-01-01T10:23:37.000Z</time>
      </trkpt>
      <trkpt lat="45.94951" lon="6.74117">
        <ele>1348.7</ele>
        <time>2000-01-01T10:23:47.000Z</time>
      </trkpt>
      <trkpt lat="45.94975" lon="6.7408">
        <ele>1349</ele>
        <time>2000-01-01T10:23:57.000Z</time>
      </trkpt>
      <trkpt lat="45.94987" lon="6.74068">
        <ele>1350.8</ele>
        <time>2000-01-01T10:24:07.000Z</time>
      </trkpt>
      <trkpt lat="45.95003" lon="6.74044">
        <ele>1353</ele>
        <time>2000-01-01T10:24:17.000Z</time>
      </trkpt>
      <trkpt lat="45.95013" lon="6.74022">
        <ele>1355</ele>
        <time>2000-01-01T10:24:27.000Z</time>
      </trkpt>
      <trkpt lat="45.95033" lon="6.73989">
        <ele>1354</ele>
        <time>2000-01-01T10:24:37.000Z</time>
      </trkpt>
      <trkpt lat="45.95025" lon="6.74">
        <ele>1355</ele>
        <time>2000-01-01T10:24:47.000Z</time>
      </trkpt>
    </trkseg>
  </trk>
</gpx>